[[{"header":{"parameterUnit":"m.s-1","parameterCategory":1,"la1":30.6,"la2":29.2853,"lo1":-89.7004,"lo2":-87.6739,"dy":0.0162,"dx":0.0183,"nx":112,"ny":82,"refTime":"2024-07-05T00:00:00:Z","depth":0,"parameterNumber":2,"parameterNumberName":"U-component_of_WINDS"},"data":[0.0,0.0,0.0,0.0,0.0,0.0,0.0,0.0,0.0,0.0,0.0,0.0,0.0,0.0,0.0,0.0,0.0,0.0,0.0,0.0,0.0,0.0,0.0,0.0,0.0,0.0,0.0,0.0,0.0,0.0,0.0,0.0,0.0,0.0,0.0,0.0,0.0,0.0,0.0,0.0,0.0,0.0,0.0,0.0,0.0,0.0,0.0,0.0,0.0,0.0,0.0,0.0,0.0,0.0,0.0,0.0,0.0,0.0,0.0,0.0,0.0,0.0,0.0,0.0,0.0,0.0,0.0,0.0,0.0,0.0,0.0,0.0,0.0,0.0,0.0,0.0,0.0,0.0,0.0,0.0,0.0,0.0,0.0,0.0,0.0,0.0,0.0,0.0,0.0,0.0,-2.5503,-2.721,-2.87,-2.9109,-2.7943,-2.6848,-2.5248,-2.2978,0.0,0.0,0.0,0.0,0.0,0.0,0.0,0.0,0.0,0.0,0.0,0.0,0.0,0.0,0.0,0.0,0.0,0.0,0.0,0.0,0.0,0.0,0.0,0.0,0.0,0.0,0.0,0.0,0.0,0.0,0.0,0.0,0.0,0.0,0.0,0.0,0.0,0.0,0.0,0.0,0.0,0.0,0.0,0.0,0.0,0.0,0.0,0.0,0.0,0.0,0.0,0.0,0.0,0.0,0.0,0.0,0.0,0.0,0.0,0.0,0.0,0.0,0.0,0.0,0.0,0.0,0.0,0.0,0.0,0.0,0.0,0.0,0.0,0.0,0.0,0.0,0.0,0.0,0.0,0.0,0.0,0.0,0.0,0.0,0.0,0.0,0.0,0.0,0.0,0.0,0.0,0.0,0.0,0.0,0.0,0.0,0.0,0.0,0.0,0.0,0.0,0.0,0.0,0.0,-2.5107,-2.7626,-2.886,-2.9248,-2.8592,-2.7126,-2.5408,-2.3571,0.0,0.0,0.0,0.0,0.0,0.0,0.0,0.0,0.0,0.0,0.0,0.0,0.0,0.0,0.0,0.0,0.0,0.0,0.0,0.0,0.0,0.0,0.0,0.0,0.0,0.0,0.0,0.0,0.0,0.0,0.0,0.0,0.0,0.0,0.0,0.0,0.0,0.0,0.0,0.0,0.0,0.0,0.0,0.0,0.0,0.0,0.0,0.0,0.0,0.0,0.0,0.0,0.0,0.0,0.0,0.0,0.0,0.0,0.0,0.0,0.0,0.0,0.0,0.0,0.0,0.0,0.0,0.0,0.0,0.0,0.0,0.0,0.0,0.0,0.0,0.0,0.0,0.0,0.0,0.0,0.0,0.0,0.0,0.0,0.0,0.0,0.0,0.0,0.0,0.0,0.0,0.0,0.0,0.0,0.0,0.0,0.0,0.0,0.0,0.0,0.0,0.0,0.0,-2.5588,-2.6829,-2.8339,-2.9021,-2.9039,-2.8194,-2.6857,-2.5235,-2.3248,-2.2218,0.0,0.0,0.0,0.0,0.0,0.0,0.0,0.0,0.0,0.0,0.0,0.0,0.0,0.0,0.0,0.0,0.0,0.0,0.0,0.0,0.0,0.0,0.0,0.0,0.0,0.0,0.0,0.0,0.0,0.0,0.0,0.0,0.0,0.0,0.0,0.0,0.0,0.0,0.0,0.0,0.0,0.0,0.0,0.0,0.0,0.0,0.0,0.0,0.0,0.0,0.0,0.0,0.0,0.0,0.0,0.0,0.0,0.0,0.0,0.0,0.0,0.0,0.0,0.0,0.0,0.0,0.0,0.0,0.0,0.0,0.0,0.0,0.0,0.0,0.0,0.0,0.0,0.0,0.0,0.0,0.0,0.0,0.0,0.0,0.0,0.0,0.0,0.0,0.0,0.0,0.0,0.0,0.0,0.0,0.0,0.0,0.0,0.0,0.0,0.0,0.0,0.0,-2.6733,-2.822,-2.8549,-2.8792,-2.8572,-2.762,-2.6283,-2.4699,-2.2828,-2.1919,0.0,0.0,0.0,0.0,0.0,0.0,0.0,0.0,0.0,0.0,0.0,0.0,0.0,0.0,0.0,0.0,0.0,0.0,0.0,0.0,0.0,0.0,0.0,0.0,0.0,0.0,0.0,0.0,0.0,0.0,0.0,0.0,0.0,0.0,0.0,0.0,0.0,0.0,0.0,0.0,0.0,0.0,0.0,0.0,0.0,0.0,0.0,0.0,0.0,0.0,0.0,0.0,0.0,0.0,0.0,0.0,0.0,0.0,0.0,0.0,0.0,0.0,0.0,0.0,0.0,0.0,0.0,0.0,0.0,0.0,0.0,0.0,0.0,0.0,0.0,0.0,0.0,0.0,0.0,0.0,0.0,0.0,0.0,0.0,0.0,0.0,0.0,0.0,0.0,0.0,0.0,0.0,0.0,0.0,0.0,0.0,0.0,0.0,0.0,0.0,0.0,0.0,-2.6202,-2.7782,-2.7605,-2.7775,-2.7781,-2.7442,-2.53,-2.3595,-2.2748,-2.1485,0.0,0.0,0.0,0.0,0.0,0.0,0.0,0.0,0.0,0.0,0.0,0.0,0.0,0.0,0.0,0.0,0.0,0.0,0.0,0.0,0.0,0.0,0.0,0.0,0.0,0.0,0.0,0.0,0.0,0.0,0.0,0.0,0.0,0.0,0.0,0.0,0.0,0.0,0.0,0.0,0.0,0.0,0.0,0.0,0.0,0.0,0.0,0.0,0.0,0.0,0.0,0.0,0.0,0.0,0.0,0.0,0.0,0.0,0.0,0.0,0.0,0.0,0.0,0.0,0.0,0.0,0.0,0.0,0.0,0.0,0.0,0.0,0.0,0.0,0.0,0.0,0.0,0.0,0.0,0.0,0.0,0.0,0.0,0.0,0.0,0.0,0.0,0.0,0.0,0.0,0.0,0.0,0.0,0.0,0.0,0.0,0.0,0.0,0.0,0.0,0.0,0.0,-2.5666,-2.6901,-2.6641,-2.681,-2.6662,-2.5962,-2.4526,-2.3224,-2.2149,0.0,0.0,0.0,0.0,0.0,0.0,0.0,0.0,0.0,0.0,0.0,0.0,0.0,0.0,0.0,0.0,0.0,0.0,0.0,0.0,0.0,0.0,0.0,0.0,0.0,0.0,0.0,0.0,0.0,0.0,0.0,0.0,0.0,0.0,0.0,0.0,0.0,0.0,0.0,0.0,0.0,0.0,0.0,0.0,0.0,0.0,0.0,0.0,0.0,0.0,0.0,0.0,0.0,0.0,0.0,0.0,0.0,0.0,0.0,0.0,0.0,0.0,0.0,0.0,0.0,0.0,0.0,0.0,0.0,0.0,0.0,0.0,0.0,0.0,0.0,0.0,0.0,0.0,0.0,0.0,0.0,0.0,0.0,0.0,0.0,0.0,0.0,0.0,0.0,0.0,0.0,0.0,0.0,0.0,0.0,0.0,0.0,0.0,0.0,0.0,0.0,0.0,-2.3619,-2.5058,-2.6019,-2.592,-2.593,-2.5671,-2.4977,-2.3754,-2.2622,-2.1754,0.0,0.0,0.0,0.0,0.0,0.0,0.0,0.0,0.0,0.0,0.0,0.0,0.0,0.0,0.0,0.0,0.0,0.0,0.0,0.0,0.0,0.0,0.0,0.0,0.0,0.0,0.0,0.0,0.0,0.0,0.0,0.0,0.0,0.0,0.0,0.0,0.0,0.0,0.0,0.0,0.0,0.0,0.0,0.0,0.0,0.0,0.0,0.0,0.0,0.0,0.0,0.0,0.0,0.0,0.0,0.0,0.0,0.0,0.0,0.0,0.0,0.0,0.0,0.0,0.0,0.0,0.0,0.0,0.0,0.0,0.0,0.0,0.0,0.0,0.0,0.0,0.0,0.0,0.0,0.0,0.0,0.0,0.0,0.0,0.0,0.0,0.0,0.0,0.0,0.0,0.0,0.0,0.0,0.0,0.0,0.0,0.0,0.0,0.0,0.0,0.0,0.0,-2.3243,-2.4342,-2.5183,-2.547,-2.5188,-2.4932,-2.4784,-2.29,-2.1695,0.0,0.0,0.0,0.0,0.0,0.0,0.0,0.0,0.0,0.0,0.0,0.0,0.0,0.0,0.0,0.0,0.0,0.0,0.0,0.0,0.0,0.0,0.0,0.0,0.0,0.0,0.0,0.0,0.0,0.0,0.0,0.0,0.0,0.0,0.0,0.0,0.0,0.0,0.0,0.0,0.0,0.0,0.0,0.0,0.0,0.0,0.0,0.0,0.0,0.0,0.0,0.0,0.0,0.0,0.0,0.0,0.0,0.0,0.0,0.0,0.0,0.0,0.0,0.0,0.0,0.0,0.0,0.0,0.0,0.0,0.0,0.0,0.0,0.0,0.0,0.0,0.0,0.0,0.0,0.0,0.0,0.0,0.0,0.0,0.0,0.0,0.0,0.0,0.0,0.0,0.0,0.0,0.0,0.0,0.0,0.0,0.0,0.0,0.0,0.0,0.0,0.0,0.0,-2.3032,-2.3611,-2.4098,-2.4476,-2.4298,-2.4105,-2.3959,-2.2568,-2.1695,-2.1695,0.0,0.0,0.0,0.0,0.0,0.0,0.0,0.0,0.0,0.0,0.0,0.0,0.0,0.0,0.0,0.0,0.0,0.0,0.0,0.0,0.0,0.0,0.0,0.0,0.0,0.0,0.0,0.0,0.0,0.0,0.0,0.0,0.0,0.0,0.0,0.0,0.0,0.0,0.0,0.0,0.0,0.0,0.0,0.0,0.0,0.0,0.0,0.0,0.0,0.0,0.0,0.0,0.0,0.0,0.0,0.0,0.0,0.0,0.0,0.0,0.0,0.0,0.0,0.0,0.0,0.0,0.0,0.0,0.0,0.0,0.0,0.0,0.0,0.0,0.0,0.0,0.0,0.0,0.0,0.0,0.0,0.0,0.0,0.0,0.0,0.0,0.0,0.0,0.0,0.0,0.0,0.0,0.0,0.0,0.0,0.0,0.0,0.0,0.0,0.0,0.0,0.0,-2.2661,-2.2866,-2.3216,-2.3924,-2.3824,-2.3696,-2.3595,-2.2667,-2.1979,-2.171,0.0,0.0,0.0,0.0,0.0,0.0,0.0,0.0,0.0,0.0,0.0,0.0,0.0,0.0,0.0,0.0,0.0,0.0,0.0,0.0,0.0,0.0,0.0,0.0,0.0,0.0,0.0,0.0,0.0,0.0,0.0,0.0,0.0,0.0,0.0,0.0,0.0,0.0,0.0,0.0,0.0,0.0,0.0,0.0,0.0,0.0,0.0,0.0,0.0,0.0,0.0,0.0,0.0,0.0,0.0,0.0,0.0,0.0,0.0,0.0,0.0,0.0,0.0,0.0,0.0,0.0,0.0,0.0,0.0,0.0,0.0,0.0,0.0,0.0,0.0,0.0,0.0,0.0,0.0,0.0,0.0,0.0,0.0,0.0,0.0,0.0,0.0,0.0,0.0,0.0,0.0,0.0,0.0,0.0,0.0,0.0,0.0,0.0,0.0,0.0,0.0,0.0,-2.221,-2.2191,-2.2504,-2.3667,-2.3674,-2.3595,-2.3595,-2.3062,-2.2418,-2.1739,0.0,0.0,0.0,0.0,0.0,0.0,0.0,0.0,0.0,0.0,0.0,0.0,0.0,0.0,0.0,0.0,0.0,0.0,0.0,0.0,0.0,0.0,0.0,0.0,0.0,0.0,0.0,0.0,0.0,0.0,0.0,0.0,0.0,0.0,0.0,0.0,0.0,0.0,0.0,0.0,0.0,0.0,0.0,0.0,0.0,0.0,0.0,0.0,0.0,0.0,0.0,0.0,0.0,0.0,0.0,0.0,0.0,0.0,0.0,0.0,-2.6228,0.0,0.0,0.0,0.0,0.0,0.0,0.0,0.0,0.0,0.0,0.0,0.0,0.0,0.0,0.0,0.0,0.0,0.0,0.0,0.0,0.0,0.0,0.0,0.0,0.0,0.0,0.0,0.0,0.0,0.0,0.0,0.0,0.0,0.0,0.0,0.0,0.0,0.0,0.0,0.0,0.0,-2.1942,-2.1959,-2.232,-2.3518,-2.3616,-2.3595,-2.3595,-2.3062,-2.2418,-2.1739,-2.0441,0.0,0.0,0.0,0.0,0.0,0.0,0.0,0.0,0.0,0.0,0.0,0.0,0.0,0.0,0.0,0.0,0.0,0.0,0.0,0.0,0.0,0.0,0.0,0.0,0.0,0.0,0.0,0.0,0.0,0.0,0.0,0.0,0.0,0.0,0.0,0.0,0.0,0.0,0.0,0.0,0.0,0.0,0.0,0.0,0.0,0.0,0.0,0.0,0.0,0.0,0.0,0.0,0.0,0.0,0.0,0.0,0.0,0.0,0.0,0.0,-2.6585,0.0,0.0,0.0,0.0,0.0,0.0,0.0,0.0,0.0,0.0,0.0,0.0,0.0,0.0,0.0,0.0,0.0,0.0,0.0,0.0,0.0,0.0,0.0,0.0,0.0,0.0,0.0,0.0,0.0,0.0,0.0,0.0,0.0,0.0,0.0,0.0,0.0,0.0,0.0,0.0,-2.1799,-2.2089,-2.2579,-2.349,-2.3595,-2.3595,-2.3595,-2.3295,-2.2868,-2.2224,-2.1216,0.0,0.0,0.0,0.0,0.0,0.0,0.0,0.0,0.0,0.0,0.0,0.0,0.0,0.0,0.0,0.0,0.0,0.0,0.0,0.0,0.0,0.0,0.0,0.0,0.0,0.0,0.0,0.0,0.0,0.0,0.0,0.0,0.0,0.0,0.0,0.0,0.0,0.0,0.0,0.0,0.0,0.0,0.0,0.0,0.0,0.0,0.0,0.0,0.0,0.0,0.0,0.0,0.0,-3.1819,-3.1819,-3.1806,-3.1683,-3.1596,-3.1402,-2.9174,-2.797,-2.7482,-2.6274,0.0,0.0,0.0,0.0,0.0,0.0,0.0,0.0,0.0,0.0,0.0,0.0,0.0,0.0,0.0,0.0,0.0,0.0,0.0,0.0,0.0,0.0,0.0,0.0,-2.4629,-2.4563,0.0,0.0,0.0,0.0,0.0,0.0,0.0,0.0,0.0,0.0,0.0,0.0,-2.1858,-2.2384,-2.2942,-2.3535,-2.3595,-2.3595,-2.3595,-2.3595,-2.3325,-2.2733,-2.2179,-2.1321,0.0,0.0,0.0,0.0,0.0,0.0,0.0,0.0,0.0,0.0,0.0,0.0,0.0,0.0,0.0,0.0,0.0,0.0,0.0,0.0,0.0,0.0,0.0,0.0,0.0,0.0,0.0,0.0,0.0,0.0,0.0,0.0,-2.6413,-2.6519,0.0,0.0,0.0,0.0,0.0,0.0,0.0,0.0,0.0,0.0,0.0,0.0,0.0,-3.2189,-3.2271,-3.2981,-3.3385,-3.3476,-3.3476,-3.3476,-3.3476,-3.3346,-3.3281,-3.3194,-3.1942,0.0,-2.9723,-2.7942,0.0,0.0,0.0,0.0,0.0,0.0,0.0,0.0,0.0,0.0,0.0,0.0,0.0,0.0,0.0,0.0,0.0,0.0,0.0,0.0,0.0,0.0,-2.6035,-2.6556,-2.718,-2.7589,0.0,-2.5413,-2.3572,-2.3259,-2.2924,0.0,0.0,0.0,0.0,0.0,0.0,0.0,-2.2424,-2.2643,-2.2942,-2.3535,-2.3595,-2.3595,-2.3595,-2.3595,-2.3325,-2.2733,-2.2613,-2.2239,-2.1455,-2.0797,0.0,0.0,0.0,0.0,0.0,0.0,0.0,0.0,0.0,0.0,0.0,0.0,0.0,0.0,0.0,0.0,0.0,0.0,0.0,0.0,0.0,0.0,0.0,0.0,0.0,0.0,0.0,0.0,0.0,-2.636,-2.6928,-2.7387,-2.7374,-2.7334,0.0,0.0,0.0,0.0,0.0,0.0,0.0,0.0,0.0,-3.3243,-3.382,-3.4286,-3.4688,-3.5037,-3.5202,-3.5202,-3.4706,-3.4472,-3.4454,-3.3918,-3.3619,-3.3502,-3.2877,-3.2232,-3.1458,-2.9573,-2.8638,-2.827,0.0,0.0,0.0,0.0,-2.6353,-2.642,-2.6877,-2.6742,0.0,-2.5862,0.0,0.0,0.0,0.0,0.0,0.0,0.0,0.0,0.0,0.0,-2.698,-2.7578,-2.7951,-2.8142,-2.7931,-2.6528,-2.5188,0.0,-2.4051,-2.3193,-2.2047,0.0,0.0,0.0,0.0,-2.2044,-2.2628,-2.3002,-2.3295,-2.3565,-2.3595,-2.3595,-2.3595,-2.3595,-2.349,-2.3227,-2.2897,-2.2568,-2.2283,-2.162,-2.0946,0.0,0.0,0.0,0.0,0.0,0.0,0.0,0.0,0.0,0.0,0.0,0.0,0.0,0.0,0.0,0.0,0.0,0.0,0.0,0.0,0.0,0.0,0.0,0.0,0.0,0.0,0.0,0.0,-2.7021,-2.7519,-2.8521,-2.8584,-2.862,0.0,0.0,0.0,0.0,0.0,0.0,-3.3329,-3.3155,-3.384,-3.567,-3.5752,-3.6039,-3.6597,-3.6798,-3.6798,-3.6597,-3.5954,-3.5536,-3.5316,-3.4623,-3.4264,-3.4135,-3.365,-3.3281,-3.2866,-3.0867,-2.992,-2.9591,-2.8506,-2.8094,-2.8094,-2.8094,-2.8094,-2.8179,-2.8807,-2.8602,-2.801,-2.7469,0.0,-2.5645,-2.4542,0.0,0.0,0.0,0.0,-2.5656,-2.693,-2.7394,-2.767,-2.8241,-2.8493,-2.8543,-2.8301,-2.74,-2.6439,0.0,-2.4731,-2.3693,-2.2605,0.0,0.0,0.0,0.0,-2.2763,-2.2912,-2.331,-2.3595,-2.3595,-2.3595,-2.3595,-2.3595,-2.3595,-2.3595,-2.3595,-2.3176,-2.2927,-2.2927,-2.2313,-2.1724,-2.1231,0.0,0.0,0.0,0.0,0.0,0.0,0.0,0.0,0.0,0.0,0.0,0.0,0.0,0.0,0.0,0.0,0.0,0.0,0.0,0.0,0.0,0.0,0.0,0.0,0.0,0.0,0.0,0.0,0.0,-3.0202,-3.0314,0.0,0.0,0.0,0.0,-3.2653,-3.335,-3.4413,-3.5942,-3.5807,-3.5986,-3.6606,-3.7244,-3.7528,-3.7437,-3.8193,-3.8193,-3.7437,-3.7401,-3.6978,-3.6229,-3.6065,-3.5985,-3.5901,-3.4872,-3.4315,-3.3929,-3.1688,-3.0628,-3.0347,-2.9322,-2.8942,-2.8942,-2.8942,-2.8942,-2.8942,-2.8993,-2.8976,-2.8942,-2.8891,-2.7823,-2.627,-2.4676,-2.4645,0.0,0.0,-2.559,-2.6283,-2.6935,-2.7641,-2.8273,-2.8755,-2.9296,-2.9653,-2.9448,-2.8172,-2.6862,0.0,-2.5149,-2.4153,-2.3122,0.0,-2.2731,-2.2664,-2.2673,-2.2912,-2.3475,-2.358,-2.3595,-2.3595,-2.3595,-2.3595,-2.3595,-2.3595,-2.3595,-2.3595,-2.3565,-2.355,-2.355,-2.2972,-2.2628,-2.2598,-2.1321,0.0,0.0,0.0,0.0,0.0,0.0,0.0,0.0,0.0,0.0,0.0,0.0,0.0,0.0,0.0,0.0,0.0,0.0,0.0,0.0,0.0,0.0,0.0,0.0,0.0,0.0,0.0,0.0,-3.1974,-3.2108,0.0,-3.3224,-3.3314,-3.3878,-3.524,-3.5504,-3.6254,-3.7726,-3.8112,-3.8533,-3.9058,-3.9696,-3.9715,-3.9108,-3.9344,-3.9074,-3.8267,-3.7749,-3.7345,-3.7052,-3.6476,-3.6175,-3.6062,-3.555,-3.4887,-3.4041,-3.2827,-3.1946,-3.1227,-3.0139,-2.9702,-2.9702,-2.9702,-2.9702,-2.9786,-3.0243,-3.0431,-3.0347,-2.9854,-2.8935,-2.7901,-2.7291,-2.72,-2.7309,-2.7234,-2.7396,-2.7758,-2.8369,-2.8708,-2.9046,-2.9484,-2.9697,-2.9592,-2.8768,-2.7683,-2.6557,-2.5549,-2.4743,-2.408,-2.3585,-2.3414,-2.3308,-2.3287,-2.3287,-2.3355,-2.3565,-2.3595,-2.3595,-2.3595,-2.3595,-2.3595,-2.3595,-2.3595,-2.3595,-2.3595,-2.3595,-2.3595,-2.3595,-2.3385,-2.3107,-2.2703,-2.1799,-2.0797,0.0,0.0,0.0,0.0,0.0,0.0,0.0,0.0,0.0,0.0,0.0,0.0,0.0,0.0,0.0,0.0,0.0,0.0,0.0,0.0,0.0,0.0,0.0,0.0,0.0,-3.0512,-3.162,-3.331,-3.3703,-3.4161,-3.4975,-3.5315,-3.6051,-3.7448,-3.7428,-3.7894,-3.9135,-3.9785,-4.0215,-4.0471,-4.1063,-4.0954,-4.0004,-3.9929,-3.9625,-3.9093,-3.8576,-3.8447,-3.8689,-3.7881,-3.7466,-3.7332,-3.656,-3.5584,-3.4502,-3.3582,-3.2643,-3.1711,-3.0819,-3.048,-3.048,-3.048,-3.048,-3.0548,-3.1021,-3.119,-3.1072,-3.0345,-2.9713,-2.9166,-2.8839,-2.8678,-2.8567,-2.8469,-2.8431,-2.8558,-2.9087,-2.9243,-2.9362,-2.9854,-2.9842,-2.9374,-2.8272,-2.7274,-2.6258,-2.5157,-2.4444,-2.3931,-2.376,-2.3674,-2.3595,-2.3595,-2.3595,-2.3595,-2.3595,-2.3595,-2.3595,-2.3595,-2.3595,-2.3595,-2.3595,-2.3595,-2.3595,-2.3595,-2.3595,-2.3595,-2.3595,-2.3595,-2.34,-2.3017,-2.2373,-2.1385,-2.0034,0.0,0.0,0.0,0.0,0.0,0.0,0.0,0.0,0.0,0.0,0.0,0.0,0.0,0.0,0.0,0.0,0.0,0.0,0.0,0.0,0.0,0.0,0.0,-3.0788,-3.1406,-3.2508,-3.4183,-3.5066,-3.5861,-3.6699,-3.7546,-3.8377,-3.9176,-3.9125,-3.9382,-4.0167,-4.0789,-4.1002,-4.0656,-4.1315,-4.1152,-4.0056,-3.9966,-3.99,-3.9845,-3.9845,-4.0286,-4.104,-4.0267,-3.99,-3.9793,-3.7901,-3.6479,-3.5418,-3.3882,-3.2696,-3.1797,-3.1383,-3.119,-3.119,-3.119,-3.119,-3.119,-3.119,-3.119,-3.1072,-3.0378,-3.0123,-2.9987,-2.9132,-2.8859,-2.8822,-2.8632,-2.8558,-2.8666,-2.9042,-2.914,-2.9279,-2.9783,-2.9681,-2.9166,-2.8099,-2.7058,-2.6058,-2.4971,-2.4234,-2.3739,-2.3616,-2.3595,-2.3595,-2.3595,-2.3595,0.0,-2.3595,-2.3595,-2.3595,-2.3595,-2.3595,-2.3595,-2.3595,-2.3595,-2.3595,-2.3595,-2.3595,-2.3595,-2.3595,-2.3595,-2.3595,-2.3565,-2.3002,-2.2074,-2.0763,0.0,0.0,0.0,0.0,0.0,0.0,0.0,0.0,0.0,0.0,0.0,0.0,0.0,0.0,0.0,0.0,0.0,0.0,0.0,0.0,0.0,-3.1525,-3.2586,-3.2516,-3.3155,-3.4226,-3.5907,-3.6265,-3.6957,-3.843,-3.8796,-3.9281,-4.0079,-4.006,-4.0077,-4.0196,-4.1426,-4.1978,-4.1706,-4.2795,-4.2634,-4.1018,-4.0861,-4.0194,-3.9038,-3.9038,-3.9441,-4.0212,-3.9992,-3.99,-3.9863,-3.9132,-3.7834,-3.6125,-3.4818,-3.3588,-3.2427,-3.155,-3.119,-3.119,-3.119,-3.119,-3.119,-3.119,-3.119,-3.1157,-3.0954,-3.0903,-3.0833,-3.0496,-3.039,-3.0351,-3.0152,-3.0092,-3.0081,-3.0054,-3.0041,-3.0028,-2.9968,-2.9366,-2.8461,-2.7347,-2.6264,-2.5214,-2.4145,-2.3773,-2.3653,-2.3595,-2.3595,-2.3595,-2.3595,-2.3595,0.0,-2.3595,-2.3595,-2.3595,-2.3595,-2.3595,-2.3595,-2.3595,-2.3595,-2.3595,-2.3595,-2.3595,-2.3595,-2.3595,-2.3595,-2.3385,-2.2957,-2.2778,-2.2523,0.0,0.0,0.0,0.0,0.0,0.0,0.0,0.0,0.0,0.0,0.0,0.0,0.0,0.0,0.0,0.0,0.0,0.0,0.0,0.0,0.0,0.0,-3.2998,-3.3936,-3.4209,-3.4584,-3.5313,-3.6606,-3.7053,-3.7796,-3.9169,-3.9611,-4.0,-4.0457,-4.0466,-4.0407,-4.0289,-4.1758,-4.2466,-4.2184,-4.347,-4.3267,-4.1462,-4.1209,-4.0469,-3.9203,-3.9203,-3.9625,-4.0396,-4.0047,-3.99,0.0,-3.929,-3.8117,-3.6534,-3.5261,-3.4014,0.0,0.0,0.0,0.0,0.0,-3.119,-3.119,-3.119,-3.119,-3.119,-3.119,-3.119,-3.119,-3.1112,-3.1075,-3.1035,-3.0834,-3.0773,-3.0712,-3.0401,-3.0333,-3.0187,-2.9621,-2.899,-2.811,-2.6659,-2.5762,-2.4924,-2.3816,-2.3595,0.0,-2.3595,-2.3595,-2.3595,-2.3595,-2.3595,-2.3595,-2.3595,-2.3595,-2.3595,-2.3595,-2.3595,-2.3595,-2.3595,-2.3595,0.0,0.0,0.0,-2.3729,-2.4007,-2.4298,0.0,0.0,0.0,0.0,0.0,0.0,0.0,0.0,-2.3814,-2.4245,0.0,0.0,0.0,0.0,0.0,0.0,0.0,0.0,0.0,0.0,0.0,0.0,0.0,0.0,0.0,0.0,-3.4223,-3.5003,-3.5739,-3.5799,-3.6021,-3.6752,-3.7526,-3.8373,-3.9342,-4.0073,-4.0496,-4.0496,-4.0487,-4.0466,-4.0415,0.0,0.0,0.0,0.0,-4.3114,-4.1371,-4.1093,-4.0561,-3.9753,-3.9753,-4.0194,-4.093,-4.023,-3.99,-3.9845,-3.8953,-3.7942,-3.6847,-3.542,-3.4091,-3.2828,-3.1722,-3.1235,-3.119,-3.119,-3.119,-3.119,-3.119,0.0,0.0,-3.119,-3.119,-3.119,-3.119,-3.119,-3.1151,-3.0972,-3.0912,-3.081,-3.0359,-3.0231,-2.9987,-2.9053,-2.8592,-2.7875,-2.6083,-2.5412,-2.4851,-2.3786,-2.3595,-2.3595,-2.3595,-2.3595,-2.3595,-2.3595,-2.3595,-2.3595,-2.3595,-2.3595,-2.3595,-2.3595,0.0,0.0,-2.3595,-2.3595,-2.3595,-2.3595,-2.367,-2.4007,-2.4694,-2.5277,-2.5615,-2.5615,-2.5615,-2.5644,-2.5719,-2.5719,-2.5749,-2.5824,-2.5726,-2.5583,0.0,0.0,0.0,0.0,0.0,0.0,0.0,0.0,0.0,0.0,0.0,0.0,0.0,0.0,0.0,-3.4285,-3.5121,-3.5914,-3.6642,-3.6692,-3.6919,-3.766,-3.7906,-3.8604,-4.0131,-4.0419,-4.0496,-4.0496,-4.0487,-4.0502,-4.0485,-4.1284,-4.1613,-4.1348,-4.2033,-4.1796,-4.047,-4.029,-3.9779,-3.8927,0.0,0.0,-4.012,-3.9955,-3.99,-3.9882,-3.9642,-3.8897,-3.7707,-3.5876,-3.3847,-3.1842,-3.138,-3.121,-3.119,-3.119,-3.119,-3.119,-3.119,-3.119,-3.119,-3.119,-3.119,-3.119,-3.119,-3.119,0.0,-3.1015,-3.0952,-3.0851,-3.0651,-3.0485,-3.0114,-2.9184,-2.8227,-2.7169,-2.5831,-2.485,-2.4119,-2.3689,-2.3595,-2.3595,-2.3595,-2.3595,-2.3595,-2.3595,-2.3595,-2.3595,-2.3595,-2.3595,-2.3595,-2.3595,-2.3595,-2.3595,-2.3595,-2.3595,-2.3595,-2.3595,-2.4096,-2.4709,-2.5367,-2.554,-2.5615,-2.5615,-2.5615,-2.5869,-2.6408,-2.6408,-2.6677,-2.721,-2.6539,-2.6421,0.0,0.0,0.0,0.0,0.0,0.0,0.0,0.0,0.0,0.0,0.0,-3.1245,-3.2567,0.0,-3.4999,-3.5868,-3.6686,-3.7311,-3.7654,-3.7609,-3.7831,-3.856,-3.8645,-3.915,-4.0381,-4.0496,-4.0496,-4.0496,-4.0492,-4.0507,-4.0502,-4.1167,-4.1436,-4.1201,-4.1719,-4.144,-4.0308,-4.0111,-3.9556,-3.8707,-3.8707,-3.8909,-3.9294,-3.9294,-3.9294,-3.9294,-3.9266,-3.885,-3.8028,-3.5845,-3.3879,-3.2189,-3.1523,-3.1232,-3.119,-3.119,-3.119,-3.119,-3.119,-3.119,-3.119,-3.119,-3.119,-3.119,-3.119,-3.119,-3.1171,-3.1035,-3.0992,-3.0895,-3.0671,-3.0506,-3.0074,-2.8747,-2.7881,-2.6946,-2.5472,-2.4616,-2.4051,-2.376,-2.3653,-2.3595,-2.3595,-2.3595,-2.3595,-2.3595,-2.3595,-2.3595,-2.3595,-2.3595,-2.3595,-2.3595,-2.3595,-2.3595,-2.3595,-2.3595,-2.3744,-2.4066,-2.4724,-2.5397,-2.6078,-2.6422,-2.6587,-2.6587,-2.6587,-2.6776,-2.7106,-2.7106,-2.727,-2.7585,-2.7195,-2.7227,0.0,0.0,0.0,0.0,0.0,0.0,0.0,-2.8711,-3.0098,-3.0956,-3.1911,-3.3022,-3.4444,-3.5552,-3.6483,-3.7198,-3.7981,-3.8531,-3.8634,-3.854,-3.8733,-3.9487,-3.941,-3.9631,-4.0419,-4.0496,-4.0496,-4.0496,-4.0496,-4.05,-4.0499,-4.1058,-4.1275,-4.1078,-4.1409,-4.1126,-4.0193,-3.993,-3.9439,-3.8707,-3.8707,-3.8707,-3.8707,-3.8707,-3.8707,-3.8707,-3.8673,-3.8426,-3.7878,-3.5687,-3.407,-3.2895,-3.1758,-3.1291,-3.123,-3.121,-3.119,-3.119,-3.119,-3.119,-3.119,-3.119,-3.119,-3.119,-3.119,-3.119,-3.1171,-3.1072,-3.1015,-3.0935,-3.0671,-3.039,-2.9832,-2.8318,-2.7571,-2.6737,-2.5158,-2.4528,-2.4177,-2.3861,-2.3696,-2.3595,-2.3595,-2.3595,-2.3595,-2.3595,-2.3595,-2.3595,-2.3595,-2.3595,-2.3595,-2.3595,-2.3595,-2.3595,-2.3595,-2.3595,-2.3939,-2.4739,-2.5292,-2.5959,-2.6752,-2.7315,-2.76,-2.76,-2.76,-2.76,-2.76,-2.76,-2.76,-2.76,-2.76,-2.7839,-2.5595,-2.5636,-2.5882,-2.6657,-2.6933,-2.7402,0.0,-3.0059,-3.0976,-3.1796,-3.328,-3.447,-3.4663,-3.6048,-3.7199,-3.7271,-3.798,-3.8751,-3.9468,-3.9441,-3.9658,-4.0449,-3.9805,-3.9631,-4.0419,-4.0496,-4.0496,-4.0496,-4.0496,-4.0496,-4.0508,-4.0515,-4.0432,-4.0243,-4.0111,-3.982,-3.9341,-3.9179,-3.8973,-3.8707,-3.8707,-3.8707,-3.8707,-3.8707,-3.8707,-3.8692,-3.8575,-3.7997,-3.7047,-3.5628,-3.4376,-3.3227,-3.1981,-3.1387,-3.1293,-3.1213,-3.119,-3.119,-3.119,-3.119,-3.119,-3.119,-3.119,-3.119,-3.119,-3.119,-3.119,-3.1171,-3.1075,-3.0995,-3.0955,-3.0232,-2.9274,-2.8385,-2.7266,-2.611,-2.5048,-2.4436,-2.4057,-2.3839,-2.3696,-2.3595,-2.3595,-2.3595,-2.3595,-2.3595,-2.3595,-2.3595,-2.3595,-2.3595,-2.3595,-2.3595,-2.3595,-2.3595,-2.3595,-2.3595,-2.4148,-2.542,-2.557,-2.6168,-2.7435,-2.7555,-2.76,-2.76,-2.76,-2.76,-2.76,-2.76,-2.76,-2.76,-2.76,-2.8103,-2.5663,-2.6055,-2.6537,-2.6913,-2.7754,-2.8691,-2.9434,-3.0664,-3.1875,-3.2694,-3.3846,-3.4842,-3.5366,-3.6889,-3.8059,-3.8054,-3.9159,-4.0112,-4.0406,-4.038,-4.041,-4.0668,-4.033,-4.0173,-4.0477,-4.0496,-4.0496,-4.0496,-4.0496,-4.0496,-4.0496,-4.0471,-4.0379,-4.0214,-3.9979,-3.9705,-3.9376,-3.9133,-3.8925,-3.8765,-3.8723,-3.8707,-3.8707,-3.8707,-3.8707,-3.8692,-3.8559,-3.823,-3.7703,-3.6025,-3.4939,-3.4164,-3.2471,-3.1635,-3.1404,-3.1249,-3.119,-3.119,-3.119,-3.119,-3.119,-3.119,-3.119,-3.119,-3.119,-3.119,-3.119,-3.119,-3.1151,-3.1112,-3.1015,-3.0285,-2.9356,-2.8566,-2.7473,-2.6328,-2.5368,-2.4731,-2.4261,-2.4015,-2.3767,-2.3595,-2.3595,-2.3595,-2.3595,-2.3595,-2.3595,-2.3595,-2.3595,-2.3595,-2.3595,-2.3595,-2.3595,-2.3595,-2.3595,-2.3595,-2.4014,-2.4948,-2.5367,-2.6033,-2.6986,-2.739,-2.76,-2.76,-2.76,-2.76,-2.76,-2.76,-2.76,-2.76,-2.76,-2.8174,-2.5692,-2.6343,-2.7068,-2.7304,-2.8496,-2.9668,-2.9902,-3.1113,-3.2363,-3.2949,-3.3945,-3.4882,-3.5525,-3.7262,-3.8609,-3.8605,-4.0005,-4.108,-4.1034,-4.0945,-4.0849,-4.0736,-4.0668,-4.0603,-4.0531,-4.0504,-4.0496,-4.0496,-4.0496,-4.0496,-4.0496,-4.0507,-4.0441,-4.0288,-4.007,-3.9826,-3.9539,-3.921,-3.8979,-3.8837,-3.8735,-3.8707,-3.8707,-3.8707,-3.8707,-3.8692,-3.8609,-3.8512,-3.8305,-3.6635,-3.562,-3.4958,-3.3143,-3.2105,-3.1596,-3.1366,-3.1249,-3.119,-3.119,-3.119,-3.119,-3.119,-3.119,-3.119,-3.119,-3.119,-3.119,-3.119,-3.119,-3.1171,-3.1092,-3.025,-2.9298,-2.8724,-2.7536,-2.6352,-2.5605,-2.4985,-2.4462,-2.4204,-2.3888,-2.3674,-2.3674,-2.3616,-2.3595,-2.3595,-2.3595,-2.3595,-2.3595,-2.3595,-2.3595,-2.3595,-2.3595,-2.3595,-2.3595,-2.3595,-2.3894,-2.456,-2.5053,-2.5719,-2.6557,-2.7076,-2.7405,-2.76,-2.76,-2.76,-2.76,-2.76,-2.76,-2.76,-2.76,-2.8085,-2.5702,-2.6347,-2.7206,-2.8047,-2.8945,-2.9824,-3.0664,-3.1562,-3.2207,-3.2226,-3.3555,-3.4707,-3.4726,-3.6855,-3.8593,-3.8592,-4.0012,-4.109,-4.1098,-4.0981,-4.0861,-4.0818,-4.0739,-4.0666,-4.0595,-4.0539,-4.0496,-4.0496,-4.0496,-4.0496,-4.0496,-4.0507,-4.0441,-4.0288,-4.0177,-3.9933,-3.9599,-3.9343,-3.9087,-3.891,-3.8765,-3.8707,-3.8707,-3.8707,-3.8707,-3.8707,-3.8692,-3.8624,-3.8421,-3.7458,-3.6435,-3.5349,-3.4055,-3.2915,-3.1932,-3.1615,-3.1383,-3.119,-3.119,-3.119,-3.119,-3.119,-3.119,-3.119,-3.119,-3.119,-3.119,-3.119,-3.119,-3.119,-3.119,-3.0032,-2.8826,-2.8809,-2.7321,-2.5877,-2.5642,-2.5072,-2.4528,-2.4323,-2.403,-2.3797,-2.3797,-2.3696,-2.3595,-2.3595,-2.3595,-2.3595,-2.3595,-2.3595,-2.3595,-2.3595,-2.3595,-2.3595,-2.3595,-2.3595,-2.3894,-2.456,-2.4634,-2.5217,-2.6542,-2.6617,-2.6941,-2.7585,-2.76,-2.76,-2.76,-2.76,-2.76,-2.76,-2.76,-2.778,-2.5702,-2.6757,-2.7929,-2.8222,-2.9394,-3.0546,-3.082,-3.1133,-3.1504,-3.207,-3.2617,-3.3339,-3.4492,-3.5898,-3.7246,-3.8418,-3.9567,-4.0495,-4.1023,-4.1017,-4.0937,-4.0881,-4.0807,-4.0739,-4.0666,-4.0569,-4.0496,-4.0496,-4.0496,-4.0496,-4.0496,-4.05,-4.0479,-4.0422,-4.0262,-4.007,-3.9859,-3.9502,-3.9237,-3.9031,-3.881,-3.8707,-3.8707,-3.8707,-3.8707,-3.8707,-3.8707,-3.8673,-3.8569,-3.7671,-3.6664,-3.558,-3.4445,-3.3261,-3.2162,-3.1858,-3.1596,-3.1383,-3.1249,-3.119,-3.119,-3.119,-3.119,-3.119,-3.119,-3.119,-3.119,-3.119,-3.119,-3.119,-3.119,-3.0072,-2.8938,-2.8938,-2.7505,-2.61,-2.5901,-2.5362,-2.4851,-2.4549,-2.4224,-2.3952,-2.3824,-2.376,-2.3696,-2.3595,-2.3595,-2.3595,-2.3595,-2.3595,-2.3595,-2.3595,-2.3595,-2.3595,-2.3595,-2.3595,-2.3699,-2.3924,-2.435,-2.4993,-2.5899,-2.6363,-2.6926,-2.7585,-2.76,-2.76,-2.76,-2.76,-2.76,-2.76,-2.76,-2.7857,-2.6086,-2.7202,-2.8375,-2.8688,-2.9822,-3.0877,-3.0898,-3.0898,-3.1055,-3.1621,-3.1933,-3.2439,-3.3551,-3.4996,-3.6462,-3.791,-3.912,-4.0188,-4.0998,-4.1066,-4.1003,-4.0933,-4.0878,-4.0801,-4.0745,-4.0633,-4.0561,-4.0496,-4.0496,-4.0496,-4.0496,-4.0496,-4.0492,-4.0502,-4.0351,-4.0205,-4.0077,-3.9724,-3.9376,-3.9059,-3.8837,-3.8719,-3.8707,-3.8707,-3.8707,-3.8707,-3.8707,-3.8707,-3.867,-3.8093,-3.7092,-3.5836,-3.506,-3.3843,-3.2453,-3.2109,-3.1802,-3.1519,-3.1327,-3.123,-3.119,-3.119,-3.119,-3.119,-3.119,-3.119,-3.119,-3.119,-3.119,-3.114,-3.0869,-2.9905,-2.8925,-2.8636,-2.7429,-2.6295,-2.61,-2.5645,-2.5185,-2.4835,-2.4513,-2.4204,-2.4009,-2.3882,-2.3739,-2.3616,-2.3595,-2.3595,-2.3595,-2.3595,-2.3595,-2.3595,-2.3595,-2.3595,-2.3595,-2.3595,-2.3595,-2.3595,-2.4231,-2.4903,-2.5561,-2.6243,-2.6926,-2.7585,-2.76,-2.76,-2.76,-2.76,-2.76,-2.76,-2.76,-2.7722,-2.6776,-2.766,-2.8562,-2.9383,-3.0207,-3.0816,-3.0838,-3.0839,-3.082,-3.078,-3.1403,-3.1986,-3.2021,-3.4129,-3.6182,-3.7144,-3.8711,-4.0133,-4.0983,-4.1106,-4.1079,-4.1003,-4.0953,-4.0876,-4.0804,-4.0745,-4.064,-4.0512,0.0,-4.0496,-4.0496,-4.0496,-4.0492,-4.051,-4.0449,-4.0344,-4.0215,-3.9924,-3.9539,-3.8998,-3.8877,-3.8762,-3.8707,-3.8707,-3.8707,-3.8707,-3.8707,-3.8707,-3.8707,-3.867,-3.7634,-3.6065,-3.5836,-3.4544,-3.2781,-3.2369,-3.1966,-3.1598,-3.1391,-3.1254,-3.119,-3.119,-3.119,-3.119,-3.119,-3.119,-3.119,-3.119,-3.119,-3.1038,-3.0345,-2.9583,-2.8807,-2.8043,-2.711,-2.6366,-2.6225,-2.5901,-2.553,-2.5188,-2.4835,-2.4528,-2.4323,-2.403,-2.376,-2.3616,-2.3595,-2.3595,-2.3595,-2.3595,-2.3595,-2.3595,-2.3595,-2.3595,-2.3595,-2.3595,-2.3595,-2.3595,-2.4231,-2.4903,-2.5561,-2.6243,-2.6926,-2.7585,-2.76,-2.76,-2.76,-2.76,-2.76,-2.76,-2.76,-2.7448,-2.6871,-2.8042,-2.9253,-2.9476,-3.0169,-3.0646,-3.0069,-2.9936,-2.9741,-2.9092,-2.9592,-3.0363,-3.1017,-3.2744,-3.4764,-3.6882,-3.8182,-3.9433,-4.0892,-4.1095,-4.1099,-4.1079,-4.1016,-4.0945,-4.0876,-4.0812,-4.0739,-4.0666,-4.0561,-4.0496,-4.0496,-4.0496,-4.0489,-4.05,-4.0471,-4.0441,-4.0353,-3.9927,-3.9563,-3.9219,-3.8993,-3.8837,-3.8762,-3.8719,-3.8707,-3.8707,-3.8707,-3.8707,-3.8652,-3.8046,-3.7121,-3.6025,-3.5278,-3.4183,-3.2975,-3.2621,-3.2284,-3.1929,-3.1635,-3.1387,-3.119,-3.119,-3.119,-3.119,-3.119,-3.119,-3.119,-3.119,-3.119,-3.1157,-3.097,-2.9956,-2.8942,-2.8756,-2.7601,-2.6503,-2.6383,-2.6189,-2.5956,-2.5607,-2.5033,-2.4528,-2.4323,-2.403,-2.3797,-2.3739,-2.3674,-2.3595,-2.3595,-2.3595,-2.3595,-2.3595,-2.3595,-2.3595,-2.3595,-2.3595,-2.3595,-2.3595,-2.4231,-2.4903,-2.5561,-2.6243,-2.6926,-2.7585,-2.76,-2.76,-2.76,-2.76,-2.76,-2.76,-2.76,-2.7514,-2.794,-2.8756,-2.9593,-2.9975,-3.0143,-3.0117,-2.9661,-2.9257,-2.885,-2.8354,-2.8923,-2.9648,-3.0148,-3.1932,-3.4076,-3.6267,-3.7709,-3.914,-4.0856,-4.1101,-4.1091,-4.1101,-4.1074,-4.1016,-4.0956,-4.0878,-4.0826,-4.0752,-4.0612,-4.0531,-4.0496,-4.0496,-4.0496,-4.0496,-4.0511,-4.0455,-4.0351,-4.0019,-3.9693,-3.9427,-3.917,-3.8964,-3.8851,-3.8762,-3.8719,-3.8707,0.0,-3.8707,-3.8634,-3.7841,-3.6986,-3.6102,-3.5144,-3.4105,-3.3117,-3.2798,-3.2437,-3.2055,-3.171,-3.1447,-3.1232,-3.121,-3.119,-3.119,-3.119,-3.119,-3.119,-3.119,-3.119,-3.1123,-3.0801,-2.9854,-2.8908,-2.8552,-2.7536,-2.6623,-2.6521,-2.6383,-2.6189,-2.5846,-2.5285,-2.4795,-2.4569,-2.4183,-2.3909,-2.3803,-2.3696,-2.3595,-2.3595,-2.3595,-2.3595,-2.3595,-2.3595,-2.3595,-2.3595,-2.3595,-2.3595,-2.3595,-2.45,-2.5202,-2.5576,-2.6512,-2.7225,-2.7585,-2.76,-2.76,-2.76,-2.76,-2.76,-2.76,-2.76,-2.7539,-2.9282,-2.9588,-2.9833,-3.06,-3.0127,-2.9457,-2.9334,-2.8645,-2.7986,-2.7878,-2.8634,-2.9316,-2.9316,-3.1401,-3.3707,-3.5437,-3.7194,-3.8943,-4.0683,-4.1029,-4.1099,-4.1093,-4.1103,-4.1081,-4.1013,-4.0945,-4.0897,-4.0809,-4.07,-4.0569,-4.0523,-4.0496,-4.0496,-4.0496,-4.0496,-4.0441,-4.0325,-4.0138,-3.9903,-3.9647,-3.9376,-3.9129,-3.8921,-3.8851,-3.8762,-3.8707,-3.8707,0.0,-3.8634,-3.7731,-3.6942,-3.6193,-3.515,-3.4131,-3.3205,-3.2939,-3.2554,-3.2126,-3.1784,-3.1506,-3.1315,-3.123,-3.119,-3.119,-3.119,-3.119,-3.119,-3.119,-3.119,-3.1055,-3.0412,-2.9617,-2.8824,-2.8146,-2.7317,-2.6691,-2.664,-2.6504,-2.633,-2.6008,-2.5586,-2.5173,-2.4875,-2.4415,-2.4057,-2.3861,-2.3696,-2.3595,-2.3595,-2.3595,-2.3595,-2.3595,-2.3595,-2.3595,-2.3595,-2.3595,-2.3595,-2.3595,-2.4777,-2.5501,-2.5615,-2.6806,-2.751,-2.76,-2.76,-2.76,-2.76,-2.76,-2.76,-2.76,-2.76,-2.7524,-2.9461,-2.9995,-3.0528,-3.0685,-3.0053,-2.9223,-2.8518,-2.7709,-2.6911,-2.6193,-2.7278,-2.8333,-2.8333,-3.0481,-3.28,-3.4536,-3.6284,-3.8059,-3.9863,-4.0682,-4.1109,-4.1105,-4.1095,-4.1104,-4.1078,-4.1025,-4.0961,-4.0887,-4.0759,-4.0648,-4.058,-4.0531,-4.0496,-4.0496,-4.0496,-4.0484,-4.0458,-4.0316,-4.0139,-3.9933,-3.9647,-3.9363,-3.9059,-3.8935,-3.8825,-3.8707,-3.8707,0.0,-3.8597,-3.711,-3.6431,-3.6138,-3.4531,-3.3715,-3.3419,-3.3147,-3.2816,-3.2472,-3.2144,-3.1802,-3.1504,-3.1288,-3.119,-3.119,-3.119,-3.119,-3.119,-3.119,-3.119,-3.1157,-3.1038,-3.0025,-2.8959,-2.884,-2.7723,-2.6691,-2.6691,-2.6623,-2.6469,-2.6206,-2.5848,-2.546,-2.4977,-2.4533,-2.4198,-2.4003,-2.376,-2.3595,-2.3595,-2.3595,-2.3595,-2.3595,-2.3595,-2.3595,-2.3595,-2.3595,-2.3595,-2.3595,-2.4335,-2.5023,-2.5585,-2.6348,-2.7046,-2.7585,-2.76,-2.76,-2.76,-2.76,-2.76,-2.76,-2.76,-2.76,-3.0,-3.0419,-3.0695,-3.0695,-2.9709,-2.8602,-2.8194,-2.7107,-2.6058,-2.5638,-2.6879,-2.8055,-2.8085,-3.021,-3.2529,-3.4305,-3.6066,-3.7812,-3.9605,-4.0566,-4.1093,-4.109,-4.1104,-4.1099,-4.1095,-4.1066,-4.1019,-4.0964,-4.082,-4.0712,-4.0612,-4.0546,-4.0496,-4.0496,-4.0496,-4.0492,-4.0502,-4.0405,-4.0262,-4.0098,-3.987,-3.9587,-3.9245,-3.9073,-3.8906,-3.875,-3.8723,0.0,-3.8579,-3.6964,-3.6303,-3.6138,-3.4408,-3.3671,-3.3534,-3.3331,-3.3039,-3.2705,-3.2335,-3.202,-3.171,-3.1443,-3.1305,-3.119,-3.119,-3.119,-3.119,-3.119,-3.119,-3.119,-3.119,-3.011,-2.8993,-2.8993,-2.7825,-2.6691,-2.6691,-2.6674,-2.6606,-2.6434,-2.61,-2.5719,-2.5326,-2.4791,-2.4317,-2.4094,-2.3803,-2.3595,-2.3595,-2.3595,-2.3595,-2.3595,-2.3595,-2.3595,-2.3595,-2.3595,-2.3595,-2.3595,-2.4231,-2.4754,-2.5068,-2.5734,-2.6393,-2.7076,-2.7091,-2.7255,-2.76,-2.76,-2.76,-2.76,-2.76,-2.76,-3.0275,-3.0562,-3.0706,-3.0704,-2.9392,-2.8105,-2.809,-2.6745,-2.5501,-2.5501,-2.6823,-2.802,-2.8082,-3.0021,-3.2214,-3.4033,-3.5624,-3.732,-3.9259,-4.0268,-4.0898,-4.1074,-4.1092,-4.1108,-4.1102,-4.109,-4.1083,-4.1029,-4.0891,-4.0734,-4.0607,-4.0534,-4.0496,-4.0496,-4.0496,-4.0423,-4.0249,-4.0351,-4.0179,-3.969,-3.9878,-3.9701,-3.9177,-3.9171,-3.9031,-3.8822,-3.875,0.0,0.0,-3.6964,-3.6303,-3.6119,-3.4449,-3.3726,-3.3619,-3.3495,-3.3241,-3.2914,-3.2555,-3.2231,-3.193,-3.1671,-3.1423,-3.123,-3.121,-3.119,-3.119,-3.119,-3.119,-3.1157,-3.1004,-2.9991,-2.8925,-2.8587,-2.7588,-2.6691,-2.6691,-2.6691,-2.6674,-2.6589,-2.6277,-2.5937,-2.5605,-2.5009,-2.4462,-2.4141,-2.3846,-2.3616,-2.3595,-2.3595,-2.3595,-2.3595,-2.3595,-2.3595,-2.3595,-2.3595,-2.3595,-2.3595,-2.4081,-2.4455,-2.459,-2.5098,-2.5779,-2.6572,-2.6587,-2.6941,-2.76,-2.76,-2.76,-2.76,-2.76,-2.76,-2.9597,-3.0134,-3.0706,-3.0704,-2.9393,-2.8101,-2.8101,-2.675,-2.5496,-2.5496,-2.683,-2.8019,-2.8097,-2.9539,-3.1316,-3.3131,-3.4215,-3.5711,-3.827,-3.9366,-4.0201,-4.1011,-4.1093,-4.1093,-4.1091,-4.1103,-4.1106,-4.1091,-4.0904,-4.0744,-4.0603,-4.0539,-4.0496,-4.0496,-4.0496,-4.015,-3.9411,-4.0142,-3.9665,-3.8044,-3.9478,-3.9592,-3.8505,-3.9096,-3.9197,-3.8896,-3.8822,0.0,0.0,-3.6964,-3.6303,-3.6119,-3.4449,-3.3766,-3.3684,-3.3619,-3.3415,-3.3144,-3.2914,-3.2589,-3.2214,-3.1948,-3.16,-3.1293,-3.123,-3.119,-3.119,-3.119,-3.119,-3.1055,-3.0378,-2.96,-2.8654,-2.7232,-2.6793,-2.6691,-2.6691,-2.6691,-2.6657,-2.6537,-2.6329,-2.601,-2.5511,-2.5068,-2.4614,-2.4183,-2.3909,-2.3739,-2.3616,-2.3595,-2.3595,-2.3595,-2.3595,-2.3595,-2.3595,-2.3595,-2.3595,-2.3595,-2.3655,-2.3947,-2.4575,-2.4664,-2.5277,-2.6557,-2.6587,-2.6941,-2.76,-2.76,-2.76,-2.76,-2.76,-2.76,-2.9218,-2.9699,-3.004,-3.0567,-2.9788,-2.8869,-2.8826,-2.7493,-2.6417,-2.6908,-2.7546,-2.8169,-2.8715,-2.9793,-3.1174,-3.2943,-3.4011,-3.5499,-3.8082,-3.9216,-4.0123,-4.0992,-4.1102,-4.111,-4.1093,-4.1093,-4.1082,-4.103,-4.0937,-4.0819,-4.0719,-4.0619,-4.0565,-4.0565,-4.0042,-3.9631,-3.9304,-3.9104,-3.8612,-3.787,-3.8465,-3.8432,-3.7869,-3.8516,-3.8646,-3.8377,-3.8703,0.0,0.0,-3.6974,-3.6303,-3.6119,-3.4449,-3.3793,-3.3753,-3.3684,-3.3559,-3.3415,-3.316,-3.2848,-3.2487,-3.2231,-3.1912,-3.156,-3.1332,-3.1232,-3.119,-3.119,-3.119,-3.1021,-3.0294,-2.9194,-2.801,-2.6945,-2.6691,-2.6691,-2.6691,-2.6691,-2.6674,-2.6624,-2.6399,-2.6099,-2.5752,-2.5188,-2.4675,-2.4281,-2.3988,-2.3739,-2.3616,-2.3595,-2.3595,-2.3595,-2.3595,-2.3595,-2.3595,-2.3595,-2.3595,-2.3595,-2.3595,-2.3729,-2.3999,-2.4014,-2.4642,-2.5974,-2.6004,-2.6512,-2.76,-2.76,-2.76,-2.76,-2.76,-2.76,-2.8408,-2.9074,-2.9576,-3.0179,-2.9852,-2.9384,-2.9342,-2.8222,-2.7338,-2.7898,-2.8204,-2.8571,-2.919,-3.021,-3.1443,-3.2967,-3.3956,-3.5446,-3.8043,-3.8974,-3.9794,-4.0944,-4.1081,-4.1097,-4.1107,-4.1093,-4.1087,-4.1022,-4.0964,-4.0917,-4.0859,-4.0732,-4.064,-4.061,-3.9738,-3.9176,-3.8911,-3.8315,-3.7723,-3.7206,-3.7621,-3.7594,-3.7205,-3.7842,-3.8127,-3.8107,-3.8484,0.0,0.0,-3.6926,-3.617,-3.5771,-3.4357,-3.3807,-3.3775,-3.3753,-3.3684,-3.3587,-3.3401,-3.3111,-3.2798,-3.2504,-3.2179,-3.1839,-3.1504,-3.1312,-3.123,-3.121,-3.1038,-3.07,-2.9973,-2.8787,-2.7604,-2.6877,-2.6691,-2.6691,-2.6691,-2.6691,-2.6691,-2.6674,-2.6435,-2.6152,-2.5899,-2.5304,-2.4755,-2.4364,-2.4051,-2.3797,-2.3616,-2.3595,-2.3595,-2.3595,-2.3595,-2.3595,-2.3595,-2.3595,-2.3595,-2.3595,-2.3595,-2.3684,-2.3894,-2.3909,-2.4537,-2.5869,-2.5899,-2.6452,-2.76,-2.76,-2.76,-2.76,-2.76,-2.76,-2.6926,-2.8192,-2.9491,-2.9437,-2.9402,-2.9405,-2.94,-2.8714,-2.8074,-2.8014,-2.8687,-2.9287,-2.9306,-3.0656,-3.2097,-3.3059,-3.3873,-3.5335,-3.8028,-3.8412,-3.9057,-4.0797,-4.1061,-4.1104,-4.1106,-4.1093,-4.1103,-4.109,-4.104,0.0,-4.0996,-4.0869,-4.074,-4.0595,-3.9762,-3.889,-3.8027,-3.8007,-3.718,-3.5538,-3.7148,-3.7389,-3.6434,-3.7177,-3.7797,0.0,0.0,0.0,0.0,-3.6758,-3.5845,-3.4931,-3.4119,-3.3807,-3.3807,-3.3807,-3.3766,-3.3684,-3.3633,-3.343,-3.3144,-3.2798,-3.247,-3.2126,-3.1728,-3.1466,-3.1293,-3.123,-3.0666,-2.9939,-2.9213,-2.8416,-2.7604,-2.6877,-2.6691,-2.6691,-2.6691,-2.6691,-2.6691,-2.6606,-2.6434,-2.6173,-2.5775,-2.5362,-2.4914,-2.4385,-2.413,-2.3903,-2.3616,-2.3595,-2.3595,-2.3595,-2.3595,-2.3595,-2.3595,-2.3595,-2.3595,-2.3595,-2.3595,-2.3909,-2.4575,-2.459,-2.5217,-2.6557,-2.6572,-2.6926,-2.76,-2.76,-2.76,-2.76,-2.76,-2.76,-2.6745,-2.7731,-2.8756,-2.9316,-2.9884,-3.0289,-3.0234,-2.9574,-2.9136,-2.9678,-2.9515,-2.965,-3.081,-3.1444,-3.228,-3.3785,-3.4729,-3.5994,-3.8035,-3.8872,-3.9704,-4.0864,-4.1064,-4.1097,-4.1106,-4.1094,-4.1108,-4.1103,-4.1088,-4.1042,-4.0997,-4.0956,-4.084,-4.0675,-3.9257,-3.8322,-3.8007,-3.6873,-3.6019,-3.5519,-3.6024,-3.6051,-3.5664,-3.6417,-3.7062,0.0,0.0,0.0,0.0,-3.621,-3.5395,-3.5055,-3.4151,-3.3807,-3.3807,-3.3807,-3.3793,-3.3766,-3.3684,-3.3545,-3.336,-3.3068,-3.2752,-3.2386,-3.193,-3.1562,-3.1293,-3.123,-3.0666,-3.0057,-2.982,-2.9194,-2.8416,-2.7638,-2.7452,-2.73,-2.681,-2.6691,-2.6691,-2.6674,-2.6521,-2.6296,-2.6082,-2.5642,-2.515,-2.4715,-2.4307,-2.3994,-2.376,-2.4058,-2.4276,-2.4276,-2.4276,-2.4096,-2.364,-2.3595,-2.3595,-2.3595,-2.3595,-2.3909,-2.4575,-2.4605,-2.5217,-2.6557,-2.6587,-2.6941,-2.76,-2.76,-2.76,-2.76,-2.76,-2.76,-2.6303,-2.7076,-2.7924,-2.8799,-2.9621,-3.0319,-3.0544,-3.0218,-2.9997,-3.0491,-3.0404,-3.0559,-3.1618,-3.2338,-3.3247,-3.4665,-3.5614,-3.6807,-3.8549,-3.9315,-4.0023,-4.0922,-4.106,-4.1104,-4.1108,-4.1113,-4.1131,-4.1109,-4.1104,-4.1072,-4.1042,-4.1039,-4.082,-4.0338,-3.8901,-3.8106,-3.8036,-3.636,-3.55,-3.55,-3.55,-3.5446,-3.535,-3.5798,-3.6326,0.0,0.0,0.0,0.0,-3.5763,-3.504,-3.4654,-3.4036,-3.3807,-3.3807,-3.3807,-3.3807,-3.3775,-3.3753,-3.3657,-3.3534,-3.3238,-3.28,-3.2335,-3.1912,-3.1542,-3.1235,-3.121,-3.0869,-3.0446,-3.0176,-2.9753,-2.9211,-2.845,-2.801,-2.7672,-2.7198,-2.6894,-2.6691,-2.6691,-2.659,-2.6418,-2.6277,-2.5864,-2.5435,-2.4974,-2.4553,-2.4183,-2.3903,-2.4341,-2.465,-2.4605,-2.4605,-2.4425,-2.4007,-2.3744,-2.3595,-2.3595,-2.3849,-2.4276,-2.4948,-2.5217,-2.5869,-2.6971,-2.6986,-2.718,-2.76,-2.76,-2.76,-2.76,-2.76,-2.76,0.0,-2.6381,-2.7193,-2.8062,-2.8949,-2.9768,-3.0432,-3.0606,0.0,-3.0607,-3.1236,-3.1811,-3.1889,-3.3267,-3.4703,-3.5632,-3.6529,-3.767,-3.9355,-3.9717,-4.0123,-4.1007,-4.1097,-4.1108,-4.1091,-4.1152,-4.1172,-4.1112,-4.1092,-4.1108,-4.1093,-4.1042,-4.0621,-3.9738,-3.8675,-3.8078,-3.8008,-3.6342,-3.55,-3.55,-3.55,-3.546,-3.5405,-3.533,-3.5662,0.0,0.0,0.0,0.0,-3.5404,-3.4757,-3.3895,-3.3834,-3.3807,-3.3807,-3.3807,-3.3807,-3.3807,-3.3807,-3.3766,-3.3657,-3.3309,-3.2703,-3.2037,-3.171,-3.1426,-3.121,-3.119,-3.119,-3.1038,-3.0362,-3.0192,-2.9989,-2.9264,-2.8518,-2.7959,-2.7908,-2.7351,-2.686,-2.686,-2.6775,-2.6622,-2.6431,-2.615,-2.5752,-2.5227,-2.4871,-2.4503,-2.417,-2.4563,-2.4845,-2.4762,-2.4709,-2.4679,-2.4679,-2.4007,-2.3595,-2.3595,-2.4231,-2.4903,-2.5561,-2.6243,-2.6926,-2.7585,-2.76,-2.76,-2.76,-2.76,-2.76,-2.76,-2.76,-2.76,-2.6509,0.0,-2.8106,-2.8977,-2.9805,-3.0451,0.0,-3.0606,-3.0593,-3.0607,-3.1236,-3.2005,-3.2662,-3.3673,-3.4902,-3.6438,-3.7431,-3.8373,-3.9456,-4.0287,-4.0853,-4.1076,-4.1094,-4.1108,-4.1108,-4.1151,-4.1191,-4.1172,-4.1132,-4.109,-4.1104,-4.0468,-3.9975,-3.9714,-3.8179,-3.7288,-3.7108,-3.6042,-3.5495,-3.55,-3.55,-3.5493,-3.5467,-3.5412,-3.5737,0.0,0.0,0.0,-3.5679,-3.484,-3.4284,-3.3959,-3.386,-3.3807,-3.3807,-3.3807,-3.3807,-3.3807,-3.3807,-3.3793,-3.3694,-3.3283,-3.2687,-3.2126,-3.1838,-3.154,-3.1274,-3.121,-3.119,-3.1157,-3.0987,-3.0937,-3.0751,-3.0023,-2.9702,-2.9396,-2.8839,-2.8587,-2.8468,-2.8468,-2.7959,-2.7483,-2.7395,-2.6715,-2.6082,-2.577,-2.5301,-2.5044,-2.5196,-2.5481,-2.5802,-2.6236,-2.5736,-2.5352,-2.5352,-2.4283,-2.3595,-2.3595,-2.4231,-2.4903,-2.5561,-2.6243,-2.6926,-2.7585,-2.76,-2.76,-2.76,-2.76,-2.76,-2.76,-2.76,-2.76,-2.7365,-2.7603,-2.7914,-2.9171,-2.9825,-3.0237,-3.056,-3.0614,-3.0597,-3.0606,-3.155,-3.2546,-3.301,-3.4447,-3.6005,-3.7373,-3.8329,-3.9224,-4.0159,-4.0758,-4.1107,-4.1097,-4.11,-4.1109,-4.1109,-4.1152,-4.1191,-4.1191,-4.1172,-4.0975,-4.0563,-4.0109,-3.9453,-3.8623,-3.7648,-3.7051,-3.69,-3.6002,-3.5534,-3.5495,-3.5488,-3.55,-3.55,-3.546,-3.5606,0.0,0.0,0.0,-3.53,-3.4618,-3.4221,-3.4036,-3.3895,-3.3834,-3.3807,-3.3807,-3.3807,-3.3807,-3.3807,-3.3726,-3.3545,-3.3208,-3.2703,-3.2197,-3.1929,-3.1617,-3.1368,-3.123,-3.119,-3.119,-3.119,-3.119,-3.1106,-3.07,-3.0362,-2.9989,-2.9583,-2.9247,-2.8993,-2.8993,-2.8654,-2.8229,-2.7822,-2.7294,-2.6748,-2.613,-2.5624,-2.5313,-2.5241,-2.5469,-2.5697,-2.5846,-2.5491,-2.5332,-2.5585,-2.4634,-2.4073,-2.4073,-2.4986,-2.5689,-2.6048,-2.6692,-2.7225,-2.7585,-2.76,-2.76,-2.76,-2.76,-2.76,-2.76,-2.76,-2.76,-2.8026,-2.7716,-2.7554,-2.9432,-2.9889,-3.0069,-3.0738,-3.0746,-3.0606,-3.0604,-3.1937,-3.3117,-3.3117,-3.5212,-3.7215,-3.8144,-3.9146,-4.0118,-4.0958,-4.1083,-4.1108,-4.1095,-4.1106,-4.1091,-4.1092,-4.1152,-4.1191,-4.1191,-4.1074,-4.0683,-3.994,-3.9646,-3.8823,-3.7344,-3.7125,-3.6962,-3.6837,-3.6008,-3.5572,-3.5515,-3.5508,-3.55,-3.55,-3.55,-3.5427,-3.5315,0.0,0.0,-3.4803,-3.4607,-3.4363,-3.4099,-3.3972,-3.3855,-3.3807,-3.3807,-3.3807,-3.3807,-3.3807,-3.3633,-3.3378,-3.3178,-3.2768,-3.2301,-3.2002,-3.1746,-3.15,-3.1288,-3.121,-3.119,-3.119,-3.119,-3.119,-3.119,-3.0717,-3.0277,-3.0277,-2.977,-2.9348,-2.9348,-2.9247,-2.8941,-2.8263,-2.8007,-2.7562,-2.6561,-2.6083,-2.5653,-2.5112,-2.5222,-2.5256,-2.5024,-2.4972,-2.513,-2.5555,-2.5173,-2.4903,-2.4903,-2.5974,-2.6632,-2.6761,-2.73,-2.76,-2.76,-2.76,-2.76,-2.76,-2.76,-2.76,-2.76,-2.76,-2.76,-2.7866,-2.8192,-2.8667,-3.1105,-3.1657,-3.1647,-3.1769,-3.1216,-3.0665,-3.0608,-3.1984,-3.3189,-3.3175,-3.5263,-3.7259,-3.8161,-3.9697,-4.0832,-4.0988,-4.1067,-4.1105,-4.1097,-4.1099,-4.1109,-4.1092,-4.1152,-4.1191,-4.1191,-4.0527,-4.0039,-3.9902,-3.8495,-3.7575,-3.7318,-3.6576,-3.6148,-3.606,-3.5762,-3.5587,-3.5591,-3.5534,-3.55,-3.55,-3.55,-3.546,-3.5372,0.0,-3.5155,-3.4945,-3.4743,-3.4491,-3.4173,-3.4036,-3.3908,-3.3807,-3.3807,-3.3807,-3.3807,-3.3807,-3.3657,-3.3448,-3.3253,-3.2896,-3.2488,-3.2179,-3.1911,-3.1688,-3.137,-3.1252,-3.119,-3.119,-3.119,-3.119,-3.119,-3.1106,-3.1021,-3.1021,-3.0937,-3.0852,-3.0852,-3.0362,-2.9888,-2.9768,-2.9228,-2.848,-2.7524,-2.71,-2.6708,-2.6222,-2.5811,-2.5626,-2.5864,-2.5765,-2.5626,-2.56,-2.6033,-2.6288,-2.6288,-2.6482,-2.6866,-2.742,-2.754,-2.76,-2.76,-2.76,-2.76,-2.76,-2.76,-2.76,-2.76,-2.76,-2.76,-2.7949,-2.8963,-3.0053,-3.1697,-3.2075,-3.2169,-3.26,-3.2395,-3.2093,-3.2018,-3.3018,-3.3905,-3.3896,-3.5975,-3.8147,-3.949,-4.0427,-4.1002,-4.1059,-4.1089,-4.1099,-4.1108,-4.1106,-4.1093,-4.1093,-4.1132,-4.0975,-4.0525,-4.0136,-3.9492,-3.8554,-3.7734,-3.7089,-3.6618,-3.6218,-3.5962,-3.5902,-3.5764,-3.5664,-3.5602,-3.5534,-3.5501,-3.55,-3.55,-3.5474,-3.5453,0.0,-3.5254,-3.5108,-3.4926,-3.4651,-3.434,-3.4173,-3.3998,-3.3842,-3.3802,-3.3807,-3.3807,-3.3807,-3.3684,-3.352,-3.328,-3.2941,-3.2588,-3.2266,-3.1983,-3.1746,-3.1523,-3.1351,-3.1252,-3.121,-3.119,-3.119,-3.119,-3.119,-3.119,-3.119,-3.119,-3.119,-3.119,-3.092,-3.0581,-3.0176,-2.982,-2.9274,-2.8332,-2.7919,-2.7522,-2.7046,-2.6588,-2.6302,-2.6265,-2.6039,-2.5998,-2.6242,-2.6471,-2.6761,-2.7121,-2.7151,-2.7285,-2.7585,-2.76,-2.76,-2.76,-2.76,-2.76,-2.76,-2.76,-2.7405,-2.7076,-2.742,-2.7405,-2.8005,-2.9238,-3.0527,-3.1775,-3.2245,-3.2574,-3.3181,-3.3476,-3.36,-3.3526,-3.4208,-3.4796,-3.4792,-3.6736,-3.8826,-4.0378,-4.0824,-4.1025,-4.1075,-4.1098,-4.1104,-4.1095,-4.109,-4.1094,-4.1094,-4.0935,-4.056,-3.9955,-3.9527,-3.8709,-3.7361,-3.7109,-3.6699,-3.6014,-3.6009,-3.5978,-3.5912,-3.5869,-3.5763,-3.5623,-3.5553,-3.5515,-3.55,-3.55,-3.55,-3.55,-3.5453,-3.5354,-3.5209,-3.5091,-3.4831,-3.4506,-3.4305,-3.4086,-3.3868,-3.3815,-3.3807,-3.3807,-3.3807,-3.3726,-3.3573,-3.3357,-3.3052,-3.2718,-3.2387,-3.2108,-3.1856,-3.1673,-3.1523,-3.1351,-3.1252,-3.121,-3.119,-3.119,-3.119,-3.119,-3.119,-3.119,-3.119,-3.119,-3.119,-3.1021,-3.0446,-3.0362,-3.0034,-2.9122,-2.876,-2.8329,-2.7709,-2.729,-2.6901,-2.6512,-2.6374,-2.651,-2.7001,-2.6765,-2.6811,-2.733,-2.751,-2.76,-2.76,-2.745,-2.7435,-2.76,-2.745,-2.7435,-2.76,-2.7435,-2.7106,-2.6602,-2.6971,-2.6941,-2.7843,-2.8391,-2.9057,-3.1484,-3.2705,-3.3319,-3.3373,-3.3963,-3.4487,-3.4428,-3.5096,-3.5709,-3.5715,-3.7184,-3.8693,-3.9621,-4.0468,-4.0999,-4.1019,-4.1052,-4.1096,-4.1106,-4.1106,-4.1093,-4.1092,-4.0426,-3.9955,-3.9896,-3.8393,-3.7437,-3.732,-3.6521,-3.6053,-3.5991,-3.5991,-3.6003,-3.5999,-3.5933,-3.5827,-3.5683,-3.562,-3.5554,-3.55,-3.55,-3.55,-3.55,-3.55,-3.5417,-3.5277,-3.5149,-3.4898,-3.4561,-3.4363,-3.4099,-3.382,-3.3788,-3.3807,-3.3807,-3.3807,-3.3753,-3.3671,-3.352,-3.3283,-3.3008,-3.2654,-3.2387,-3.2108,-3.1873,-3.169,-3.1542,-3.1334,-3.1252,-3.119,-3.119,-3.119,-3.119,-3.119,-3.119,-3.119,-3.119,-3.119,-3.1173,-3.1123,-3.1123,-3.0813,-2.9957,-2.9743,-2.9279,-2.8112,-2.7725,-2.7327,-2.6733,-2.7056,-2.743,-2.7695,-2.702,-2.6617,-2.6662,-2.7255,-2.76,-2.76,-2.7001,-2.6971,-2.7585,-2.7001,-2.6986,-2.76,-2.6986,-2.6632,-2.6572,-2.6019,-2.6048,-2.7974,-2.8697,-2.9461,-3.0971,-3.2383,-3.3531,-3.4085,-3.5244,-3.6206,-3.614,-3.6818,-3.7424,-3.7426,-3.7504,-3.8056,-3.9473,-3.998,-4.0373,-4.0928,-4.0599,-4.0281,-4.0286,-3.9856,-3.955,-3.9549,-3.9271,-3.8875,-3.8325,-3.7664,-3.706,-3.6515,-3.6186,-3.5992,-3.5991,-3.6009,-3.6002,-3.6007,-3.5936,-3.5856,-3.5763,-3.5657,-3.5553,-3.5502,-3.5494,-3.55,-3.55,-3.55,-3.5446,-3.5354,-3.5226,-3.5009,-3.4761,-3.4351,-3.4049,-3.3873,-3.382,-3.3807,-3.3807,-3.3807,-3.3793,-3.3739,-3.3619,-3.3433,-3.3211,-3.2784,-3.2539,-3.2318,-3.1948,-3.1801,-3.1671,-3.1372,-3.1293,-3.1235,-3.121,-3.119,-3.119,-3.119,-3.119,-3.119,-3.119,-3.119,-3.119,-3.119,-3.119,-3.105,-3.0665,-3.0532,-3.0216,-2.9465,-2.9059,-2.8648,-2.8135,-2.7597,-2.7237,-2.7182,-2.6522,-2.606,-2.5974,-2.6213,-2.6363,-2.6363,-2.6108,-2.6288,-2.6971,-2.6746,-2.6941,-2.76,-2.7345,-2.6806,-2.5989,-2.6153,-2.6138,-2.8401,-2.9143,-2.9867,-3.1004,-3.2355,-3.3709,-3.4853,-3.6409,-3.7583,-3.7517,-3.7984,-3.8326,-3.8037,-3.7508,-3.7497,-3.8684,-3.9109,-3.9501,-4.0124,-3.9742,-3.9397,-3.94,-3.8895,-3.8573,-3.8593,-3.8355,-3.7938,-3.7347,-3.7056,-3.6628,-3.6024,-3.6007,-3.6009,-3.6009,-3.6006,-3.6002,-3.5996,-3.5929,-3.5886,-3.5833,-3.5704,-3.5606,-3.5522,-3.5508,-3.55,-3.55,-3.55,-3.546,-3.5398,-3.5258,-3.5037,-3.4732,-3.4298,-3.4036,-3.3895,-3.3842,-3.382,-3.3807,-3.3807,-3.3807,-3.378,-3.3657,-3.3549,-3.3375,-3.2959,-3.2703,-3.2489,-3.2109,-3.1929,-3.1764,-3.1447,-3.1332,-3.1276,-3.123,-3.119,-3.119,-3.119,-3.119,-3.119,-3.119,-3.119,-3.119,-3.119,-3.119,-3.1171,-3.1092,-3.1015,-3.0831,-3.0359,-3.0,-2.9544,-2.892,-2.7859,-2.7106,-2.6892,-2.6036,-2.5431,-2.53,-2.5277,-2.5457,-2.5899,-2.5719,-2.6019,-2.6911,-2.6692,-2.6941,-2.76,-2.739,-2.6692,-2.5615,-2.5854,-2.5734,-2.9124,-2.9612,-3.0023,-3.1685,-3.2761,-3.3859,-3.5586,-3.7293,-3.8484,-3.8425,-3.84,-3.8134,-3.7256,-3.7081,-3.7089,-3.7109,-3.7833,-3.8412,-3.8491,-3.8491,-3.8492,-3.85,-3.8473,-3.8508,-3.8573,-3.7793,-3.7282,-3.7298,-3.6494,-3.6004,-3.6004,-3.6004,-3.6004,-3.6004,-3.6004,-3.6004,-3.6004,-3.5933,-3.5897,-3.5905,-3.5767,-3.5672,-3.5598,-3.554,-3.55,-3.55,-3.55,-3.546,-3.5398,-3.5258,-3.4917,-3.4484,-3.4281,-3.4074,-3.3895,-3.3895,-3.3873,-3.3807,-3.3807,-3.3807,-3.3793,-3.3726,-3.3675,-3.3549,-3.3208,-3.2912,-3.262,-3.2284,-3.2055,-3.1821,-3.1576,-3.1406,-3.1276,-3.123,-3.119,-3.119,-3.119,-3.119,-3.119,-3.119,-3.119,-3.119,-3.119,-3.119,-3.119,-3.119,-3.119,-3.1032,-3.0568,-3.0316,-2.982,-2.8912,-2.7828,-2.7154,-2.7005,-2.5644,-2.4754,-2.4605,-2.4605,-2.5187,-2.6512,-2.5959,-2.6228,-2.7555,-2.6941,-2.6941,-2.76,-2.6941,-2.6258,-2.5576,-2.4918,-2.4605,-2.9456,-3.0451,-3.1486,-3.1975,-3.3224,-3.4458,-3.4973,-3.6854,-3.8644,-3.9201,-3.8832,-3.8132,-3.726,-3.6604,-3.641,-3.7055,-3.738,-3.7787,-3.8413,-3.7971,-3.759,-3.7588,-3.7043,-3.669,-3.6762,-3.6538,-3.6386,-3.6387,-3.6151,-3.5992,0.0,-3.6006,-3.6002,-3.5996,-3.5996,-3.5996,-3.5996,-3.5981,-3.5942,-3.5897,-3.5806,-3.5718,-3.5608,-3.5522,-3.5489,-3.55,-3.55,-3.5493,-3.5453,-3.5163,-3.4898,-3.4623,-3.4381,-3.4148,-3.3959,-3.3908,-3.3873,-3.3807,-3.3807,-3.3807,-3.3807,-3.378,-3.3726,-3.3633,-3.3375,-3.2721,-3.2103,-3.2228,-3.1743,-3.1236,-3.1456,-3.1462,-3.1404,-3.123,-3.119,-3.119,-3.119,-3.119,-3.119,-3.119,-3.119,-3.119,-3.119,-3.119,-3.119,-3.119,-3.119,-3.0992,-3.0359,-2.9782,-2.9275,-2.8842,-2.7914,-2.7064,-2.6366,-2.5887,-2.5349,-2.4634,-2.5038,-2.5262,-2.5187,-2.5465,-2.6019,-2.6881,-2.6692,-2.6941,-2.76,-2.7405,-2.6731,-2.5615,-2.5397,-2.5053,-3.0412,-3.133,-3.2267,-3.2968,-3.3925,-3.4885,-3.5578,-3.6894,-3.8216,-3.9048,-3.8516,-3.7724,-3.7203,-3.6414,-3.6024,-3.6589,-3.668,-3.6865,-3.7386,-3.7019,-3.6671,-3.6679,-3.6224,-3.5927,-3.5962,-3.5975,-3.6004,-3.6009,-3.5995,0.0,0.0,-3.5992,-3.6006,-3.5998,-3.5998,-3.5996,-3.5992,-3.6004,-3.5972,-3.5897,-3.582,-3.5732,-3.5648,-3.5577,-3.5534,-3.55,-3.55,-3.5472,-3.5403,-3.5122,-3.487,-3.4676,-3.442,-3.4197,-3.3998,-3.3947,-3.3868,-3.3807,-3.3807,-3.3807,-3.3807,-3.3807,-3.378,-3.3643,-3.3099,-3.2429,-3.178,-3.1467,-3.0938,-3.056,-3.0959,-3.1054,-3.1083,-3.1181,-3.119,-3.119,-3.119,-3.119,-3.119,-3.119,-3.119,-3.119,-3.119,-3.119,-3.119,-3.119,-3.1092,-3.0814,-3.03,-2.9671,-2.9144,-2.8858,-2.8015,-2.7211,-2.6527,-2.6168,-2.5735,-2.5122,-2.5653,-2.5824,-2.5397,-2.5794,-2.6303,-2.6986,-2.7001,-2.721,-2.76,-2.733,-2.6632,-2.56,-2.5322,-2.4829,-3.1662,-3.2169,-3.2617,-3.4276,-3.4764,-3.5239,-3.6814,-3.7124,-3.7349,-3.8202,-3.7696,-3.7081,-3.7003,-3.6384,-3.5908,-3.5905,-3.5908,-3.5894,-3.5908,-3.5908,-3.5908,-3.5908,-3.5899,-3.5892,-3.5903,-3.5953,-3.5981,-3.5988,-3.6003,0.0,0.0,-3.5996,-3.5993,-3.6006,-3.6005,-3.6001,-3.5994,-3.6006,-3.5976,-3.5908,-3.5839,-3.5779,-3.5706,-3.5635,-3.556,-3.55,-3.55,-3.5379,-3.517,-3.4982,-3.4728,-3.4461,-3.4259,-3.4022,-3.3807,-3.3881,-3.381,-3.371,-3.377,-3.3807,-3.3807,-3.3807,-3.3752,-3.3515,-3.2496,-3.1986,-3.1461,-3.0333,-2.9853,-2.9796,-3.0207,-3.0354,-3.0522,-3.0995,-3.1159,-3.119,-3.119,-3.119,-3.119,-3.119,-3.119,-3.119,-3.119,-3.119,-3.119,-3.119,-3.0932,-3.0613,-3.0351,-2.9853,-2.9357,-2.8951,-2.8163,-2.7558,-2.724,-2.6603,-2.6122,-2.5908,-2.6399,-2.6701,-2.6701,-2.6701,-2.6986,-2.7585,-2.76,-2.76,-2.76,-2.6941,-2.6258,-2.5576,-2.4903,-2.4231,-3.1816,-3.2597,-3.3378,-3.4432,-3.5213,-3.5824,-3.6191,-3.6268,-3.6489,-3.7316,-3.7314,-3.6966,-3.6271,-3.6028,-3.5901,-3.5905,-3.5897,-3.5906,-3.5908,-3.5908,-3.5908,-3.5908,-3.5892,-3.5894,-3.5897,-3.5909,-3.5919,-3.5921,0.0,0.0,-3.5999,-3.5992,-3.5996,-3.5995,-3.6009,-3.6003,-3.6002,-3.5994,-3.5986,0.0,-3.5912,-3.5849,-3.5776,-3.5653,-3.556,-3.55,-3.55,-3.5074,-3.4354,-3.4192,-3.3605,-3.2808,-3.2591,-3.2426,-3.2344,-3.2871,-3.3006,-3.3009,-3.36,-3.3807,-3.3807,-3.3807,-3.3366,-3.2782,-3.2402,-3.1251,-3.0098,-3.015,-2.9534,-2.8964,-2.9489,-3.0016,-3.0402,-3.041,-3.0825,-3.119,-3.119,-3.119,-3.119,-3.119,-3.119,-3.119,-3.119,-3.119,-3.119,-3.119,-3.1012,-3.0716,-3.0351,-2.9881,-2.9409,-2.8951,-2.8599,-2.8068,-2.727,-2.7529,-2.7442,-2.6775,-2.7252,-2.7555,-2.7555,-2.744,-2.745,-2.76,-2.76,-2.76,-2.76,-2.6941,-2.6258,-2.5576,-2.4903,-2.4231,-3.186,-3.2737,-3.3712,-3.4998,-3.5664,-3.6003,-3.5995,-3.5995,-3.6003,-3.6001,-3.6316,-3.6439,-3.5985,-3.5891,-3.5897,-3.5897,-3.5906,-3.5908,-3.5908,-3.5538,-3.5285,-3.5285,-3.4937,-3.4703,-3.4703,-3.4708,-3.4694,0.0,0.0,-3.4938,-3.5357,-3.5373,-3.5384,-3.5371,-3.539,-3.517,-3.4754,-3.477,-3.4765,-3.4743,-3.4726,-3.4659,-3.4556,-3.4844,-3.4705,-3.425,-3.425,-3.3973,-3.3515,-3.3372,-3.2934,-3.2325,-3.2164,-3.1968,-3.1841,-3.2149,-3.2453,-3.2759,-3.3086,-3.3476,-3.3733,-3.3348,-3.2931,-3.2428,-3.1445,-3.0414,-2.9551,-2.9216,-2.8634,-2.8198,-2.8782,-2.9419,-2.9981,-3.0158,-3.0709,-3.119,-3.119,-3.119,-3.119,-3.119,-3.119,-3.119,-3.119,-3.119,-3.119,-3.119,-3.1052,-3.0834,-3.0535,-3.007,-2.9627,-2.9152,-2.8858,-2.8449,-2.7832,-2.8036,-2.8033,-2.7594,-2.7783,-2.7905,-2.7905,-2.7765,-2.7675,-2.76,-2.76,-2.7435,-2.7121,-2.6437,-2.5779,-2.5098,-2.4425,-2.3939,-3.1884,-3.284,-3.4012,-3.5607,-3.6001,-3.6008,-3.5994,-3.5877,-3.5573,-3.4854,-3.5214,-3.5633,-3.548,-3.546,-3.5496,-3.5655,-3.5558,-3.5519,-3.5655,-3.4934,-3.4391,-3.4391,-3.3807,-3.3397,-3.3397,-3.3397,-3.3397,0.0,0.0,-3.3711,-3.4441,-3.4472,-3.4471,-3.4488,-3.4472,-3.412,-3.3408,-3.3407,-3.3406,-3.3405,-3.3391,-3.3261,-3.3002,-3.3615,-3.3535,-3.2917,-3.291,-3.2814,-3.2679,-3.2556,-3.2316,-3.1998,-3.1845,-3.164,-3.1433,-3.1496,-3.1935,-3.2514,-3.2597,-3.3128,-3.3678,-3.2858,-3.2509,-3.208,-3.042,-2.9681,-2.9206,-2.8273,-2.778,-2.7637,-2.8105,-2.8818,-2.9504,-2.9958,-3.0662,-3.121,-3.121,-3.119,-3.119,-3.119,-3.119,-3.119,-3.119,-3.119,-3.1157,-3.1021,-3.0926,-3.0751,-3.0508,-3.0098,-2.9696,-2.9312,-2.899,-2.87,-2.842,-2.8299,-2.8235,-2.8235,-2.8103,-2.8029,-2.8029,-2.7784,-2.7625,-2.751,-2.746,-2.7151,-2.6587,-2.5809,-2.5128,-2.459,-2.3924,-2.3595,-3.1888,-3.3294,-3.476,-3.5755,-3.6009,-3.5992,-3.5996,-3.5428,-3.4835,-3.4719,-3.474,-3.455,-3.3863,-3.3699,-3.3888,-3.4642,-3.4196,-3.3982,-3.4683,-3.4079,-3.3553,-3.3553,-3.3475,-3.3397,-3.3397,-3.3397,-3.3397,0.0,-3.34,-3.3458,-3.3578,-3.3561,-3.3578,-3.3571,-3.357,-3.3516,-3.3396,-3.3394,-3.339,-3.3405,-3.3404,-3.2957,-3.2169,-3.2204,-3.2501,-3.2973,-3.2923,-3.2474,-3.177,-3.1744,-3.1212,-3.0388,-3.0194,-3.0038,-2.996,-3.0533,-3.1179,-3.185,-3.2458,-3.318,-3.3678,-3.2858,-3.2137,-3.1372,-3.0306,-2.9352,-2.8571,-2.8119,-2.7803,-2.7592,-2.7544,-2.8456,-2.9419,-2.9487,-3.0421,-3.1274,-3.121,-3.119,-3.119,-3.119,-3.119,-3.119,-3.119,-3.119,-3.097,-3.0345,-3.0224,-3.0053,-2.9626,-2.9329,-2.9119,-2.9127,-2.8944,-2.87,-2.842,-2.8372,-2.8372,-2.8372,-2.825,-2.8162,-2.8162,-2.7491,-2.7091,-2.7067,-2.6859,-2.6701,-2.6587,-2.5337,-2.4694,-2.459,-2.3924,-2.3595,-3.1873,-3.3023,-3.4174,-3.5053,-3.5641,-3.5994,-3.5996,-3.533,-3.4558,-3.4075,-3.3531,-3.3181,-3.3326,-3.3315,-3.3423,-3.3818,-3.3574,-3.3462,-3.3813,-3.3178,-3.2677,-3.2677,-3.2245,-3.1934,-3.1934,-3.1934,0.0,0.0,-3.1934,-3.2167,-3.2657,-3.2669,-3.2662,-3.2677,-3.2679,-3.2437,-3.1953,-3.1972,-3.201,-3.2007,-3.1952,-3.1709,-3.1273,-3.1193,-3.1333,-3.1601,-3.1524,-3.1282,-3.0924,-3.0893,-3.0585,-3.0147,-2.9988,-2.9787,-2.9626,-2.9851,-3.0654,-3.1688,-3.1931,-3.2838,-3.364,-3.2351,-3.1678,-3.1152,-2.9789,-2.8997,-2.8523,-2.8295,-2.7975,-2.7779,-2.8049,-2.8811,-2.9593,-2.9935,-3.0771,-3.1428,-3.1293,-3.123,-3.119,-3.119,-3.119,-3.1072,-3.0649,-3.0581,-3.0328,-2.9583,-2.9482,-2.9353,-2.894,-2.8959,-2.8902,-2.8624,-2.8708,-2.87,-2.842,-2.8411,-2.8411,-2.8411,-2.8348,-2.8154,-2.7771,-2.7345,-2.6954,-2.6573,-2.6285,-2.5963,-2.5588,-2.4911,-2.441,-2.4022,-2.3744,-2.3595,-3.1894,-3.2596,-3.3298,-3.4157,-3.4862,-3.5331,-3.5332,-3.4665,-3.3856,-3.3198,-3.2346,-3.1896,-3.2527,-3.2632,-3.2704,-3.2921,-3.28,-3.2734,-3.2967,-3.2296,-3.178,-3.178,-3.1191,-3.0801,-3.0801,-3.0801,0.0,0.0,-3.0801,-3.1074,-3.1722,-3.178,-3.177,-3.1767,-3.1765,-3.147,-3.0817,-3.0879,-3.0898,-3.0897,-3.083,-3.0771,-3.0715,-3.0635,-3.0552,-3.05,-3.0419,-3.0404,-3.0404,-3.0342,-3.028,-3.0185,-3.0049,-2.9855,-2.9608,-2.9474,-3.0262,-3.1383,-3.1254,-3.2127,-3.3053,-3.1574,-3.1103,-3.0815,-2.9362,-2.8798,-2.8612,-2.8471,-2.816,-2.7994,-2.8541,-2.9151,-2.9765,-3.04,-3.1085,-3.1542,-3.1334,-3.1252,-3.119,-3.119,-3.1055,-3.0751,-3.0192,-2.9939,-2.9567,-2.8805,-2.8687,-2.8561,-2.8213,-2.8333,-2.8387,-2.817,-2.837,-2.8474,-2.842,-2.8411,-2.8411,-2.8411,-2.8242,-2.7919,-2.7411,-2.6949,-2.6474,-2.5969,-2.5599,-2.5198,-2.4799,-2.453,-2.4125,-2.3595,-2.3595,-2.3595,-3.1953,-3.2226,-3.2461,-3.3262,-3.3496,-3.3535,-3.3535,-3.285,-3.222,-3.2171,-3.1476,-3.0867,-3.084,-3.0831,-3.1109,-3.1926,-3.1437,-3.1215,-3.2052,-3.1417,-3.0879,-3.0879,-3.084,-3.0801,-3.0801,-3.0801,0.0,0.0,-3.0801,-3.0821,-3.0879,-3.0879,-3.0867,-3.088,-3.0861,-3.0859,-3.0791,-3.0878,-3.0898,-3.0898,-3.0834,-3.08,-3.0794,-3.0659,-3.0563,-3.0511,-3.0436,-3.0404,-3.0404,-3.0404,-3.0324,-3.02,-3.0056,-2.9867,-2.969,-2.9532,-2.9951,-3.055,-3.0482,-3.0966,-3.1477,-3.0552,-3.0265,-3.0099,-2.9244,-2.8912,-2.8749,-2.8562,-2.8264,-2.8106,-2.8572,-2.9151,-2.9782,-3.0524,-3.1157,-3.1542,-3.1334,-3.1252,-3.119,-3.119,-3.0632,-3.0159,-3.0125,-2.9516,-2.8807,-2.7976,-2.7858,-2.7716,-2.7315,-2.7125,-2.7259,-2.7933,-2.787,-2.793,-2.8374,-2.8411,-2.8411,-2.8411,-2.7796,-2.7442,-2.7396,-2.6096,-2.5389,-2.5342,-2.4658,-2.445,-2.4799,-2.4137,-2.3762,-2.3595,-2.3595,-2.3595,-3.1133,-3.1777,-3.2266,-3.2559,-3.3027,-3.3398,-3.3398,-3.2734,-3.2106,-3.2098,-3.1414,-3.0795,-3.0776,-3.0724,-3.0794,-3.1102,-3.0912,-3.0836,-3.1156,-3.0976,-3.0794,-3.0799,-3.0801,-3.0801,-3.0801,-3.0801,0.0,0.0,0.0,-3.0801,-3.0801,-3.0801,-3.0799,-3.0799,-3.0802,-3.0807,-3.079,-3.0876,-3.0898,-3.0898,-3.0835,-3.0804,-3.0806,-3.0719,-3.063,-3.0558,-3.0449,-3.0402,-3.0404,-3.0404,-3.0362,-3.026,-3.0111,-2.9961,-2.9816,-2.9626,-3.0022,-3.0612,-3.0449,-3.0909,-3.1408,-3.0503,-3.021,-3.0063,-2.9244,-2.8929,-2.8834,-2.8669,-2.8453,-2.8473,-2.9417,-2.9745,-3.0056,-3.1164,-3.1481,-3.1519,-3.1443,-3.1308,-3.1055,-3.0598,-3.0294,-2.9803,-2.8787,-2.8398,-2.7977,-2.7215,-2.7097,-2.6977,-2.666,-2.6821,-2.6955,-2.6903,-2.7109,-2.7223,-2.7172,-2.718,-2.7157,-2.7119,-2.6857,-2.6496,-2.6087,-2.5558,-2.5096,-2.4671,-2.4399,-2.4273,-2.4282,-2.396,-2.3739,-2.3595,-2.3595,-2.3595,-3.0664,-3.1328,-3.1758,-3.1758,-3.2168,-3.2559,-3.2559,-3.2109,-3.1697,-3.1673,-3.1191,-3.0794,-3.0799,-3.0764,-3.073,-3.0695,-3.0697,-3.0698,-3.0691,-3.0753,-3.0808,-3.0794,-3.0799,-3.0801,-3.0801,-3.0801,0.0,0.0,0.0,0.0,-3.0373,-3.0368,-3.0363,-3.0358,-3.0648,-3.0796,-3.0807,-3.0834,-3.0877,-3.0898,-3.0856,-3.0827,-3.0791,-3.0725,-3.066,-3.0595,-3.0481,-3.0425,-3.0404,-3.0404,-3.0355,-3.0299,-3.0173,-3.0046,-2.9876,-2.9701,-2.9905,-3.0248,-3.0072,-3.0375,-3.0699,-3.0042,-2.9818,-2.9702,-2.9152,-2.8964,-2.8905,-2.8773,-2.8781,-2.9053,-2.9991,-3.0404,-3.0785,-3.1596,-3.167,-3.1519,-3.1498,-3.114,-3.0683,-3.0209,-2.9666,-2.899,-2.7976,-2.7587,-2.7249,-2.6776,-2.6691,-2.6607,-2.6383,-2.6586,-2.6651,-2.6406,-2.657,-2.6655,-2.6557,-2.6543,-2.6476,-2.6402,-2.6134,-2.5758,-2.5312,-2.5081,-2.4743,-2.4317,-2.4302,-2.4234,-2.4082,-2.394,-2.3797,-2.3674,-2.3616,-2.3595,0.0,0.0,0.0,-3.0898,-3.0898,-3.0898,-3.0898,-3.0898,-3.0877,-3.0817,-3.0807,-3.0806,-3.0791,-3.0794,-3.0773,-3.0704,-3.0707,-3.0695,-3.0695,-3.0764,-3.0806,-3.0806,-3.0794,-3.0801,-3.0801,0.0,0.0,0.0,-3.0801,-3.0412,-2.9554,-2.9487,-2.946,-2.946,-3.0288,-3.0745,-3.0761,-3.0768,-3.0796,-3.0859,-3.0859,-3.0833,-3.0753,-3.0694,-3.0636,-3.06,-3.052,-3.0466,-3.0404,-3.0404,-3.0367,-3.0298,-3.0233,-3.0072,-2.9888,-2.9742,-2.958,-2.9402,-2.9314,-2.9267,-2.9189,-2.9112,-2.9044,-2.9005,-2.9005,-2.9005,-2.897,-2.8834,-2.9225,-2.9778,-3.0175,-3.1092,-3.1893,-3.1819,-3.1709,-3.1579,-3.1502,-3.0732,-3.0074,-3.0074,-2.8838,-2.779,-2.7773,-2.7182,-2.6691,-2.6691,-2.6691,-2.6624,-2.6435,-2.6295,-2.6308,-2.6562,-2.629,-2.623,-2.6611,-2.6525,-2.6415,-2.6356,-2.5672,-2.5266,-2.5266,-2.4656,-2.4302,-2.4302,-2.4302,-2.4276,-2.4187,-2.4082,-2.394,-2.3797,-2.3674,-2.3595,-3.0664,0.0,0.0,0.0,0.0,0.0,-3.0898,-3.0898,-3.0898,-3.0877,-3.0835,-3.0808,-3.0792,-3.0796,-3.08,-3.0779,-3.0734,-3.0719,-3.077,-3.08,-3.0808,-3.0796,-3.0799,-3.0801,-3.0801,0.0,0.0,0.0,-3.0794,-3.0419,-2.9543,-2.8899,-2.856,-2.8554,-2.8798,-2.9217,-2.986,-2.9909,-2.9937,-2.9961,-2.996,-2.9956,-2.9925,-2.9864,-3.0136,-3.0665,-3.0559,-3.0455,-3.04,-3.0396,-3.0367,-3.0304,-3.0286,-3.0178,-3.0022,-2.9836,-2.9681,-2.9521,-2.9363,-2.9267,-2.9189,-2.9112,-2.9044,-2.9005,-2.9005,-2.9005,-2.8982,-2.8893,-2.8919,-2.9163,-3.0003,-3.1243,-3.2214,-3.2072,-3.1874,-3.1589,-3.1038,-3.0117,-2.9354,-2.9297,-2.8501,-2.7621,-2.7097,-2.6843,-2.6691,-2.6691,-2.6691,-2.6657,-2.6555,-2.6435,-2.6291,-2.618,-2.5937,-2.5731,-2.5559,-2.5453,-2.5305,-2.505,-2.4843,-2.4678,-2.4594,-2.441,-2.4302,-2.4302,-2.4302,-2.4297,-2.4276,-2.4187,-2.4082,-2.394,-2.3818,-2.3696,-3.0664,-3.0898,-3.0898,-3.0898,0.0,0.0,-3.0351,-3.0351,-3.0351,-3.0351,-3.0623,-3.0836,-3.081,-3.0801,-3.0791,-3.0801,-3.0767,-3.0769,-3.0794,-3.0796,-3.0804,-3.0808,-3.0808,-3.0808,0.0,-3.0804,-3.0799,-3.0794,-3.0808,-3.0255,-2.9016,-2.8137,-2.7662,-2.7654,-2.8001,-2.8446,-2.8954,-2.9027,-2.9058,-2.9062,-2.9062,-2.906,-2.907,-2.9356,-2.9732,-3.0178,-3.044,-3.0491,-3.0392,-3.0396,-3.0373,-3.0342,-3.0305,-3.024,-3.0113,-2.9945,-2.9761,-2.9579,-2.9434,-2.932,-2.9229,-2.9156,-2.9108,-2.904,-2.9017,-2.9005,-2.8994,-2.8952,-2.9028,-2.9303,-3.0157,-3.0928,-3.1437,-3.127,-3.1081,-3.0819,-3.03,-2.9437,-2.8732,-2.8608,-2.791,-2.7199,-2.6776,-2.6691,-2.6691,-2.6691,-2.6691,-2.6691,-2.6657,-2.6555,-2.64,-2.6189,-2.5957,-2.5682,-2.5323,-2.5146,-2.4906,-2.4564,-2.4518,-2.4436,-2.4302,-2.4302,-2.4302,-2.4302,-2.4302,-2.4302,-2.4302,-2.4229,-2.4124,-2.4003,-2.3903,-2.3818,-3.0723,-3.0898,-3.0898,-3.0898,-3.0234,0.0,-2.9609,-2.9531,-2.9453,-2.9453,-3.0078,-3.0584,-3.0524,-3.0599,-3.0673,-3.0668,-3.0744,-3.0813,-3.0795,-3.08,-3.0806,-3.0806,-3.0806,-3.0804,-3.0804,-3.081,-3.0796,-3.0806,-3.0703,-2.9969,-2.842,-2.7414,-2.688,-2.6883,-2.7554,-2.7965,-2.8047,-2.8126,-2.8159,-2.8164,-2.8164,-2.8163,-2.8173,-2.8981,-2.9388,-2.9467,-3.0257,-3.0525,-3.0403,-3.0402,-3.0404,-3.0379,-3.0342,-3.0267,-3.0178,-3.0042,-2.9839,-2.9598,-2.9531,-2.9411,-2.9291,-2.9229,-2.9145,-2.9096,-2.9028,-2.9005,-2.9005,-2.8994,-2.9344,-2.9863,-3.0363,-3.0377,-3.0221,-3.0066,-2.9923,-2.9742,-2.9471,-2.8835,-2.8219,-2.7964,-2.7267,-2.6725,-2.6691,-2.6691,-2.6691,-2.6691,-2.6691,-2.6691,-2.6691,-2.6657,-2.6555,-2.6452,-2.6207,-2.5937,-2.5661,-2.5343,-2.5013,-2.469,-2.4564,-2.4477,-2.4338,-2.4302,-2.4302,-2.4302,-2.4302,-2.4302,-2.4302,-2.425,-2.4145,-2.4024,-2.4024,-2.3961,-3.1035,-3.0898,-3.0898,-3.0898,-3.0234,0.0,-2.9609,-2.9062,-2.8555,-2.8555,-2.8691,-2.8808,-2.8789,-2.9354,-2.9821,-2.9821,-3.0425,-3.0869,-3.0815,-3.0794,-3.0795,-3.0795,-3.0791,0.0,-3.0796,-3.0795,-3.0796,-3.0806,-3.0107,-2.9512,-2.9174,-2.7666,-2.6828,-2.6819,-2.6362,-2.6431,-2.7155,-2.7211,-2.7242,-2.7246,-2.7246,-2.7246,-2.7282,-2.8087,-2.8838,-2.9513,-3.0265,-3.0544,-3.0476,-3.0419,-3.0404,-3.0404,-3.0398,-3.0318,-3.0168,-3.0049,-2.9851,-2.9653,-2.9551,-2.9411,-2.9291,-2.9229,-2.9145,-2.9096,-2.9028,-2.9005,-2.8994,-2.8929,-2.9399,-2.993,-2.9899,-3.024,-3.0552,-3.0379,-3.0131,-2.9766,-2.9011,-2.8555,-2.8098,-2.7413,-2.706,-2.6842,-2.6725,-2.6691,-2.6691,-2.6691,-2.6691,-2.6691,-2.6691,-2.6674,-2.664,-2.6572,-2.6418,-2.6208,-2.5937,-2.5701,-2.5419,-2.5029,-2.4846,-2.4661,-2.4477,-2.4359,-2.4302,-2.4302,-2.4302,-2.4302,-2.4302,-2.4297,-2.4234,-2.4145,-2.4145,-2.4103,-3.1777,-3.1543,-3.1445,-3.1016,-3.0234,0.0,0.0,-2.8613,-2.8184,-2.7734,-2.8008,-2.8301,-2.8301,-2.8652,-2.8945,-2.8945,-2.9316,-2.9744,-3.0152,-3.0578,-3.0849,-3.0849,-3.0825,0.0,-3.0791,-3.0794,-3.0786,-3.0745,-2.9904,-2.9407,-2.9396,-2.8159,-2.7255,-2.6861,-2.6451,-2.6262,-2.63,-2.6336,-2.6345,-2.6348,-2.6348,-2.6347,-2.6385,-2.7215,-2.8068,-2.8885,-2.9677,-3.0189,-3.0491,-3.0442,-3.0402,-3.0404,-3.0404,-3.0336,-3.0227,-3.0104,-2.9945,-2.9771,-2.9617,-2.9461,-2.9328,-2.9232,-2.9167,-2.9123,-2.904,-2.9005,-2.8994,-2.8952,-2.9186,-2.9436,-2.9325,-2.9481,-2.9616,-2.944,-2.921,-2.885,-2.8283,-2.7977,-2.7697,-2.7203,-2.7055,-2.6957,-2.6825,-2.6742,-2.6691,-2.6691,-2.6691,-2.6691,-2.6691,-2.6691,-2.6691,-2.6657,-2.6572,-2.6418,-2.6225,-2.5975,-2.5717,-2.5378,-2.5088,-2.4866,-2.4661,-2.4482,-2.438,-2.4302,-2.4302,-2.4302,-2.4302,-2.4302,-2.4281,-2.4234,-2.4234,-2.4208,-3.2207,-3.1953,-3.1777,-3.1074,-3.0234,-2.9414,0.0,0.0,0.0,-2.7148,-2.7422,-2.7793,-2.7793,-2.7949,0.0,-2.8047,0.0,0.0,0.0,-2.996,0.0,-3.0857,-3.0854,0.0,-3.0805,-3.0809,-3.0774,-3.0704,-3.0046,-2.9656,-2.9656,-2.8826,-2.799,-2.7182,-2.6994,-2.6504,-2.5701,-2.5696,-2.5702,-2.5703,-2.5703,-2.5703,-2.5722,-2.6595,-2.7355,-2.8015,-2.8809,-2.9482,-3.0004,-2.9943,-3.0009,-3.0173,-3.0327,-3.0349,-3.0286,-3.0152,-3.003,-2.9868,-2.9673,-2.9511,-2.9382,-2.9243,-2.9178,-2.9134,-2.904,-2.9005,-2.9005,-2.9005,-2.8952,-2.8917,-2.8917,-2.8798,-2.8661,-2.867,-2.8353,-2.8018,-2.7914,-2.7648,-2.7374,-2.7182,-2.7151,-2.707,-2.6926,-2.6809,-2.6742,-2.6691,-2.6691,-2.6691,-2.6691,-2.6691,-2.6691,-2.6691,-2.6657,-2.6572,-2.6452,-2.6225,-2.5956,-2.5698,-2.5359,-2.5068,-2.4882,-2.4641,-2.4436,-2.4302,-2.4302,-2.4302,-2.4302,-2.4302,-2.4302,-2.4302,-2.4302,-2.4276,-3.1484,-3.1055,-3.1016,-3.0918,-3.0234,-2.957,-2.9473,0.0,-2.7129,-2.7012,0.0,-2.5996,-2.5996,0.0,0.0,0.0,0.0,0.0,-2.8437,-2.8535,-2.918,-3.0723,-3.0897,0.0,0.0,-3.0791,-3.0767,-3.0703,-3.061,-3.0554,-3.0554,-2.9721,-2.888,-2.809,-2.7307,-2.6502,-2.5706,-2.5699,-2.5703,-2.5703,-2.5703,-2.5703,-2.5723,-2.6596,-2.7052,-2.7188,-2.7912,-2.8263,-2.8274,-2.8198,-2.8604,-2.9319,-3.0096,-3.0367,-3.0286,-3.014,-3.0026,-2.9874,-2.9664,-2.9511,-2.9382,-2.9243,-2.9112,-2.9028,-2.9005,-2.9005,-2.9005,-2.9005,-2.8994,-2.8994,-2.8994,-2.8929,-2.8986,-2.952,-2.8936,-2.837,-2.8762,-2.818,-2.7544,-2.7392,-2.7279,-2.7135,-2.6925,-2.6893,-2.6842,-2.6725,-2.6691,-2.6691,-2.6691,-2.6691,-2.6691,-2.6691,-2.6691,-2.6657,-2.6589,-2.6435,-2.6226,-2.5974,-2.5586,-2.5282,-2.5068,-2.4706,-2.4436,-2.4302,-2.4302,-2.4302,-2.4302,-2.4302,-2.4302,-2.4302,-2.4302,-2.4297,-3.1973,-3.1641,-3.1523,-3.1035,-3.0625,-3.0215,-2.9726,-2.8633,-2.7617,-2.7109,0.0,0.0,0.0,0.0,0.0,0.0,-2.6543,0.0,0.0,0.0,-2.8769,0.0,0.0,0.0,0.0,0.0,0.0,0.0,-3.0714,-3.07,-3.07,-3.0353,-2.9785,-2.8979,-2.8104,-2.7264,-2.6458,-2.5955,-2.5703,-2.5703,-2.5703,-2.5703,-2.5703,-2.6071,-2.651,-2.7017,-2.7289,-2.7624,-2.7992,-2.7933,-2.8375,-2.9146,-2.9506,-2.9911,-3.0292,-3.0188,-3.0094,-2.9991,-2.979,-2.9626,-2.9481,-2.9265,-2.9152,-2.9051,-2.9017,-2.9005,-2.9005,-2.9005,-2.9005,-2.9005,-2.9005,-2.93,-2.9649,-2.9872,-2.9492,-2.9134,-2.9208,-2.8426,-2.7674,-2.7526,-2.7421,-2.7263,-2.7104,-2.6975,-2.6842,-2.6725,-2.6691,-2.6691,-2.6691,-2.6691,-2.6691,-2.6691,-2.6691,-2.6674,-2.6657,-2.6572,-2.6434,-2.6189,-2.5698,-2.5224,-2.4831,-2.4666,-2.4482,-2.4302,-2.4302,-2.4302,-2.4302,-2.4302,-2.4302,-2.4302,-2.4302,-2.4302,-3.207,0.0,-3.1699,-3.1055,-3.0898,-3.0723,-3.0098,-2.9277,-2.8476,-2.7832,0.0,0.0,0.0,0.0,-2.6133,-2.6367,0.0,-2.6639,0.0,-2.7864,0.0,0.0,0.0,0.0,0.0,0.0,0.0,0.0,0.0,-3.073,-3.073,-3.0739,-3.0363,-2.9541,-2.8673,-2.7823,-2.7009,-2.6132,-2.5703,-2.5703,-2.5703,-2.5703,-2.5703,-2.5702,-2.6045,-2.6649,-2.6563,-2.6844,-2.7315,-2.7232,-2.7826,-2.878,-2.878,-2.9417,-3.0329,-3.0254,-3.0166,-3.0068,-2.9874,-2.9673,-2.9481,-2.9265,-2.9145,-2.9096,-2.9028,-2.9005,-2.9005,-2.9005,-2.9005,-2.9005,-2.9005,-2.9404,-2.9887,-3.0264,-2.9888,-2.9574,-3.005,-2.918,-2.8279,-2.8346,-2.8043,-2.7717,-2.7556,-2.7192,-2.6892,-2.6758,-2.6725,-2.6691,-2.6691,-2.6691,-2.6691,-2.6691,-2.6691,-2.6691,-2.6691,-2.6657,-2.6503,-2.6207,-2.568,-2.5146,-2.463,-2.4569,-2.4487,-2.4302,-2.4302,-2.4302,-2.4302,-2.4302,-2.4302,-2.4302,-2.4302,-2.4302,0.0,0.0,0.0,-3.0918,0.0,0.0,0.0,0.0,-2.9551,-2.9512,-2.8144,-2.7226,-2.8066,-2.7539,-2.7226,-2.8085,-2.822,0.0,0.0,0.0,0.0,0.0,0.0,0.0,0.0,0.0,0.0,0.0,0.0,0.0,-3.0791,-3.0791,-3.0427,-2.9617,-2.8743,-2.7887,-2.7011,-2.6133,-2.5703,-2.5703,-2.5703,-2.5703,-2.5703,-2.5702,-2.5715,-2.5736,-2.5673,-2.5623,-2.5569,-2.5513,-2.6458,-2.7934,-2.7934,-2.8948,-3.0392,-3.0311,-3.02,-3.006,-2.9878,-2.9589,-2.9312,-2.9214,-2.9145,-2.9096,-2.9028,-2.9005,-2.9005,-2.9005,-2.9005,-2.9005,-2.9005,-2.9023,-2.9404,-3.0893,-3.0014,-2.9435,-3.1642,-3.071,-2.959,-3.0115,-2.9429,-2.8673,-2.8417,-2.7601,-2.6958,-2.6909,-2.6792,-2.6691,-2.6691,-2.6691,-2.6691,-2.6691,-2.6691,-2.6691,-2.6691,-2.6691,-2.647,-2.5952,-2.5527,-2.5084,-2.463,-2.4544,-2.4436,-2.4302,-2.4302,-2.4302,-2.4302,-2.4302,-2.4302,-2.4302,-2.4302,-2.4302,0.0,0.0,-3.0898,-3.0898,0.0,0.0,0.0,0.0,0.0,0.0,0.0,-2.7949,-2.8242,-2.8066,-2.7967,-2.8256,-2.8268,-2.8236,0.0,-2.866,0.0,0.0,-3.0638,-3.0828,0.0,0.0,0.0,0.0,-3.0873,0.0,0.0,-3.0871,-3.0737,-3.0465,-2.9608,-2.875,-2.7871,-2.6992,-2.6269,-2.5703,-2.5703,-2.5703,-2.5703,-2.57,-2.5691,-2.5697,-2.5576,-2.5525,-2.5491,-2.5419,-2.6386,-2.7895,-2.7895,-2.8929,-3.0398,-3.0323,-3.0235,-3.0126,-2.988,-2.9673,-2.9463,-2.933,-2.9225,-2.9145,-2.9096,-2.904,-2.9005,-2.9005,-2.9005,-2.9005,-2.9005,-2.939,-3.0051,-3.1121,-3.0893,-3.0799,-3.2051,-3.1329,-3.0438,-3.0422,-2.9978,-2.9537,-2.9361,-2.892,-2.822,-2.7128,-2.6925,-2.6875,-2.6842,-2.6842,-2.6792,-2.6708,-2.6691,-2.6691,-2.6691,-2.6623,-2.6416,-2.599,-2.5675,-2.5314,-2.4886,-2.4666,-2.4523,-2.4421,-2.4359,-2.4302,-2.4302,-2.4302,-2.4302,-2.4302,-2.4302,-2.4302,-3.0898,-3.0898,0.0,-3.0898,-3.0898,0.0,-3.0898,0.0,-3.0059,0.0,0.0,0.0,-2.9179,-2.8964,-2.8863,-2.9145,-2.9149,-2.9121,0.0,-2.9512,0.0,-3.0633,-3.073,-3.0767,-3.08,-3.0809,-3.0816,-3.0858,-3.0859,0.0,0.0,0.0,-3.0898,-3.0898,-3.0058,-2.918,-2.8301,-2.7441,-2.6562,-2.5703,-2.5703,-2.5703,-2.5703,-2.5699,-2.5686,-2.5668,-2.5542,-2.5486,-2.5453,-2.5425,-2.6381,-2.7895,-2.7895,-2.8929,-3.0379,-3.0348,-3.0254,-3.0126,-2.988,-2.9709,-2.9578,-2.9373,-2.9249,-2.9178,-2.9112,-2.9044,-2.9005,-2.9005,-2.9005,-2.9005,-2.9005,-2.9592,-3.0393,-3.1213,-3.1378,-3.162,-3.266,-3.2101,-3.1408,-3.1428,-3.0898,-3.0388,-3.0209,-2.9782,-2.9076,-2.8014,-2.7588,-2.7367,-2.7317,-2.7095,-2.6909,-2.6825,-2.6792,-2.6742,-2.6691,-2.6555,-2.6347,-2.6099,-2.577,-2.5432,-2.5064,-2.4751,-2.4584,-2.4498,-2.438,-2.4302,-2.4302,-2.4302,-2.4302,-2.4302,-2.4302,-2.4302]},{"header":{"parameterUnit":"m.s-1","parameterCategory":1,"la1":30.6,"la2":29.2853,"lo1":-89.7004,"lo2":-87.6739,"dy":0.0162,"dx":0.0183,"nx":112,"ny":82,"refTime":"2024-07-05T00:00:00:Z","depth":0,"parameterNumber":3,"parameterNumberName":"V-component_of_WINDS"},"data":[0.0,0.0,0.0,0.0,0.0,0.0,0.0,0.0,0.0,0.0,0.0,0.0,0.0,0.0,0.0,0.0,0.0,0.0,0.0,0.0,0.0,0.0,0.0,0.0,0.0,0.0,0.0,0.0,0.0,0.0,0.0,0.0,0.0,0.0,0.0,0.0,0.0,0.0,0.0,0.0,0.0,0.0,0.0,0.0,0.0,0.0,0.0,0.0,0.0,0.0,0.0,0.0,0.0,0.0,0.0,0.0,0.0,0.0,0.0,0.0,0.0,0.0,0.0,0.0,0.0,0.0,0.0,0.0,0.0,0.0,0.0,0.0,0.0,0.0,0.0,0.0,0.0,0.0,0.0,0.0,0.0,0.0,0.0,0.0,0.0,0.0,0.0,0.0,0.0,0.0,-1.613,-1.7085,-1.9131,-2.0572,-2.0913,-2.0835,-2.0309,-1.9196,0.0,0.0,0.0,0.0,0.0,0.0,0.0,0.0,0.0,0.0,0.0,0.0,0.0,0.0,0.0,0.0,0.0,0.0,0.0,0.0,0.0,0.0,0.0,0.0,0.0,0.0,0.0,0.0,0.0,0.0,0.0,0.0,0.0,0.0,0.0,0.0,0.0,0.0,0.0,0.0,0.0,0.0,0.0,0.0,0.0,0.0,0.0,0.0,0.0,0.0,0.0,0.0,0.0,0.0,0.0,0.0,0.0,0.0,0.0,0.0,0.0,0.0,0.0,0.0,0.0,0.0,0.0,0.0,0.0,0.0,0.0,0.0,0.0,0.0,0.0,0.0,0.0,0.0,0.0,0.0,0.0,0.0,0.0,0.0,0.0,0.0,0.0,0.0,0.0,0.0,0.0,0.0,0.0,0.0,0.0,0.0,0.0,0.0,0.0,0.0,0.0,0.0,0.0,0.0,-1.5879,-1.7813,-1.9558,-2.0814,-2.1448,-2.1051,-2.0484,-1.9735,0.0,0.0,0.0,0.0,0.0,0.0,0.0,0.0,0.0,0.0,0.0,0.0,0.0,0.0,0.0,0.0,0.0,0.0,0.0,0.0,0.0,0.0,0.0,0.0,0.0,0.0,0.0,0.0,0.0,0.0,0.0,0.0,0.0,0.0,0.0,0.0,0.0,0.0,0.0,0.0,0.0,0.0,0.0,0.0,0.0,0.0,0.0,0.0,0.0,0.0,0.0,0.0,0.0,0.0,0.0,0.0,0.0,0.0,0.0,0.0,0.0,0.0,0.0,0.0,0.0,0.0,0.0,0.0,0.0,0.0,0.0,0.0,0.0,0.0,0.0,0.0,0.0,0.0,0.0,0.0,0.0,0.0,0.0,0.0,0.0,0.0,0.0,0.0,0.0,0.0,0.0,0.0,0.0,0.0,0.0,0.0,0.0,0.0,0.0,0.0,0.0,0.0,0.0,-1.6106,-1.7174,-1.858,-1.9946,-2.0905,-2.1294,-2.1078,-2.048,-1.9421,-1.8643,0.0,0.0,0.0,0.0,0.0,0.0,0.0,0.0,0.0,0.0,0.0,0.0,0.0,0.0,0.0,0.0,0.0,0.0,0.0,0.0,0.0,0.0,0.0,0.0,0.0,0.0,0.0,0.0,0.0,0.0,0.0,0.0,0.0,0.0,0.0,0.0,0.0,0.0,0.0,0.0,0.0,0.0,0.0,0.0,0.0,0.0,0.0,0.0,0.0,0.0,0.0,0.0,0.0,0.0,0.0,0.0,0.0,0.0,0.0,0.0,0.0,0.0,0.0,0.0,0.0,0.0,0.0,0.0,0.0,0.0,0.0,0.0,0.0,0.0,0.0,0.0,0.0,0.0,0.0,0.0,0.0,0.0,0.0,0.0,0.0,0.0,0.0,0.0,0.0,0.0,0.0,0.0,0.0,0.0,0.0,0.0,0.0,0.0,0.0,0.0,0.0,0.0,-1.7072,-1.837,-1.9076,-2.0207,-2.095,-2.1146,-2.086,-2.018,-1.9071,-1.8392,0.0,0.0,0.0,0.0,0.0,0.0,0.0,0.0,0.0,0.0,0.0,0.0,0.0,0.0,0.0,0.0,0.0,0.0,0.0,0.0,0.0,0.0,0.0,0.0,0.0,0.0,0.0,0.0,0.0,0.0,0.0,0.0,0.0,0.0,0.0,0.0,0.0,0.0,0.0,0.0,0.0,0.0,0.0,0.0,0.0,0.0,0.0,0.0,0.0,0.0,0.0,0.0,0.0,0.0,0.0,0.0,0.0,0.0,0.0,0.0,0.0,0.0,0.0,0.0,0.0,0.0,0.0,0.0,0.0,0.0,0.0,0.0,0.0,0.0,0.0,0.0,0.0,0.0,0.0,0.0,0.0,0.0,0.0,0.0,0.0,0.0,0.0,0.0,0.0,0.0,0.0,0.0,0.0,0.0,0.0,0.0,0.0,0.0,0.0,0.0,0.0,0.0,-1.7138,-1.8607,-1.8972,-2.0087,-2.0934,-2.1248,-2.0306,-1.9493,-1.9045,-1.8028,0.0,0.0,0.0,0.0,0.0,0.0,0.0,0.0,0.0,0.0,0.0,0.0,0.0,0.0,0.0,0.0,0.0,0.0,0.0,0.0,0.0,0.0,0.0,0.0,0.0,0.0,0.0,0.0,0.0,0.0,0.0,0.0,0.0,0.0,0.0,0.0,0.0,0.0,0.0,0.0,0.0,0.0,0.0,0.0,0.0,0.0,0.0,0.0,0.0,0.0,0.0,0.0,0.0,0.0,0.0,0.0,0.0,0.0,0.0,0.0,0.0,0.0,0.0,0.0,0.0,0.0,0.0,0.0,0.0,0.0,0.0,0.0,0.0,0.0,0.0,0.0,0.0,0.0,0.0,0.0,0.0,0.0,0.0,0.0,0.0,0.0,0.0,0.0,0.0,0.0,0.0,0.0,0.0,0.0,0.0,0.0,0.0,0.0,0.0,0.0,0.0,0.0,-1.7028,-1.8445,-1.8784,-1.9884,-2.0597,-2.0605,-2.0083,-1.9358,-1.8544,0.0,0.0,0.0,0.0,0.0,0.0,0.0,0.0,0.0,0.0,0.0,0.0,0.0,0.0,0.0,0.0,0.0,0.0,0.0,0.0,0.0,0.0,0.0,0.0,0.0,0.0,0.0,0.0,0.0,0.0,0.0,0.0,0.0,0.0,0.0,0.0,0.0,0.0,0.0,0.0,0.0,0.0,0.0,0.0,0.0,0.0,0.0,0.0,0.0,0.0,0.0,0.0,0.0,0.0,0.0,0.0,0.0,0.0,0.0,0.0,0.0,0.0,0.0,0.0,0.0,0.0,0.0,0.0,0.0,0.0,0.0,0.0,0.0,0.0,0.0,0.0,0.0,0.0,0.0,0.0,0.0,0.0,0.0,0.0,0.0,0.0,0.0,0.0,0.0,0.0,0.0,0.0,0.0,0.0,0.0,0.0,0.0,0.0,0.0,0.0,0.0,0.0,-1.5449,-1.7022,-1.8346,-1.8918,-1.9852,-2.0374,-2.0271,-1.9668,-1.8982,-1.8254,0.0,0.0,0.0,0.0,0.0,0.0,0.0,0.0,0.0,0.0,0.0,0.0,0.0,0.0,0.0,0.0,0.0,0.0,0.0,0.0,0.0,0.0,0.0,0.0,0.0,0.0,0.0,0.0,0.0,0.0,0.0,0.0,0.0,0.0,0.0,0.0,0.0,0.0,0.0,0.0,0.0,0.0,0.0,0.0,0.0,0.0,0.0,0.0,0.0,0.0,0.0,0.0,0.0,0.0,0.0,0.0,0.0,0.0,0.0,0.0,0.0,0.0,0.0,0.0,0.0,0.0,0.0,0.0,0.0,0.0,0.0,0.0,0.0,0.0,0.0,0.0,0.0,0.0,0.0,0.0,0.0,0.0,0.0,0.0,0.0,0.0,0.0,0.0,0.0,0.0,0.0,0.0,0.0,0.0,0.0,0.0,0.0,0.0,0.0,0.0,0.0,0.0,-1.5974,-1.7164,-1.8338,-1.9456,-1.9946,-2.0234,-2.0385,-1.9046,-1.8204,0.0,0.0,0.0,0.0,0.0,0.0,0.0,0.0,0.0,0.0,0.0,0.0,0.0,0.0,0.0,0.0,0.0,0.0,0.0,0.0,0.0,0.0,0.0,0.0,0.0,0.0,0.0,0.0,0.0,0.0,0.0,0.0,0.0,0.0,0.0,0.0,0.0,0.0,0.0,0.0,0.0,0.0,0.0,0.0,0.0,0.0,0.0,0.0,0.0,0.0,0.0,0.0,0.0,0.0,0.0,0.0,0.0,0.0,0.0,0.0,0.0,0.0,0.0,0.0,0.0,0.0,0.0,0.0,0.0,0.0,0.0,0.0,0.0,0.0,0.0,0.0,0.0,0.0,0.0,0.0,0.0,0.0,0.0,0.0,0.0,0.0,0.0,0.0,0.0,0.0,0.0,0.0,0.0,0.0,0.0,0.0,0.0,0.0,0.0,0.0,0.0,0.0,0.0,-1.6277,-1.7312,-1.8324,-1.9209,-1.9589,-1.9826,-1.9971,-1.8895,-1.8204,-1.8204,0.0,0.0,0.0,0.0,0.0,0.0,0.0,0.0,0.0,0.0,0.0,0.0,0.0,0.0,0.0,0.0,0.0,0.0,0.0,0.0,0.0,0.0,0.0,0.0,0.0,0.0,0.0,0.0,0.0,0.0,0.0,0.0,0.0,0.0,0.0,0.0,0.0,0.0,0.0,0.0,0.0,0.0,0.0,0.0,0.0,0.0,0.0,0.0,0.0,0.0,0.0,0.0,0.0,0.0,0.0,0.0,0.0,0.0,0.0,0.0,0.0,0.0,0.0,0.0,0.0,0.0,0.0,0.0,0.0,0.0,0.0,0.0,0.0,0.0,0.0,0.0,0.0,0.0,0.0,0.0,0.0,0.0,0.0,0.0,0.0,0.0,0.0,0.0,0.0,0.0,0.0,0.0,0.0,0.0,0.0,0.0,0.0,0.0,0.0,0.0,0.0,0.0,-1.6692,-1.7427,-1.822,-1.9244,-1.9552,-1.9708,-1.9798,-1.902,-1.8442,-1.8216,0.0,0.0,0.0,0.0,0.0,0.0,0.0,0.0,0.0,0.0,0.0,0.0,0.0,0.0,0.0,0.0,0.0,0.0,0.0,0.0,0.0,0.0,0.0,0.0,0.0,0.0,0.0,0.0,0.0,0.0,0.0,0.0,0.0,0.0,0.0,0.0,0.0,0.0,0.0,0.0,0.0,0.0,0.0,0.0,0.0,0.0,0.0,0.0,0.0,0.0,0.0,0.0,0.0,0.0,0.0,0.0,0.0,0.0,0.0,0.0,0.0,0.0,0.0,0.0,0.0,0.0,0.0,0.0,0.0,0.0,0.0,0.0,0.0,0.0,0.0,0.0,0.0,0.0,0.0,0.0,0.0,0.0,0.0,0.0,0.0,0.0,0.0,0.0,0.0,0.0,0.0,0.0,0.0,0.0,0.0,0.0,0.0,0.0,0.0,0.0,0.0,0.0,-1.7158,-1.7533,-1.8142,-1.9466,-1.9734,-1.9798,-1.9798,-1.9309,-1.877,-1.8242,0.0,0.0,0.0,0.0,0.0,0.0,0.0,0.0,0.0,0.0,0.0,0.0,0.0,0.0,0.0,0.0,0.0,0.0,0.0,0.0,0.0,0.0,0.0,0.0,0.0,0.0,0.0,0.0,0.0,0.0,0.0,0.0,0.0,0.0,0.0,0.0,0.0,0.0,0.0,0.0,0.0,0.0,0.0,0.0,0.0,0.0,0.0,0.0,0.0,0.0,0.0,0.0,0.0,0.0,0.0,0.0,0.0,0.0,0.0,0.0,-1.063,0.0,0.0,0.0,0.0,0.0,0.0,0.0,0.0,0.0,0.0,0.0,0.0,0.0,0.0,0.0,0.0,0.0,0.0,0.0,0.0,0.0,0.0,0.0,0.0,0.0,0.0,0.0,0.0,0.0,0.0,0.0,0.0,0.0,0.0,0.0,0.0,0.0,0.0,0.0,0.0,0.0,-1.7532,-1.7822,-1.8399,-1.9647,-1.9773,-1.9798,-1.9798,-1.9309,-1.877,-1.8242,-1.7114,0.0,0.0,0.0,0.0,0.0,0.0,0.0,0.0,0.0,0.0,0.0,0.0,0.0,0.0,0.0,0.0,0.0,0.0,0.0,0.0,0.0,0.0,0.0,0.0,0.0,0.0,0.0,0.0,0.0,0.0,0.0,0.0,0.0,0.0,0.0,0.0,0.0,0.0,0.0,0.0,0.0,0.0,0.0,0.0,0.0,0.0,0.0,0.0,0.0,0.0,0.0,0.0,0.0,0.0,0.0,0.0,0.0,0.0,0.0,0.0,-1.125,0.0,0.0,0.0,0.0,0.0,0.0,0.0,0.0,0.0,0.0,0.0,0.0,0.0,0.0,0.0,0.0,0.0,0.0,0.0,0.0,0.0,0.0,0.0,0.0,0.0,0.0,0.0,0.0,0.0,0.0,0.0,0.0,0.0,0.0,0.0,0.0,0.0,0.0,0.0,0.0,-1.7771,-1.8249,-1.8821,-1.971,-1.9798,-1.9798,-1.9798,-1.9547,-1.9146,-1.8607,-1.7802,0.0,0.0,0.0,0.0,0.0,0.0,0.0,0.0,0.0,0.0,0.0,0.0,0.0,0.0,0.0,0.0,0.0,0.0,0.0,0.0,0.0,0.0,0.0,0.0,0.0,0.0,0.0,0.0,0.0,0.0,0.0,0.0,0.0,0.0,0.0,0.0,0.0,0.0,0.0,0.0,0.0,0.0,0.0,0.0,0.0,0.0,0.0,0.0,0.0,0.0,0.0,0.0,0.0,-1.1542,-1.1542,-1.1577,-1.1964,-1.2247,-1.2369,-1.1787,-1.1836,-1.2416,-1.2603,0.0,0.0,0.0,0.0,0.0,0.0,0.0,0.0,0.0,0.0,0.0,0.0,0.0,0.0,0.0,0.0,0.0,0.0,0.0,0.0,0.0,0.0,0.0,0.0,-1.5465,-1.5423,0.0,0.0,0.0,0.0,0.0,0.0,0.0,0.0,0.0,0.0,0.0,0.0,-1.8099,-1.8658,-1.9208,-1.9748,-1.9798,-1.9798,-1.9798,-1.9798,-1.9572,-1.9033,-1.8569,-1.789,0.0,0.0,0.0,0.0,0.0,0.0,0.0,0.0,0.0,0.0,0.0,0.0,0.0,0.0,0.0,0.0,0.0,0.0,0.0,0.0,0.0,0.0,0.0,0.0,0.0,0.0,0.0,0.0,0.0,0.0,0.0,0.0,-0.3624,-0.4111,0.0,0.0,0.0,0.0,0.0,0.0,0.0,0.0,0.0,0.0,0.0,0.0,0.0,-1.132,-1.1785,-1.2004,-1.2151,-1.2184,-1.2184,-1.2184,-1.2184,-1.2592,-1.2817,-1.2825,-1.3068,0.0,-1.39,-1.3817,0.0,0.0,0.0,0.0,0.0,0.0,0.0,0.0,0.0,0.0,0.0,0.0,0.0,0.0,0.0,0.0,0.0,0.0,0.0,0.0,0.0,0.0,-1.6348,-1.6877,-1.7315,-1.7618,0.0,-1.6307,-1.5126,-1.5285,-1.5645,0.0,0.0,0.0,0.0,0.0,0.0,0.0,-1.8733,-1.8958,-1.9208,-1.9748,-1.9798,-1.9798,-1.9798,-1.9798,-1.9572,-1.9033,-1.8933,-1.8619,-1.8003,-1.7451,0.0,0.0,0.0,0.0,0.0,0.0,0.0,0.0,0.0,0.0,0.0,0.0,0.0,0.0,0.0,0.0,0.0,0.0,0.0,0.0,0.0,0.0,0.0,0.0,0.0,0.0,0.0,0.0,0.0,-0.2567,-0.3455,-0.4123,-0.4458,-0.4697,0.0,0.0,0.0,0.0,0.0,0.0,0.0,0.0,0.0,-1.0761,-1.1563,-1.2184,-1.2625,-1.2752,-1.2812,-1.2812,-1.2632,-1.2589,-1.2583,-1.2681,-1.2863,-1.3112,-1.3618,-1.4183,-1.4753,-1.4704,-1.4948,-1.5349,0.0,0.0,0.0,0.0,-1.5215,-1.5254,-1.5478,-1.54,0.0,-1.4932,0.0,0.0,0.0,0.0,0.0,0.0,0.0,0.0,0.0,0.0,-1.69,-1.7527,-1.7849,-1.8058,-1.8312,-1.76,-1.683,0.0,-1.6763,-1.689,-1.6955,0.0,0.0,0.0,0.0,-1.8456,-1.8945,-1.9259,-1.9547,-1.9773,-1.9798,-1.9798,-1.9798,-1.9798,-1.971,-1.9447,-1.9171,-1.8895,-1.8657,-1.8141,-1.7576,0.0,0.0,0.0,0.0,0.0,0.0,0.0,0.0,0.0,0.0,0.0,0.0,0.0,0.0,0.0,0.0,0.0,0.0,0.0,0.0,0.0,0.0,0.0,0.0,0.0,0.0,0.0,0.0,-0.2632,-0.3288,-0.4199,-0.4559,-0.4821,0.0,0.0,0.0,0.0,0.0,0.0,-0.7925,-0.9,-1.0225,-1.1633,-1.2311,-1.2851,-1.332,-1.3394,-1.3394,-1.332,-1.3086,-1.2978,-1.2898,-1.2859,-1.2981,-1.3317,-1.3895,-1.4514,-1.5108,-1.5306,-1.5658,-1.6067,-1.621,-1.6261,-1.6261,-1.6261,-1.6261,-1.631,-1.659,-1.6514,-1.6212,-1.5859,0.0,-1.4956,-1.4673,0.0,0.0,0.0,0.0,-1.607,-1.6869,-1.7159,-1.7416,-1.8121,-1.8415,-1.8625,-1.8955,-1.8788,-1.8427,0.0,-1.7763,-1.7693,-1.7701,0.0,0.0,0.0,0.0,-1.9058,-1.9183,-1.956,-1.9798,-1.9798,-1.9798,-1.9798,-1.9798,-1.9798,-1.9798,-1.9798,-1.9447,-1.9196,-1.9196,-1.8682,-1.8229,-1.7815,0.0,0.0,0.0,0.0,0.0,0.0,0.0,0.0,0.0,0.0,0.0,0.0,0.0,0.0,0.0,0.0,0.0,0.0,0.0,0.0,0.0,0.0,0.0,0.0,0.0,0.0,0.0,0.0,0.0,-0.4446,-0.4869,0.0,0.0,0.0,0.0,-0.6126,-0.6634,-0.7472,-0.867,-0.9594,-1.0617,-1.185,-1.2597,-1.3151,-1.358,-1.3901,-1.3901,-1.358,-1.3567,-1.3413,-1.3186,-1.335,-1.3454,-1.3512,-1.4001,-1.4433,-1.4885,-1.5627,-1.6157,-1.6477,-1.6632,-1.6668,-1.6668,-1.6668,-1.6668,-1.6668,-1.6697,-1.6687,-1.6668,-1.6638,-1.6145,-1.5435,-1.479,-1.4955,0.0,0.0,-1.6029,-1.6503,-1.7118,-1.7609,-1.8142,-1.8942,-1.9575,-2.0095,-2.0429,-2.0002,-1.9383,0.0,-1.8779,-1.8701,-1.8558,0.0,-1.8821,-1.8933,-1.8983,-1.9183,-1.9698,-1.9786,-1.9798,-1.9798,-1.9798,-1.9798,-1.9798,-1.9798,-1.9798,-1.9798,-1.9773,-1.9761,-1.9761,-1.9233,-1.8945,-1.892,-1.789,0.0,0.0,0.0,0.0,0.0,0.0,0.0,0.0,0.0,0.0,0.0,0.0,0.0,0.0,0.0,0.0,0.0,0.0,0.0,0.0,0.0,0.0,0.0,0.0,0.0,0.0,0.0,0.0,-0.4743,-0.5157,0.0,-0.5821,-0.5874,-0.605,-0.6531,-0.7022,-0.783,-0.9101,-1.0123,-1.1231,-1.2456,-1.333,-1.382,-1.3897,-1.4223,-1.4222,-1.3928,-1.3693,-1.3547,-1.344,-1.3366,-1.3391,-1.3528,-1.4093,-1.4584,-1.5067,-1.61,-1.663,-1.6779,-1.7052,-1.7148,-1.7148,-1.7148,-1.7148,-1.7197,-1.7461,-1.7525,-1.7477,-1.7236,-1.6874,-1.6476,-1.6317,-1.6505,-1.6776,-1.6935,-1.7119,-1.7387,-1.8029,-1.8333,-1.8638,-1.9469,-1.989,-2.0149,-2.0378,-2.0113,-1.9831,-1.9738,-1.9375,-1.9111,-1.9227,-1.9344,-1.9471,-1.9497,-1.9497,-1.9597,-1.9773,-1.9798,-1.9798,-1.9798,-1.9798,-1.9798,-1.9798,-1.9798,-1.9798,-1.9798,-1.9798,-1.9798,-1.9798,-1.9623,-1.9346,-1.9008,-1.8292,-1.7451,0.0,0.0,0.0,0.0,0.0,0.0,0.0,0.0,0.0,0.0,0.0,0.0,0.0,0.0,0.0,0.0,0.0,0.0,0.0,0.0,0.0,0.0,0.0,0.0,0.0,-0.3241,-0.4023,-0.5053,-0.5451,-0.5793,-0.6128,-0.6227,-0.6438,-0.6941,-0.736,-0.8098,-0.917,-1.0289,-1.1389,-1.2518,-1.3491,-1.4002,-1.4117,-1.4385,-1.4422,-1.4229,-1.3993,-1.3946,-1.4082,-1.3788,-1.3729,-1.3865,-1.4355,-1.4739,-1.5136,-1.6289,-1.6857,-1.695,-1.7437,-1.7598,-1.7598,-1.7598,-1.7598,-1.7637,-1.791,-1.8008,-1.7939,-1.7519,-1.7285,-1.7137,-1.7115,-1.7232,-1.7378,-1.7574,-1.7637,-1.7802,-1.8575,-1.8765,-1.8977,-1.976,-2.0129,-2.033,-2.04,-2.0274,-2.0194,-2.0235,-1.975,-1.9422,-1.963,-1.9734,-1.9798,-1.9798,-1.9798,-1.9798,-1.9798,-1.9798,-1.9798,-1.9798,-1.9798,-1.9798,-1.9798,-1.9798,-1.9798,-1.9798,-1.9798,-1.9798,-1.9798,-1.9798,-1.9635,-1.9271,-1.8732,-1.7904,-1.681,0.0,0.0,0.0,0.0,0.0,0.0,0.0,0.0,0.0,0.0,0.0,0.0,0.0,0.0,0.0,0.0,0.0,0.0,0.0,0.0,0.0,0.0,0.0,-0.3032,-0.3682,-0.446,-0.5414,-0.5829,-0.6162,-0.6471,-0.662,-0.6853,-0.7261,-0.7738,-0.8236,-0.8859,-0.9981,-1.1034,-1.2043,-1.3027,-1.3719,-1.4086,-1.4398,-1.4522,-1.4502,-1.4502,-1.4663,-1.4988,-1.4656,-1.4522,-1.4532,-1.4787,-1.4924,-1.5034,-1.6297,-1.6839,-1.6996,-1.771,-1.8008,-1.8008,-1.8008,-1.8008,-1.8008,-1.8008,-1.8008,-1.7939,-1.7539,-1.7435,-1.7357,-1.7117,-1.7042,-1.7105,-1.746,-1.7543,-1.7739,-1.868,-1.8924,-1.9105,-1.9901,-2.0399,-2.066,-2.0603,-2.0529,-2.0451,-2.0402,-1.9977,-1.9656,-1.9773,-1.9798,-1.9798,-1.9798,-1.9798,0.0,-1.9798,-1.9798,-1.9798,-1.9798,-1.9798,-1.9798,-1.9798,-1.9798,-1.9798,-1.9798,-1.9798,-1.9798,-1.9798,-1.9798,-1.9798,-1.9773,-1.9259,-1.8481,-1.7461,0.0,0.0,0.0,0.0,0.0,0.0,0.0,0.0,0.0,0.0,0.0,0.0,0.0,0.0,0.0,0.0,0.0,0.0,0.0,0.0,0.0,-0.1894,-0.2672,-0.3418,-0.4181,-0.5001,-0.5888,-0.6232,-0.6475,-0.6776,-0.6841,-0.7015,-0.7428,-0.7741,-0.8154,-0.8636,-0.9754,-1.0856,-1.186,-1.3135,-1.3904,-1.4174,-1.462,-1.4629,-1.4208,-1.4208,-1.4355,-1.4636,-1.4556,-1.4522,-1.4509,-1.507,-1.543,-1.5614,-1.6468,-1.7068,-1.7515,-1.785,-1.8008,-1.8008,-1.8008,-1.8008,-1.8008,-1.8008,-1.8008,-1.7988,-1.7871,-1.7842,-1.7846,-1.7919,-1.7946,-1.8012,-1.8342,-1.844,-1.857,-1.9055,-1.9185,-1.9314,-1.9835,-1.9995,-2.0068,-2.0143,-2.0153,-2.0101,-1.9992,-1.9859,-1.9759,-1.9798,-1.9798,-1.9798,-1.9798,-1.9798,0.0,-1.9798,-1.9798,-1.9798,-1.9798,-1.9798,-1.9798,-1.9798,-1.9798,-1.9798,-1.9798,-1.9798,-1.9798,-1.9798,-1.9798,-1.9623,-1.9221,-1.907,-1.8857,0.0,0.0,0.0,0.0,0.0,0.0,0.0,0.0,0.0,0.0,0.0,0.0,0.0,0.0,0.0,0.0,0.0,0.0,0.0,0.0,0.0,0.0,-0.2127,-0.2932,-0.3747,-0.4553,-0.5396,-0.6208,-0.6492,-0.6664,-0.6862,-0.694,-0.7098,-0.7316,-0.7591,-0.79,-0.8288,-0.9353,-1.044,-1.1451,-1.2928,-1.385,-1.4024,-1.4694,-1.473,-1.4269,-1.4269,-1.4422,-1.4703,-1.4576,-1.4522,0.0,-1.4984,-1.5304,-1.5602,-1.6349,-1.6959,0.0,0.0,0.0,0.0,0.0,-1.8008,-1.8008,-1.8008,-1.8008,-1.8008,-1.8008,-1.8008,-1.8008,-1.8144,-1.8168,-1.8236,-1.8573,-1.8674,-1.8774,-1.9274,-1.9417,-1.9464,-1.9652,-1.9785,-1.982,-1.9727,-1.9813,-1.987,-1.9808,-1.9798,0.0,-1.9798,-1.9798,-1.9798,-1.9798,-1.9798,-1.9798,-1.9798,-1.9798,-1.9798,-1.9798,-1.9798,-1.9798,-1.9798,-1.9798,0.0,0.0,0.0,-1.9911,-2.0189,-2.0388,0.0,0.0,0.0,0.0,0.0,0.0,0.0,0.0,-2.0205,-2.0753,0.0,0.0,0.0,0.0,0.0,0.0,0.0,0.0,0.0,0.0,0.0,0.0,0.0,0.0,0.0,0.0,-0.2243,-0.3062,-0.3954,-0.4753,-0.5544,-0.6398,-0.6617,-0.6766,-0.6893,-0.7021,-0.7095,-0.7095,-0.7367,-0.7591,-0.7856,0.0,0.0,0.0,0.0,-1.3491,-1.3742,-1.4552,-1.4763,-1.4469,-1.4469,-1.4629,-1.4948,-1.4643,-1.4522,-1.4502,-1.4661,-1.4898,-1.5262,-1.6002,-1.6627,-1.7135,-1.7584,-1.7852,-1.8008,-1.8008,-1.8008,-1.8008,-1.8008,0.0,0.0,-1.8008,-1.8008,-1.8008,-1.8008,-1.8008,-1.8076,-1.8381,-1.8482,-1.865,-1.9341,-1.9539,-1.9521,-1.9412,-1.9605,-1.9746,-1.9389,-1.9499,-1.9679,-1.9783,-1.9798,-1.9798,-1.9798,-1.9798,-1.9798,-1.9798,-1.9798,-1.9798,-1.9798,-1.9798,-1.9798,-1.9798,0.0,0.0,-1.9798,-1.9798,-1.9798,-1.9798,-1.9861,-2.0189,-2.0767,-2.1257,-2.1493,-2.1493,-2.1493,-2.1518,-2.1581,-2.1581,-2.1606,-2.1669,-2.1634,-2.1802,0.0,0.0,0.0,0.0,0.0,0.0,0.0,0.0,0.0,0.0,0.0,0.0,0.0,0.0,0.0,-0.1459,-0.1956,-0.2708,-0.377,-0.4546,-0.5353,-0.6302,-0.6599,-0.6807,-0.7031,-0.7082,-0.7095,-0.7095,-0.7367,-0.7507,-0.7595,-0.8493,-0.9464,-1.0405,-1.1706,-1.2729,-1.3541,-1.407,-1.4282,-1.4168,0.0,0.0,-1.4603,-1.4543,-1.4522,-1.4516,-1.4772,-1.5029,-1.5378,-1.5599,-1.628,-1.7244,-1.7754,-1.7974,-1.8008,-1.8008,-1.8008,-1.8008,-1.8008,-1.8008,-1.8008,-1.8008,-1.8008,-1.8008,-1.8008,-1.8008,0.0,-1.8269,-1.8414,-1.8583,-1.8875,-1.9142,-1.9324,-1.9179,-1.9309,-1.9424,-1.9465,-1.9459,-1.9531,-1.9746,-1.9798,-1.9798,-1.9798,-1.9798,-1.9798,-1.9798,-1.9798,-1.9798,-1.9798,-1.9798,-1.9798,-1.9798,-1.9798,-1.9798,-1.9798,-1.9798,-1.9798,-1.9798,-2.0264,-2.0779,-2.1333,-2.143,-2.1493,-2.1493,-2.1493,-2.1707,-2.2159,-2.2159,-2.2385,-2.2782,-2.2517,-2.2716,0.0,0.0,0.0,0.0,0.0,0.0,0.0,0.0,0.0,0.0,0.0,-0.0545,-0.0853,0.0,-0.1184,-0.1488,-0.1963,-0.2609,-0.3667,-0.4451,-0.5317,-0.6366,-0.6684,-0.6859,-0.7075,-0.7095,-0.7095,-0.7095,-0.7231,-0.737,-0.7507,-0.8282,-0.9091,-0.9939,-1.1374,-1.2423,-1.3097,-1.3811,-1.4153,-1.4088,-1.4088,-1.4162,-1.4302,-1.4302,-1.4302,-1.4302,-1.4437,-1.4768,-1.5316,-1.5913,-1.6616,-1.7341,-1.7699,-1.7896,-1.8008,-1.8008,-1.8008,-1.8008,-1.8008,-1.8008,-1.8008,-1.8008,-1.8008,-1.8008,-1.8008,-1.8008,-1.8042,-1.8236,-1.8347,-1.8472,-1.8841,-1.9108,-1.9206,-1.8848,-1.8984,-1.9132,-1.8934,-1.906,-1.9303,-1.963,-1.9759,-1.9798,-1.9798,-1.9798,-1.9798,-1.9798,-1.9798,-1.9798,-1.9798,-1.9798,-1.9798,-1.9798,-1.9798,-1.9798,-1.9798,-1.9798,-1.9924,-2.0239,-2.0792,-2.1358,-2.1882,-2.2171,-2.2309,-2.2309,-2.2309,-2.2418,-2.2694,-2.2694,-2.2832,-2.3095,-2.2921,-2.3306,0.0,0.0,0.0,0.0,0.0,0.0,0.0,0.0,-0.0066,-0.027,-0.0418,-0.0612,-0.0789,-0.1009,-0.1234,-0.1462,-0.1866,-0.2525,-0.3465,-0.4391,-0.5357,-0.6387,-0.6728,-0.6943,-0.7082,-0.7095,-0.7095,-0.7095,-0.7095,-0.7187,-0.7415,-0.8027,-0.8726,-0.9437,-1.095,-1.2036,-1.2625,-1.3554,-1.4015,-1.4088,-1.4088,-1.4088,-1.4088,-1.4088,-1.4088,-1.4088,-1.4124,-1.451,-1.5112,-1.617,-1.6848,-1.7261,-1.7559,-1.7794,-1.794,-1.7974,-1.8008,-1.8008,-1.8008,-1.8008,-1.8008,-1.8008,-1.8008,-1.8008,-1.8008,-1.8008,-1.8042,-1.8212,-1.8269,-1.8405,-1.8841,-1.9036,-1.9005,-1.8434,-1.8641,-1.8852,-1.8405,-1.8694,-1.9146,-1.9539,-1.9708,-1.9798,-1.9798,-1.9798,-1.9798,-1.9798,-1.9798,-1.9798,-1.9798,-1.9798,-1.9798,-1.9798,-1.9798,-1.9798,-1.9798,-1.9798,-2.0087,-2.0805,-2.127,-2.1782,-2.2447,-2.2869,-2.3108,-2.3108,-2.3108,-2.3108,-2.3108,-2.3108,-2.3108,-2.3108,-2.3108,-2.3672,-0.2127,-0.1568,-0.0932,-0.0378,-0.0147,-0.003,0.0,0.0,-0.0068,-0.0243,-0.0327,-0.0414,-0.0605,-0.0669,-0.0771,-0.1017,-0.1451,-0.2116,-0.3106,-0.4232,-0.5221,-0.6045,-0.6616,-0.6943,-0.7082,-0.7095,-0.7095,-0.7095,-0.7095,-0.7095,-0.7143,-0.7646,-0.8272,-0.8968,-0.9954,-1.1137,-1.2404,-1.2967,-1.3515,-1.4088,-1.4088,-1.4088,-1.4088,-1.4088,-1.4088,-1.413,-1.4279,-1.4538,-1.4874,-1.563,-1.6167,-1.6657,-1.7274,-1.7623,-1.775,-1.793,-1.8008,-1.8008,-1.8008,-1.8008,-1.8008,-1.8008,-1.8008,-1.8008,-1.8008,-1.8008,-1.8008,-1.8042,-1.8168,-1.8303,-1.8371,-1.8436,-1.8426,-1.804,-1.8219,-1.8453,-1.8324,-1.875,-1.9265,-1.9565,-1.9708,-1.9798,-1.9798,-1.9798,-1.9798,-1.9798,-1.9798,-1.9798,-1.9798,-1.9798,-1.9798,-1.9798,-1.9798,-1.9798,-1.9798,-1.9798,-2.0263,-2.133,-2.1455,-2.1958,-2.297,-2.307,-2.3108,-2.3108,-2.3108,-2.3108,-2.3108,-2.3108,-2.3108,-2.3108,-2.3108,-2.3844,-0.1429,-0.0995,-0.055,-0.0264,-0.0091,0.0,0.0,0.0,-0.007,-0.025,-0.0295,-0.038,-0.0579,-0.0644,-0.0747,-0.0955,-0.1282,-0.1883,-0.287,-0.3888,-0.4872,-0.5761,-0.6433,-0.6903,-0.7092,-0.7095,-0.7095,-0.7095,-0.7095,-0.7095,-0.7095,-0.7455,-0.794,-0.8456,-0.9506,-1.0593,-1.1757,-1.2668,-1.3355,-1.387,-1.4046,-1.4088,-1.4088,-1.4088,-1.4088,-1.413,-1.4321,-1.4532,-1.4757,-1.5153,-1.5739,-1.6341,-1.6679,-1.7132,-1.7632,-1.7906,-1.8008,-1.8008,-1.8008,-1.8008,-1.8008,-1.8008,-1.8008,-1.8008,-1.8008,-1.8008,-1.8008,-1.8008,-1.8076,-1.8144,-1.8269,-1.8197,-1.8034,-1.7677,-1.7798,-1.7968,-1.7845,-1.8425,-1.904,-1.9317,-1.9592,-1.9798,-1.9798,-1.9798,-1.9798,-1.9798,-1.9798,-1.9798,-1.9798,-1.9798,-1.9798,-1.9798,-1.9798,-1.9798,-1.9798,-1.9798,-2.015,-2.0981,-2.1333,-2.1845,-2.2594,-2.2932,-2.3108,-2.3108,-2.3108,-2.3108,-2.3108,-2.3108,-2.3108,-2.3108,-2.3108,-2.3851,-0.0757,-0.0517,-0.0325,-0.0179,-0.0062,0.0,0.0,0.0,-0.0035,-0.018,-0.0222,-0.0266,-0.0426,-0.0488,-0.059,-0.08,-0.1091,-0.1659,-0.2555,-0.3492,-0.4474,-0.5408,-0.6169,-0.6704,-0.701,-0.7051,-0.7095,-0.7095,-0.7095,-0.7095,-0.7095,-0.737,-0.7724,-0.8197,-0.9205,-1.0207,-1.1198,-1.2363,-1.3137,-1.361,-1.3955,-1.4088,-1.4088,-1.4088,-1.4088,-1.413,-1.4243,-1.4447,-1.4608,-1.4801,-1.5257,-1.5885,-1.612,-1.6579,-1.7245,-1.7701,-1.7906,-1.8008,-1.8008,-1.8008,-1.8008,-1.8008,-1.8008,-1.8008,-1.8008,-1.8008,-1.8008,-1.8008,-1.8008,-1.8042,-1.8178,-1.7952,-1.7604,-1.7345,-1.7374,-1.7442,-1.7434,-1.8111,-1.8813,-1.9081,-1.9474,-1.9734,-1.9734,-1.9773,-1.9798,-1.9798,-1.9798,-1.9798,-1.9798,-1.9798,-1.9798,-1.9798,-1.9798,-1.9798,-1.9798,-1.9798,-2.0049,-2.0654,-2.1069,-2.1581,-2.2284,-2.2669,-2.2945,-2.3108,-2.3108,-2.3108,-2.3108,-2.3108,-2.3108,-2.3108,-2.3108,-2.3775,-0.0224,-0.0201,-0.0178,-0.0031,0.0,0.0,0.0,0.0,0.0,0.0,0.0,0.0,0.0,0.0,-0.0126,-0.0379,-0.0786,-0.139,-0.2109,-0.3045,-0.3979,-0.4921,-0.568,-0.6305,-0.6748,-0.6966,-0.7095,-0.7095,-0.7095,-0.7095,-0.7095,-0.737,-0.7724,-0.8197,-0.8907,-0.9864,-1.0982,-1.1935,-1.2747,-1.3398,-1.387,-1.4088,-1.4088,-1.4088,-1.4088,-1.4088,-1.413,-1.4201,-1.4413,-1.4472,-1.4721,-1.5096,-1.57,-1.6098,-1.6446,-1.721,-1.771,-1.8008,-1.8008,-1.8008,-1.8008,-1.8008,-1.8008,-1.8008,-1.8008,-1.8008,-1.8008,-1.8008,-1.8008,-1.8008,-1.8008,-1.7514,-1.7022,-1.7012,-1.6907,-1.6885,-1.7134,-1.7925,-1.8694,-1.896,-1.933,-1.9617,-1.9617,-1.9708,-1.9798,-1.9798,-1.9798,-1.9798,-1.9798,-1.9798,-1.9798,-1.9798,-1.9798,-1.9798,-1.9798,-1.9798,-2.0049,-2.0654,-2.0717,-2.1207,-2.2272,-2.2334,-2.2556,-2.3095,-2.3108,-2.3108,-2.3108,-2.3108,-2.3108,-2.3108,-2.3108,-2.3621,0.0196,0.0175,0.0122,0.0123,0.016,0.0167,0.0034,0.0,0.0,0.0,0.0107,0.0182,0.0188,0.0196,0.0122,-0.0084,-0.0518,-0.1016,-0.1612,-0.2509,-0.3357,-0.3981,-0.501,-0.5816,-0.6305,-0.6789,-0.7095,-0.7095,-0.7095,-0.7095,-0.7095,-0.7187,-0.7411,-0.772,-0.842,-0.9205,-1.0077,-1.1327,-1.2277,-1.2918,-1.3743,-1.4088,-1.4088,-1.4088,-1.4088,-1.4088,-1.4088,-1.4124,-1.4181,-1.4131,-1.4304,-1.4647,-1.5022,-1.551,-1.6035,-1.6673,-1.7245,-1.771,-1.7906,-1.8008,-1.8008,-1.8008,-1.8008,-1.8008,-1.8008,-1.8008,-1.8008,-1.8008,-1.8008,-1.8008,-1.8008,-1.7406,-1.6792,-1.6792,-1.6568,-1.6428,-1.674,-1.7512,-1.8263,-1.8667,-1.9054,-1.9396,-1.9552,-1.963,-1.9708,-1.9798,-1.9798,-1.9798,-1.9798,-1.9798,-1.9798,-1.9798,-1.9798,-1.9798,-1.9798,-1.9798,-1.9886,-2.0075,-2.0478,-2.1018,-2.1732,-2.2121,-2.2543,-2.3095,-2.3108,-2.3108,-2.3108,-2.3108,-2.3108,-2.3108,-2.3108,-2.353,0.0626,0.0534,0.0464,0.0438,0.039,0.0337,0.0135,0.0067,0.0034,0.0103,0.0244,0.0389,0.0476,0.0496,0.0438,0.0207,-0.0256,-0.0745,-0.1208,-0.1973,-0.2732,-0.3401,-0.4206,-0.5055,-0.5772,-0.639,-0.6833,-0.7095,-0.7095,-0.7095,-0.7095,-0.7095,-0.7231,-0.7507,-0.7981,-0.8592,-0.9345,-1.0598,-1.1757,-1.2833,-1.361,-1.3997,-1.4088,-1.4088,-1.4088,-1.4088,-1.4088,-1.4088,-1.4075,-1.4006,-1.4007,-1.4116,-1.4523,-1.4935,-1.5436,-1.614,-1.6821,-1.7426,-1.7769,-1.794,-1.8008,-1.8008,-1.8008,-1.8008,-1.8008,-1.8008,-1.8008,-1.8008,-1.8008,-1.7978,-1.7822,-1.7266,-1.6658,-1.6533,-1.6238,-1.6114,-1.6428,-1.7095,-1.7799,-1.8251,-1.8682,-1.9081,-1.9356,-1.9512,-1.9656,-1.9773,-1.9798,-1.9798,-1.9798,-1.9798,-1.9798,-1.9798,-1.9798,-1.9798,-1.9798,-1.9798,-1.9798,-1.9798,-2.0377,-2.0943,-2.1496,-2.202,-2.2543,-2.3095,-2.3108,-2.3108,-2.3108,-2.3108,-2.3108,-2.3108,-2.3108,-2.3417,0.1052,0.0936,0.0841,0.0834,0.0692,0.0504,0.037,0.0168,0.0101,0.0302,0.0445,0.0628,0.0804,0.0894,0.0829,0.0567,0.0,-0.0525,-0.1028,-0.148,-0.2108,-0.3002,-0.3403,-0.4026,-0.5191,-0.5772,-0.6346,-0.7007,0.0,-0.7095,-0.7095,-0.7095,-0.7231,-0.7462,-0.768,-0.8116,-0.8823,-0.9816,-1.1198,-1.2954,-1.3434,-1.3822,-1.4088,-1.4088,-1.4088,-1.4088,-1.4088,-1.4088,-1.4088,-1.4075,-1.3837,-1.3574,-1.4116,-1.4441,-1.4681,-1.5613,-1.6464,-1.7201,-1.7535,-1.7818,-1.8008,-1.8008,-1.8008,-1.8008,-1.8008,-1.8008,-1.8008,-1.8008,-1.8008,-1.792,-1.7519,-1.708,-1.659,-1.6232,-1.6009,-1.596,-1.6228,-1.674,-1.7301,-1.776,-1.8251,-1.8694,-1.896,-1.933,-1.963,-1.9773,-1.9798,-1.9798,-1.9798,-1.9798,-1.9798,-1.9798,-1.9798,-1.9798,-1.9798,-1.9798,-1.9798,-1.9798,-2.0377,-2.0943,-2.1496,-2.202,-2.2543,-2.3095,-2.3108,-2.3108,-2.3108,-2.3108,-2.3108,-2.3108,-2.3108,-2.3288,0.1526,0.1562,0.1597,0.1448,0.1251,0.1037,0.0722,0.0588,0.0552,0.073,0.1001,0.1292,0.1524,0.1394,0.1214,0.0966,0.0375,-0.0258,-0.0714,-0.1211,-0.166,-0.2108,-0.2823,-0.3492,-0.4026,-0.4966,-0.5816,-0.6305,-0.6833,-0.7095,-0.7095,-0.7095,-0.7139,-0.7187,-0.7455,-0.7724,-0.8072,-0.9724,-1.1111,-1.2272,-1.3094,-1.361,-1.3822,-1.3997,-1.4088,-1.4088,-1.4088,-1.4088,-1.4068,-1.3848,-1.3649,-1.3514,-1.3719,-1.3985,-1.4338,-1.5125,-1.5877,-1.6621,-1.7132,-1.7623,-1.8008,-1.8008,-1.8008,-1.8008,-1.8008,-1.8008,-1.8008,-1.8008,-1.8008,-1.7988,-1.7881,-1.7295,-1.6668,-1.656,-1.6137,-1.5807,-1.597,-1.6285,-1.6655,-1.7151,-1.7979,-1.8694,-1.896,-1.933,-1.9617,-1.9656,-1.9734,-1.9798,-1.9798,-1.9798,-1.9798,-1.9798,-1.9798,-1.9798,-1.9798,-1.9798,-1.9798,-1.9798,-2.0377,-2.0943,-2.1496,-2.202,-2.2543,-2.3095,-2.3108,-2.3108,-2.3108,-2.3108,-2.3108,-2.3108,-2.3108,-2.3241,0.1954,0.2042,0.2102,0.1965,0.1778,0.1545,0.1263,0.1086,0.1007,0.1176,0.1547,0.1878,0.2009,0.1953,0.1749,0.1266,0.0658,0.0085,-0.049,-0.0987,-0.1345,-0.1615,-0.2198,-0.2823,-0.3358,-0.4206,-0.5013,-0.5727,-0.6523,-0.701,-0.7095,-0.7095,-0.7095,-0.7095,-0.7234,-0.7544,-0.7981,-0.9423,-1.0636,-1.1585,-1.2491,-1.3179,-1.3568,-1.3822,-1.3997,-1.4088,0.0,-1.4088,-1.4062,-1.3726,-1.3507,-1.3364,-1.3359,-1.3606,-1.4057,-1.4689,-1.5515,-1.6377,-1.6994,-1.7476,-1.7896,-1.7974,-1.8008,-1.8008,-1.8008,-1.8008,-1.8008,-1.8008,-1.8008,-1.7969,-1.7783,-1.7236,-1.6648,-1.6484,-1.5978,-1.5604,-1.5778,-1.597,-1.6285,-1.6825,-1.7623,-1.8306,-1.864,-1.9107,-1.9448,-1.9578,-1.9708,-1.9798,-1.9798,-1.9798,-1.9798,-1.9798,-1.9798,-1.9798,-1.9798,-1.9798,-1.9798,-1.9798,-2.0603,-2.1194,-2.1509,-2.2246,-2.2794,-2.3095,-2.3108,-2.3108,-2.3108,-2.3108,-2.3108,-2.3108,-2.3108,-2.321,0.2337,0.2426,0.2544,0.2509,0.2305,0.2092,0.189,0.1627,0.1528,0.1705,0.2096,0.2404,0.2404,0.254,0.2357,0.1508,0.0974,0.0425,-0.0266,-0.0716,-0.1076,-0.13,-0.157,-0.2063,-0.2868,-0.3492,-0.4208,-0.5146,-0.6083,-0.6789,-0.7054,-0.7095,-0.7095,-0.7095,-0.7095,-0.7404,-0.8113,-0.899,-0.9903,-1.0809,-1.1757,-1.2619,-1.3307,-1.3568,-1.3822,-1.4088,-1.4088,0.0,-1.4062,-1.3686,-1.34,-1.3173,-1.3011,-1.3273,-1.3796,-1.4322,-1.5223,-1.6237,-1.6855,-1.7329,-1.7672,-1.794,-1.8008,-1.8008,-1.8008,-1.8008,-1.8008,-1.8008,-1.8008,-1.793,-1.7559,-1.71,-1.6599,-1.625,-1.5771,-1.5449,-1.5614,-1.5768,-1.6056,-1.6609,-1.7217,-1.7749,-1.8197,-1.8777,-1.9265,-1.9539,-1.9708,-1.9798,-1.9798,-1.9798,-1.9798,-1.9798,-1.9798,-1.9798,-1.9798,-1.9798,-1.9798,-1.9798,-2.079,-2.1446,-2.1493,-2.2443,-2.3032,-2.3108,-2.3108,-2.3108,-2.3108,-2.3108,-2.3108,-2.3108,-2.3108,-2.3198,0.2545,0.2921,0.3276,0.309,0.2927,0.2782,0.2558,0.2394,0.2325,0.2464,0.2807,0.304,0.304,0.2969,0.2689,0.1923,0.1346,0.0747,0.0043,-0.0311,-0.0583,-0.0807,-0.1211,-0.1525,-0.1704,-0.2689,-0.3539,-0.4117,-0.523,-0.6166,-0.6836,-0.701,-0.7095,-0.7095,-0.7095,-0.7275,-0.7635,-0.8157,-0.8899,-0.9864,-1.0809,-1.18,-1.2833,-1.3264,-1.3701,-1.4088,-1.4088,0.0,-1.4048,-1.3507,-1.326,-1.3153,-1.2825,-1.2942,-1.3375,-1.3985,-1.4697,-1.5488,-1.6202,-1.6821,-1.7373,-1.7837,-1.8008,-1.8008,-1.8008,-1.8008,-1.8008,-1.8008,-1.8008,-1.7988,-1.792,-1.7291,-1.6677,-1.6609,-1.5966,-1.541,-1.5449,-1.5604,-1.5865,-1.6296,-1.6786,-1.7335,-1.8023,-1.8655,-1.9119,-1.9394,-1.963,-1.9798,-1.9798,-1.9798,-1.9798,-1.9798,-1.9798,-1.9798,-1.9798,-1.9798,-1.9798,-1.9798,-2.0465,-2.1043,-2.1468,-2.2108,-2.2644,-2.3095,-2.3108,-2.3108,-2.3108,-2.3108,-2.3108,-2.3108,-2.3108,-2.3108,0.2658,0.2996,0.3362,0.3362,0.3221,0.3101,0.3057,0.2939,0.2825,0.2893,0.3211,0.3414,0.3324,0.3309,0.3096,0.2474,0.1851,0.1238,0.0562,0.0089,-0.0269,-0.0538,-0.0852,-0.1076,-0.1211,-0.1973,-0.2778,-0.3494,-0.4561,-0.5586,-0.6523,-0.6922,-0.7095,-0.7095,-0.7095,-0.7231,-0.7507,-0.7808,-0.842,-0.9257,-1.0033,-1.1025,-1.2186,-1.279,-1.3349,-1.3913,-1.4046,0.0,-1.4041,-1.3454,-1.3213,-1.3153,-1.2651,-1.2673,-1.3083,-1.3593,-1.4238,-1.4991,-1.5771,-1.6403,-1.6994,-1.7564,-1.7847,-1.8008,-1.8008,-1.8008,-1.8008,-1.8008,-1.8008,-1.8008,-1.8008,-1.734,-1.6697,-1.6697,-1.6024,-1.541,-1.541,-1.5478,-1.5633,-1.5923,-1.6428,-1.6983,-1.7529,-1.8344,-1.8999,-1.9251,-1.9578,-1.9798,-1.9798,-1.9798,-1.9798,-1.9798,-1.9798,-1.9798,-1.9798,-1.9798,-1.9798,-1.9798,-2.0377,-2.0817,-2.1081,-2.1594,-2.2146,-2.2669,-2.2681,-2.2819,-2.3108,-2.3108,-2.3108,-2.3108,-2.3108,-2.3108,0.2649,0.2943,0.3261,0.3464,0.3414,0.3326,0.3449,0.3343,0.3216,0.3216,0.3502,0.3689,0.351,0.3586,0.3492,0.294,0.2374,0.1793,0.1199,0.0659,0.0178,-0.0134,-0.0403,-0.0673,-0.0942,-0.139,-0.2018,-0.2914,-0.4072,-0.5272,-0.6432,-0.6874,-0.7095,-0.7095,-0.7095,-0.7173,-0.7369,-0.757,-0.7946,-0.8572,-0.9252,-1.0221,-1.1465,-1.2163,-1.2918,-1.3652,-1.3913,0.0,0.0,-1.3454,-1.3213,-1.3146,-1.2538,-1.2526,-1.2863,-1.3236,-1.3811,-1.4525,-1.5267,-1.5939,-1.6533,-1.7107,-1.7598,-1.794,-1.7974,-1.8008,-1.8008,-1.8008,-1.8008,-1.7988,-1.79,-1.7272,-1.6658,-1.6463,-1.5888,-1.541,-1.541,-1.541,-1.5478,-1.5701,-1.6181,-1.6684,-1.719,-1.8045,-1.8813,-1.916,-1.9526,-1.9773,-1.9798,-1.9798,-1.9798,-1.9798,-1.9798,-1.9798,-1.9798,-1.9798,-1.9798,-1.9798,-2.0251,-2.0566,-2.0679,-2.1106,-2.1631,-2.2297,-2.2309,-2.2556,-2.3108,-2.3108,-2.3108,-2.3108,-2.3108,-2.3108,0.2557,0.2902,0.3261,0.3464,0.3576,0.3668,0.3668,0.3611,0.3555,0.3555,0.3741,0.3844,0.3699,0.3823,0.3776,0.3154,0.2881,0.2536,0.1964,0.1504,0.1053,0.0626,0.0224,-0.0179,-0.0448,-0.0897,-0.148,-0.2243,-0.3939,-0.55,-0.6704,-0.6966,-0.7095,-0.7095,-0.7095,-0.7034,-0.6949,-0.7078,-0.7307,-0.7567,-0.8256,-0.9277,-1.0543,-1.1395,-1.2406,-1.344,-1.3652,0.0,0.0,-1.3454,-1.3213,-1.3146,-1.2538,-1.2415,-1.2636,-1.2863,-1.3331,-1.3941,-1.4525,-1.524,-1.5974,-1.6499,-1.7157,-1.775,-1.794,-1.8008,-1.8008,-1.8008,-1.8008,-1.793,-1.7539,-1.709,-1.6502,-1.5723,-1.5469,-1.541,-1.541,-1.541,-1.5507,-1.5827,-1.6134,-1.657,-1.7329,-1.7963,-1.8548,-1.9107,-1.9448,-1.9656,-1.9773,-1.9798,-1.9798,-1.9798,-1.9798,-1.9798,-1.9798,-1.9798,-1.9798,-1.9798,-1.9849,-2.0138,-2.0666,-2.0742,-2.1257,-2.2284,-2.2309,-2.2556,-2.3108,-2.3108,-2.3108,-2.3108,-2.3108,-2.3108,0.2396,0.2729,0.3058,0.328,0.3394,0.3513,0.3699,0.365,0.3595,0.3752,0.3841,0.3896,0.394,0.3988,0.3966,0.3826,0.3387,0.2989,0.2788,0.2184,0.162,0.1387,0.0942,0.0538,0.0269,-0.0179,-0.0986,-0.2285,-0.3582,-0.4741,-0.5677,-0.6479,-0.6925,-0.6925,-0.697,-0.6943,-0.6886,-0.6895,-0.6982,-0.7233,-0.7651,-0.8476,-0.9661,-1.0501,-1.1539,-1.2655,-1.3279,0.0,0.0,-1.3366,-1.3213,-1.3146,-1.2538,-1.2342,-1.2452,-1.2636,-1.2966,-1.3331,-1.3905,-1.4625,-1.5365,-1.5939,-1.6612,-1.727,-1.7681,-1.7896,-1.8008,-1.8008,-1.8008,-1.791,-1.749,-1.6855,-1.6172,-1.5557,-1.541,-1.541,-1.541,-1.541,-1.5439,-1.5565,-1.598,-1.6467,-1.7004,-1.776,-1.8467,-1.9013,-1.9382,-1.9656,-1.9773,-1.9798,-1.9798,-1.9798,-1.9798,-1.9798,-1.9798,-1.9798,-1.9798,-1.9798,-1.9798,-1.9911,-2.0137,-2.015,-2.0677,-2.1794,-2.182,-2.2246,-2.3108,-2.3108,-2.3108,-2.3108,-2.3108,-2.3108,0.2236,0.248,0.2783,0.3039,0.317,0.3315,0.3668,0.3653,0.3629,0.3859,0.3932,0.3984,0.407,0.4111,0.4174,0.4267,0.3906,0.3569,0.3496,0.2896,0.2347,0.2056,0.1614,0.1166,0.0718,0.0134,-0.0762,-0.206,-0.2999,-0.3805,-0.4565,-0.5589,-0.6346,-0.6659,-0.6784,-0.682,-0.6861,-0.6756,-0.6737,-0.6854,-0.7185,-0.782,-0.8761,-0.9611,-1.0663,-1.1833,-1.2644,0.0,0.0,-1.3212,-1.312,-1.3019,-1.2505,-1.2305,-1.2335,-1.2452,-1.2636,-1.2893,-1.3368,-1.397,-1.4689,-1.533,-1.6044,-1.6751,-1.7373,-1.7716,-1.794,-1.7974,-1.792,-1.7725,-1.7305,-1.6662,-1.5977,-1.5518,-1.541,-1.541,-1.541,-1.541,-1.541,-1.5478,-1.5884,-1.6381,-1.6779,-1.7595,-1.836,-1.8907,-1.9303,-1.9617,-1.9773,-1.9798,-1.9798,-1.9798,-1.9798,-1.9798,-1.9798,-1.9798,-1.9798,-1.9798,-1.9798,-1.9874,-2.0049,-2.0062,-2.0589,-2.1707,-2.1732,-2.2196,-2.3108,-2.3108,-2.3108,-2.3108,-2.3108,-2.3108,0.2149,0.225,0.2418,0.2802,0.2961,0.3123,0.3512,0.3653,0.3727,0.3875,0.4,0.4083,0.4086,0.4308,0.444,0.4316,0.4422,0.4378,0.4039,0.3741,0.3331,0.2585,0.2062,0.1525,0.0762,-0.0134,-0.0897,-0.139,-0.2106,0.0,-0.3587,-0.4295,-0.5228,-0.6384,-0.652,-0.6639,-0.6705,-0.6702,-0.6556,-0.6306,-0.6843,-0.7352,-0.7827,-0.8711,-0.9863,0.0,0.0,0.0,0.0,-1.2927,-1.287,-1.2757,-1.2418,-1.2305,-1.2305,-1.2305,-1.2415,-1.2636,-1.2826,-1.3295,-1.3941,-1.4689,-1.5401,-1.6149,-1.6959,-1.7442,-1.775,-1.794,-1.7705,-1.7285,-1.6824,-1.6406,-1.5977,-1.5518,-1.541,-1.541,-1.541,-1.541,-1.5449,-1.5672,-1.5923,-1.6275,-1.6899,-1.7512,-1.8143,-1.8881,-1.9237,-1.9486,-1.9773,-1.9798,-1.9798,-1.9798,-1.9798,-1.9798,-1.9798,-1.9798,-1.9798,-1.9798,-1.9798,-2.0062,-2.0666,-2.0679,-2.1207,-2.2284,-2.2297,-2.2543,-2.3108,-2.3108,-2.3108,-2.3108,-2.3108,-2.3108,0.1958,0.2122,0.2295,0.2629,0.2845,0.3117,0.3612,0.3697,0.3739,0.4105,0.4148,0.4167,0.433,0.4454,0.4537,0.4635,0.4649,0.4619,0.4502,0.4043,0.3561,0.3037,0.2017,0.1166,0.0762,-0.0045,-0.0628,-0.0897,-0.1435,-0.2061,-0.2822,-0.3358,-0.4383,-0.5852,-0.6086,-0.637,-0.6702,-0.6502,-0.6392,-0.6303,-0.6474,-0.6763,-0.7215,-0.7907,-0.8941,0.0,0.0,0.0,0.0,-1.2601,-1.2621,-1.2586,-1.2388,-1.2305,-1.2305,-1.2305,-1.2342,-1.2415,-1.2636,-1.3003,-1.3521,-1.4122,-1.484,-1.5621,-1.6533,-1.7226,-1.775,-1.794,-1.7705,-1.7353,-1.7217,-1.6855,-1.6406,-1.5997,-1.5889,-1.5801,-1.5478,-1.541,-1.541,-1.5478,-1.5739,-1.6075,-1.6457,-1.7134,-1.7815,-1.8414,-1.8948,-1.9344,-1.963,-2.0097,-2.0415,-2.0415,-2.0415,-2.0264,-1.9836,-1.9798,-1.9798,-1.9798,-1.9798,-2.0062,-2.0666,-2.0691,-2.1207,-2.2284,-2.2309,-2.2556,-2.3108,-2.3108,-2.3108,-2.3108,-2.3108,-2.3108,0.1839,0.1982,0.2167,0.2488,0.2722,0.302,0.3649,0.3744,0.3783,0.4217,0.4273,0.4295,0.4479,0.4545,0.4673,0.4833,0.4807,0.4723,0.4648,0.4132,0.3502,0.2772,0.1658,0.0852,0.0628,0.009,-0.0359,-0.0583,-0.0852,-0.1345,-0.2061,-0.2465,-0.3347,-0.4819,-0.5424,-0.5993,-0.6536,-0.637,-0.63,-0.63,-0.63,-0.649,-0.6791,-0.7243,-0.8137,0.0,0.0,0.0,0.0,-1.2097,-1.2279,-1.2314,-1.2304,-1.2305,-1.2305,-1.2305,-1.2305,-1.2335,-1.2452,-1.2709,-1.3083,-1.3768,-1.4732,-1.5771,-1.6568,-1.7304,-1.7852,-1.7974,-1.7822,-1.7578,-1.7422,-1.7178,-1.6865,-1.6426,-1.6212,-1.6016,-1.5743,-1.5527,-1.541,-1.541,-1.5623,-1.5912,-1.6181,-1.6797,-1.744,-1.8061,-1.8629,-1.9107,-1.9486,-2.0154,-2.0638,-2.0691,-2.0691,-2.0541,-2.0189,-1.9924,-1.9798,-1.9798,-2.0012,-2.0415,-2.0981,-2.1207,-2.1707,-2.2581,-2.2594,-2.2757,-2.3108,-2.3108,-2.3108,-2.3108,-2.3108,-2.3108,0.0,0.1845,0.1991,0.2393,0.2565,0.2834,0.3602,0.3792,0.0,0.4233,0.439,0.4506,0.4517,0.4675,0.4839,0.4968,0.489,0.4751,0.4484,0.4043,0.3246,0.197,0.1166,0.0628,0.0448,0.018,-0.009,-0.0359,-0.0403,-0.0673,-0.13,-0.1613,-0.2262,-0.3389,-0.4578,-0.5521,-0.6233,-0.6245,-0.63,-0.63,-0.63,-0.6412,-0.6602,-0.6788,-0.7418,0.0,0.0,0.0,0.0,-1.1504,-1.1841,-1.2003,-1.2231,-1.2305,-1.2305,-1.2305,-1.2305,-1.2305,-1.2305,-1.2415,-1.2709,-1.3542,-1.4947,-1.6412,-1.6994,-1.7554,-1.7974,-1.8008,-1.8008,-1.792,-1.7529,-1.7432,-1.7314,-1.6853,-1.6465,-1.6183,-1.6153,-1.5791,-1.5508,-1.5508,-1.5615,-1.5799,-1.6078,-1.6459,-1.7004,-1.7705,-1.8236,-1.8759,-1.9312,-2.0069,-2.0617,-2.0778,-2.0779,-2.0754,-2.0754,-2.0189,-1.9798,-1.9798,-2.0377,-2.0943,-2.1496,-2.202,-2.2543,-2.3095,-2.3108,-2.3108,-2.3108,-2.3108,-2.3108,-2.3108,-2.3108,-2.3108,0.1679,0.0,0.2089,0.2471,0.264,0.2865,0.0,0.3792,0.3892,0.4233,0.439,0.4534,0.4627,0.4732,0.4828,0.4838,0.4928,0.4797,0.4278,0.3392,0.2633,0.2153,0.1256,0.0673,0.0628,0.0269,-0.0045,-0.009,-0.0269,-0.0538,-0.0852,-0.1281,-0.1876,-0.269,-0.3508,-0.4496,-0.567,-0.591,-0.6099,-0.63,-0.63,-0.6338,-0.6374,-0.6563,-0.7149,0.0,0.0,0.0,-1.0484,-1.1027,-1.1471,-1.1818,-1.2157,-1.2305,-1.2305,-1.2305,-1.2305,-1.2305,-1.2305,-1.2342,-1.2556,-1.3659,-1.4982,-1.6237,-1.6795,-1.7348,-1.7784,-1.7974,-1.8008,-1.7988,-1.7891,-1.7861,-1.7754,-1.7334,-1.7148,-1.7014,-1.665,-1.6463,-1.6395,-1.6395,-1.6183,-1.6068,-1.6218,-1.6251,-1.6457,-1.6976,-1.7634,-1.8363,-1.9203,-2.0268,-2.1175,-2.1724,-2.15,-2.132,-2.132,-2.0376,-1.9798,-1.9798,-2.0377,-2.0943,-2.1496,-2.202,-2.2543,-2.3095,-2.3108,-2.3108,-2.3108,-2.3108,-2.3108,-2.3108,-2.3108,-2.3108,0.1434,0.1718,0.2044,0.2488,0.2642,0.2845,0.3516,0.3725,0.3859,0.4097,0.4399,0.461,0.4676,0.4841,0.498,0.492,0.4834,0.4426,0.3513,0.2582,0.193,0.1705,0.1031,0.0583,0.0583,0.0224,0.0,0.0,-0.0135,-0.0313,-0.0531,-0.0788,-0.1248,-0.194,-0.255,-0.3608,-0.5063,-0.5541,-0.5867,-0.6099,-0.6257,-0.63,-0.63,-0.6412,-0.68,0.0,0.0,0.0,-0.9748,-1.0419,-1.1037,-1.1595,-1.2003,-1.2231,-1.2305,-1.2305,-1.2305,-1.2305,-1.2305,-1.2526,-1.3003,-1.384,-1.4947,-1.6053,-1.6621,-1.7166,-1.7657,-1.794,-1.8008,-1.8008,-1.8008,-1.8008,-1.7959,-1.7725,-1.7529,-1.7314,-1.708,-1.6843,-1.6697,-1.6697,-1.6502,-1.6339,-1.6225,-1.6198,-1.6271,-1.6527,-1.7162,-1.7889,-1.872,-1.9809,-2.0716,-2.1306,-2.1154,-2.1162,-2.1468,-2.0717,-2.02,-2.02,-2.0966,-2.1556,-2.1857,-2.2397,-2.2794,-2.3095,-2.3108,-2.3108,-2.3108,-2.3108,-2.3108,-2.3108,-2.3108,-2.3108,0.1071,0.1453,0.1866,0.2413,0.2582,0.2763,0.3332,0.3605,0.3792,0.3961,0.4311,0.4617,0.4617,0.487,0.5065,0.4895,0.459,0.3951,0.2819,0.2018,0.1436,0.1211,0.0762,0.0448,0.0403,0.018,0.0,0.0,0.0,-0.0089,-0.0349,-0.0389,-0.0635,-0.1182,-0.1783,-0.2828,-0.4319,-0.5101,-0.5634,-0.5864,-0.6141,-0.63,-0.63,-0.63,-0.6486,-0.6865,0.0,0.0,-0.896,-0.976,-1.0588,-1.1409,-1.1781,-1.2114,-1.2305,-1.2305,-1.2305,-1.2305,-1.2305,-1.2826,-1.3528,-1.3912,-1.4804,-1.5798,-1.6394,-1.6968,-1.7461,-1.7837,-1.7974,-1.8008,-1.8008,-1.8008,-1.8008,-1.8008,-1.7734,-1.748,-1.748,-1.7187,-1.6902,-1.6902,-1.6843,-1.6709,-1.6359,-1.6333,-1.6357,-1.6316,-1.6818,-1.7467,-1.8203,-1.9136,-1.9955,-2.0491,-2.0586,-2.0854,-2.1443,-2.1169,-2.0943,-2.0943,-2.1794,-2.2347,-2.2406,-2.2857,-2.3108,-2.3108,-2.3108,-2.3108,-2.3108,-2.3108,-2.3108,-2.3108,-2.3108,-2.3108,0.0517,0.08,0.1189,0.2039,0.2526,0.2873,0.3234,0.3453,0.3629,0.3928,0.4104,0.4222,0.4331,0.4486,0.4575,0.4432,0.4041,0.3662,0.3451,0.2647,0.1974,0.1705,0.1076,0.0583,0.0403,0.018,0.0,0.0,0.0,0.0,-0.0044,-0.021,-0.0451,-0.0692,-0.1357,-0.2132,-0.3076,-0.4431,-0.5279,-0.5637,-0.6106,-0.63,-0.63,-0.63,-0.6412,-0.6676,0.0,-0.7553,-0.8551,-0.9188,-1.0094,-1.1186,-1.1595,-1.1966,-1.2305,-1.2305,-1.2305,-1.2305,-1.2305,-1.2709,-1.3302,-1.3731,-1.4517,-1.5409,-1.6132,-1.6656,-1.7116,-1.7613,-1.7862,-1.8008,-1.8008,-1.8008,-1.8008,-1.8008,-1.7959,-1.791,-1.791,-1.7861,-1.7812,-1.7812,-1.7529,-1.7256,-1.723,-1.6875,-1.6609,-1.6497,-1.6893,-1.7469,-1.8191,-1.8969,-1.9797,-2.0665,-2.1004,-2.1266,-2.1481,-2.1845,-2.2058,-2.2058,-2.2221,-2.2493,-2.2957,-2.3058,-2.3108,-2.3108,-2.3108,-2.3108,-2.3108,-2.3108,-2.3108,-2.3108,-2.3108,-2.3108,0.003,0.0284,0.0557,0.1176,0.1856,0.2496,0.296,0.3262,0.3515,0.3825,0.4018,0.4163,0.4237,0.4457,0.4557,0.4325,0.3804,0.3272,0.3051,0.2288,0.166,0.1436,0.0762,0.0269,0.0179,-0.0135,-0.0358,-0.0398,-0.0263,-0.0215,-0.0168,-0.0165,-0.0243,-0.0439,-0.0948,-0.157,-0.2314,-0.3522,-0.4577,-0.544,-0.5867,-0.618,-0.63,-0.63,-0.6335,-0.6451,0.0,-0.7173,-0.7944,-0.8546,-0.9528,-1.0663,-1.1186,-1.1706,-1.215,-1.2261,-1.2305,-1.2305,-1.2305,-1.2636,-1.3119,-1.3615,-1.4366,-1.5196,-1.5956,-1.6517,-1.6968,-1.7339,-1.7647,-1.7862,-1.7974,-1.8008,-1.8008,-1.8008,-1.8008,-1.8008,-1.8008,-1.8008,-1.8008,-1.8008,-1.7852,-1.7656,-1.7422,-1.7217,-1.7029,-1.6898,-1.7277,-1.783,-1.8545,-1.9229,-1.991,-2.0567,-2.0945,-2.1336,-2.1777,-2.2113,-2.2406,-2.2706,-2.2732,-2.2844,-2.3095,-2.3108,-2.3108,-2.3108,-2.3108,-2.3108,-2.3108,-2.3108,-2.2945,-2.2669,-2.2957,-2.2945,-0.0397,-0.0191,0.0,0.0381,0.1161,0.2028,0.2575,0.3039,0.3383,0.3709,0.3935,0.4118,0.4156,0.4348,0.4467,0.4288,0.3751,0.3229,0.2827,0.2109,0.1525,0.1211,0.0538,0.0045,-0.009,-0.0447,-0.0708,-0.0697,-0.0561,-0.0422,-0.0367,-0.0162,-0.016,-0.0354,-0.0668,-0.1139,-0.1803,-0.2784,-0.3917,-0.5165,-0.5631,-0.5983,-0.63,-0.63,-0.63,-0.63,-0.6451,-0.6872,-0.7484,-0.8021,-0.9008,-1.018,-1.0775,-1.1446,-1.2077,-1.2224,-1.2305,-1.2305,-1.2305,-1.2526,-1.2929,-1.3477,-1.4158,-1.4867,-1.5665,-1.6272,-1.676,-1.7063,-1.7339,-1.7647,-1.7862,-1.7974,-1.8008,-1.8008,-1.8008,-1.8008,-1.8008,-1.8008,-1.8008,-1.8008,-1.8008,-1.791,-1.7578,-1.7529,-1.7471,-1.7326,-1.7624,-1.8091,-1.8646,-1.9287,-1.986,-2.0344,-2.0839,-2.142,-2.2208,-2.231,-2.2498,-2.2882,-2.3032,-2.3108,-2.3108,-2.2982,-2.297,-2.3108,-2.2982,-2.297,-2.3108,-2.297,-2.2694,-2.2322,-2.2581,-2.2556,-0.0699,-0.065,-0.0539,-0.0069,0.0785,0.1637,0.2078,0.2598,0.3131,0.3543,0.3727,0.3871,0.399,0.4031,0.4067,0.4208,0.3986,0.3767,0.3544,0.2871,0.2154,0.148,0.0762,0.0179,-0.0314,-0.0573,-0.0697,-0.0696,-0.0628,-0.0572,-0.057,-0.0398,-0.0354,-0.0589,-0.0589,-0.0943,-0.1611,-0.2434,-0.3489,-0.4737,-0.5323,-0.587,-0.63,-0.63,-0.63,-0.63,-0.63,-0.6644,-0.7257,-0.7672,-0.8661,-0.9992,-1.0588,-1.1409,-1.2268,-1.2298,-1.2305,-1.2305,-1.2305,-1.2452,-1.2673,-1.3119,-1.3659,-1.431,-1.5054,-1.5665,-1.6272,-1.6769,-1.7072,-1.7304,-1.7638,-1.7862,-1.8008,-1.8008,-1.8008,-1.8008,-1.8008,-1.8008,-1.8008,-1.8008,-1.8008,-1.7998,-1.7969,-1.7969,-1.788,-1.7602,-1.7695,-1.7898,-1.8213,-1.8657,-1.9268,-2.0053,-2.0854,-2.177,-2.2779,-2.2522,-2.2334,-2.2372,-2.2819,-2.3108,-2.3108,-2.2606,-2.2581,-2.3095,-2.2606,-2.2594,-2.3108,-2.2594,-2.2347,-2.2297,-2.1832,-2.1857,-0.0885,-0.0877,-0.0836,-0.0574,-0.0106,0.0512,0.1563,0.2194,0.273,0.3281,0.3586,0.381,0.3975,0.3983,0.3958,0.3931,0.3762,0.3532,0.3221,0.2617,0.2023,0.1451,0.0783,0.0129,-0.0345,-0.0685,-0.0933,-0.1045,-0.0945,-0.0849,-0.0797,-0.0592,-0.051,-0.0589,-0.0707,-0.0982,-0.1415,-0.208,-0.294,-0.3917,-0.4932,-0.5631,-0.606,-0.6219,-0.63,-0.63,-0.63,-0.649,-0.6872,-0.7407,-0.8203,-0.9273,-1.0625,-1.1558,-1.212,-1.2268,-1.2305,-1.2305,-1.2305,-1.2342,-1.2489,-1.2863,-1.3339,-1.3884,-1.4768,-1.5346,-1.585,-1.6542,-1.6864,-1.7107,-1.7569,-1.775,-1.7852,-1.7974,-1.8008,-1.8008,-1.8008,-1.8008,-1.8008,-1.8008,-1.8008,-1.8008,-1.8008,-1.8008,-1.8017,-1.8018,-1.8165,-1.8426,-1.8998,-1.9508,-2.0106,-2.0819,-2.1272,-2.1762,-2.2357,-2.196,-2.1722,-2.1794,-2.1995,-2.2121,-2.2121,-2.1907,-2.2058,-2.2581,-2.2393,-2.2556,-2.3108,-2.2895,-2.2443,-2.1807,-2.1945,-2.1933,-0.0992,-0.0986,-0.0978,-0.0846,-0.0741,-0.0331,0.0837,0.1629,0.234,0.2994,0.349,0.3817,0.3956,0.3942,0.3858,0.3767,0.3637,0.3412,0.2982,0.2561,0.2108,0.1634,0.0934,0.0295,-0.0126,-0.0544,-0.0911,-0.11,-0.1011,-0.0959,-0.0904,-0.0786,-0.0707,-0.0707,-0.0825,-0.0982,-0.1178,-0.1844,-0.2549,-0.3214,-0.4423,-0.5282,-0.5825,-0.6141,-0.63,-0.63,-0.63,-0.6412,-0.6641,-0.7253,-0.8169,-0.9306,-1.0732,-1.1595,-1.2003,-1.215,-1.2268,-1.2305,-1.2305,-1.2305,-1.2378,-1.2709,-1.3046,-1.3484,-1.4374,-1.4947,-1.5453,-1.6228,-1.6621,-1.6934,-1.7476,-1.7681,-1.774,-1.794,-1.8008,-1.8008,-1.8008,-1.8008,-1.8008,-1.8008,-1.8008,-1.8008,-1.8008,-1.8008,-1.8042,-1.8178,-1.8269,-1.8617,-1.9341,-1.9857,-2.0495,-2.14,-2.1571,-2.1707,-2.1972,-2.1414,-2.1104,-2.123,-2.1257,-2.1408,-2.1732,-2.1581,-2.1832,-2.2531,-2.2397,-2.2556,-2.3108,-2.2932,-2.2397,-2.1493,-2.1694,-2.1594,-0.0985,-0.1002,-0.0983,-0.0933,-0.0894,-0.0739,-0.0155,0.0936,0.1975,0.2645,0.3444,0.3966,0.3916,0.3897,0.3816,0.3614,0.3643,0.353,0.3072,0.2818,0.2523,0.206,0.1343,0.0756,0.0337,-0.0124,-0.0488,-0.0692,-0.0836,-0.0904,-0.0904,-0.0904,-0.0904,-0.0904,-0.0904,-0.0904,-0.0904,-0.1765,-0.2392,-0.2826,-0.3878,-0.4815,-0.5598,-0.6067,-0.63,-0.63,-0.63,-0.6412,-0.6641,-0.7253,-0.8585,-1.0255,-1.085,-1.1484,-1.2003,-1.2003,-1.212,-1.2305,-1.2305,-1.2305,-1.2342,-1.2526,-1.2716,-1.3046,-1.384,-1.4482,-1.5081,-1.5877,-1.6333,-1.6742,-1.7323,-1.7588,-1.774,-1.794,-1.8008,-1.8008,-1.8008,-1.8008,-1.8008,-1.8008,-1.8008,-1.8008,-1.8008,-1.8008,-1.8008,-1.8008,-1.8008,-1.8279,-1.9008,-1.9407,-2.0161,-2.1541,-2.1644,-2.1647,-2.1771,-2.0999,-2.0542,-2.0691,-2.0691,-2.1182,-2.2246,-2.1782,-2.2008,-2.307,-2.2556,-2.2556,-2.3108,-2.2556,-2.2033,-2.1509,-2.0955,-2.0691,-0.0996,-0.103,-0.1065,-0.1047,-0.1088,-0.1015,-0.0725,0.0281,0.1476,0.2741,0.344,0.3798,0.3875,0.3766,0.3546,0.3364,0.3229,0.3057,0.2812,0.2697,0.2546,0.2258,0.186,0.1442,0.1043,0.0598,0.0238,0.0,-0.0276,-0.055,0.0,-0.0825,-0.0982,-0.1178,-0.1178,-0.1178,-0.1178,-0.1571,-0.1962,-0.2392,-0.329,-0.4307,-0.5401,-0.5825,-0.6138,-0.63,-0.63,-0.6338,-0.6451,-0.7514,-0.8661,-0.9846,-1.0594,-1.126,-1.1818,-1.1966,-1.212,-1.2305,-1.2305,-1.2305,-1.2305,-1.2378,-1.2526,-1.2826,-1.3484,-1.3889,-1.4377,-1.5545,-1.5956,-1.626,-1.7257,-1.7529,-1.7632,-1.794,-1.8008,-1.8008,-1.8008,-1.8008,-1.8008,-1.8008,-1.8008,-1.8008,-1.8008,-1.8008,-1.8008,-1.8008,-1.8008,-1.8347,-1.9341,-2.0183,-2.0978,-2.1635,-2.1565,-2.1383,-2.1256,-2.101,-2.0804,-2.0717,-2.1056,-2.1245,-2.1182,-2.1368,-2.1832,-2.2506,-2.2397,-2.2556,-2.3108,-2.2945,-2.238,-2.1493,-2.1358,-2.1069,-0.1029,-0.106,-0.1092,-0.1151,-0.1185,-0.1104,-0.0737,0.0201,0.1418,0.2688,0.3243,0.3549,0.3664,0.3506,0.327,0.3081,0.2927,0.282,0.2655,0.2589,0.2524,0.2404,0.2176,0.1883,0.157,0.1217,0.0904,0.0707,0.0314,0.0,0.0,-0.051,-0.0825,-0.1139,-0.1139,-0.1178,-0.1296,-0.1493,-0.1767,-0.2078,-0.2898,-0.3834,-0.4851,-0.5476,-0.5986,-0.63,-0.63,-0.6454,-0.6721,-0.7706,-0.8694,-0.9657,-1.04,-1.1111,-1.1706,-1.1855,-1.2077,-1.2305,-1.2305,-1.2305,-1.2305,-1.2305,-1.2378,-1.2579,-1.3122,-1.3474,-1.3901,-1.5009,-1.5425,-1.5824,-1.6985,-1.7258,-1.7407,-1.7867,-1.8008,-1.8008,-1.8008,-1.8008,-1.8008,-1.8008,-1.8008,-1.8008,-1.8008,-1.8008,-1.8008,-1.8008,-1.8178,-1.8607,-1.9396,-2.0345,-2.1126,-2.1549,-2.14,-2.126,-2.1243,-2.1096,-2.098,-2.0894,-2.1478,-2.1669,-2.1358,-2.1644,-2.2071,-2.2594,-2.2606,-2.2782,-2.3108,-2.2882,-2.2347,-2.1481,-2.1295,-2.088,-0.1071,-0.1088,-0.1139,-0.1197,-0.1214,-0.1038,-0.0402,0.0567,0.159,0.2462,0.2967,0.3285,0.3278,0.3183,0.3023,0.2826,0.2787,0.2707,0.2511,0.2511,0.2511,0.2511,0.2353,0.2156,0.196,0.1766,0.1571,0.1414,0.0943,0.0,0.0,0.0,-0.0432,-0.0825,-0.0864,-0.1021,-0.1257,-0.1454,-0.1689,-0.1882,-0.2663,-0.3366,-0.4068,-0.5087,-0.5831,-0.63,-0.63,-0.6637,-0.7195,-0.7795,-0.8618,-0.9557,-1.0189,-1.0891,-1.16,-1.1625,-1.189,-1.2228,-1.2291,-1.2305,-1.2305,-1.2305,-1.2285,-1.2364,-1.2841,-1.3167,-1.3557,-1.4346,-1.4844,-1.5387,-1.6529,-1.6869,-1.7049,-1.776,-1.7944,-1.8008,-1.8008,-1.8008,-1.8008,-1.8008,-1.8008,-1.8008,-1.8008,-1.8008,-1.8008,-1.8008,-1.8448,-1.8898,-1.9243,-2.0042,-2.0796,-2.1325,-2.1271,-2.129,-2.1571,-2.1304,-2.1153,-2.1262,-2.1956,-2.2355,-2.2355,-2.2355,-2.2594,-2.3095,-2.3108,-2.3108,-2.3108,-2.2556,-2.2033,-2.1509,-2.0943,-2.0377,-0.1111,-0.1138,-0.1166,-0.1202,-0.123,-0.1055,-0.0237,0.0356,0.1035,0.1874,0.2568,0.3031,0.3133,0.2994,0.2865,0.2826,0.2668,0.255,0.2511,0.2511,0.2511,0.2511,0.247,0.2431,0.2392,0.2196,0.204,0.2,0.0,0.0,0.11,0.051,0.0079,-0.0196,-0.0668,-0.0943,-0.0982,-0.1257,-0.1453,0.0,-0.2157,-0.2782,-0.3602,-0.4813,-0.5712,-0.63,-0.63,-0.6461,-0.6794,-0.7385,-0.8029,-0.8714,-0.9422,-1.0107,-1.0744,-1.1198,-1.1526,-1.1811,-1.2188,-1.2305,-1.2305,-1.2305,-1.2144,-1.2094,-1.26,-1.2745,-1.297,-1.4139,-1.4564,-1.4957,-1.5928,-1.6553,-1.6983,-1.7249,-1.7663,-1.8008,-1.8008,-1.8008,-1.8008,-1.8008,-1.8008,-1.8008,-1.8008,-1.8008,-1.8008,-1.8008,-1.8313,-1.8731,-1.9243,-1.9966,-2.0688,-2.1325,-2.16,-2.1684,-2.1595,-2.1897,-2.1975,-2.1682,-2.2365,-2.2765,-2.2765,-2.2872,-2.2982,-2.3108,-2.3108,-2.3108,-2.3108,-2.2556,-2.2033,-2.1509,-2.0943,-2.0377,-0.0973,-0.1036,-0.1104,-0.1222,-0.1168,-0.0943,-0.0275,0.0314,0.0943,0.1572,0.2261,0.2748,0.2793,0.2746,0.2668,0.2668,0.255,0.2511,0.2511,0.2485,0.2467,0.2467,0.2405,0.2389,0.2389,0.2313,0.2236,0.0,0.0,0.1716,0.1544,0.1119,0.0656,0.0154,-0.027,-0.0614,-0.091,-0.1024,-0.1176,-0.1251,-0.1668,-0.2462,-0.3632,-0.482,-0.5613,-0.6078,-0.6078,-0.6182,-0.6401,-0.7017,-0.7641,-0.8322,-0.8996,-0.9736,-1.0461,-1.0835,-1.1214,-1.1641,-1.2001,-1.2184,-1.2278,-1.2138,-1.2027,-1.1923,-1.215,-1.2365,-1.2658,-1.3507,-1.4004,-1.4523,-1.5344,-1.6015,-1.6576,-1.7019,-1.7552,-1.8008,-1.8008,-1.8008,-1.8008,-1.8008,-1.8008,-1.8008,-1.8008,-1.8008,-1.8008,-1.8008,-1.8245,-1.8573,-1.8988,-1.9715,-2.041,-2.1083,-2.1549,-2.183,-2.1892,-2.2201,-2.2299,-2.2097,-2.2548,-2.28,-2.28,-2.2939,-2.3017,-2.3108,-2.3108,-2.297,-2.2706,-2.2184,-2.1631,-2.1106,-2.0541,-2.0087,-0.08,-0.086,-0.0891,-0.1127,-0.1021,-0.0746,-0.0353,0.0313,0.097,0.1408,0.2038,0.2531,0.2481,0.248,0.2521,0.2493,0.2486,0.2484,0.2493,0.2443,0.2367,0.2367,0.2327,0.2299,0.2299,0.2299,0.2299,0.0,0.0,0.1988,0.188,0.1656,0.1204,0.0527,0.0188,-0.0223,-0.0802,-0.0838,-0.0875,-0.0911,-0.1348,-0.2289,-0.3651,-0.4724,-0.5386,-0.5767,-0.5803,-0.5897,-0.6094,-0.6624,-0.7275,-0.7941,-0.8533,-0.9335,-1.0137,-1.0386,-1.0918,-1.1514,-1.1744,-1.2058,-1.2258,-1.2,-1.1873,-1.1795,-1.1715,-1.1992,-1.2472,-1.2847,-1.3437,-1.412,-1.4787,-1.5485,-1.6145,-1.6777,-1.7436,-1.7974,-1.7974,-1.8008,-1.8008,-1.8008,-1.8008,-1.8008,-1.8008,-1.8008,-1.7988,-1.791,-1.8035,-1.8295,-1.8696,-1.9313,-2.003,-2.086,-2.1403,-2.1824,-2.2154,-2.2309,-2.2359,-2.2359,-2.2555,-2.2647,-2.2647,-2.2701,-2.2772,-2.288,-2.294,-2.2732,-2.2309,-2.1656,-2.1131,-2.0679,-2.0075,-1.9798,-0.0626,-0.0654,-0.0645,-0.0702,-0.0668,-0.055,-0.0118,0.0309,0.0798,0.1364,0.2125,0.2605,0.2368,0.2467,0.2555,0.2422,0.2354,0.2339,0.2387,0.2346,0.231,0.231,0.2304,0.2299,0.2299,0.2299,0.2299,0.0,0.2262,0.2266,0.2238,0.1869,0.1539,0.1246,0.0549,0.0,-0.0364,-0.0546,-0.0729,-0.0911,-0.1495,-0.216,-0.2956,-0.3918,-0.4785,-0.5555,-0.5731,-0.5799,-0.5852,-0.6098,-0.6563,-0.712,-0.7668,-0.833,-0.9088,-0.981,-1.047,-1.1045,-1.1494,-1.1913,-1.2258,-1.2,-1.1697,-1.1457,-1.152,-1.171,-1.2018,-1.2666,-1.3299,-1.3907,-1.43,-1.521,-1.6015,-1.6135,-1.6949,-1.7784,-1.7974,-1.8008,-1.8008,-1.8008,-1.8008,-1.8008,-1.8008,-1.8008,-1.7881,-1.7519,-1.7494,-1.7747,-1.8378,-1.8775,-1.9595,-2.1017,-2.1466,-2.1824,-2.2154,-2.2216,-2.2216,-2.2216,-2.2371,-2.2451,-2.2451,-2.2163,-2.2036,-2.2066,-2.2289,-2.2355,-2.2309,-2.1307,-2.0767,-2.0679,-2.0075,-1.9798,-0.0382,-0.0504,-0.0597,-0.0612,-0.0505,-0.0353,-0.0079,0.0385,0.0905,0.1339,0.2051,0.2575,0.2477,0.2622,0.2741,0.2699,0.2569,0.2487,0.2513,0.2356,0.2249,0.2249,0.2255,0.2233,0.2233,0.2233,0.0,0.0,0.2233,0.2249,0.2248,0.207,0.1855,0.157,0.1034,0.0531,0.0035,-0.0174,-0.0349,-0.0559,-0.1151,-0.1766,-0.2427,-0.3485,-0.4404,-0.5111,-0.5452,-0.5586,-0.5592,-0.5761,-0.6118,-0.6683,-0.7199,-0.7912,-0.8705,-0.9376,-1.0071,-1.0795,-1.1229,-1.1709,-1.2078,-1.1735,-1.153,-1.1377,-1.1175,-1.1386,-1.1778,-1.2266,-1.2934,-1.3662,-1.4215,-1.5038,-1.5818,-1.6253,-1.6882,-1.751,-1.775,-1.794,-1.8008,-1.8008,-1.8008,-1.7939,-1.7695,-1.7656,-1.751,-1.708,-1.7021,-1.7204,-1.7778,-1.8449,-1.9357,-2.0512,-2.1292,-2.1824,-2.2154,-2.2197,-2.2197,-2.2197,-2.2247,-2.2145,-2.1844,-2.1751,-2.1584,-2.1279,-2.1572,-2.1594,-2.1281,-2.0903,-2.0528,-2.0201,-1.9924,-1.9798,-0.0174,-0.032,-0.0436,-0.0447,-0.0342,-0.0193,-0.0039,0.0416,0.0887,0.1268,0.1908,0.2475,0.2667,0.2819,0.2897,0.288,0.2689,0.254,0.2558,0.2365,0.2187,0.2187,0.2215,0.2188,0.2188,0.2188,0.0,0.0,0.2188,0.2207,0.2183,0.2187,0.2048,0.1769,0.1422,0.0961,0.0437,0.0135,-0.0067,-0.0236,-0.0774,-0.1344,-0.2013,-0.3186,-0.4056,-0.4694,-0.5193,-0.5395,-0.5395,-0.5521,-0.5851,-0.6416,-0.6937,-0.7652,-0.849,-0.9011,-0.976,-1.0539,-1.0915,-1.1377,-1.1745,-1.1414,-1.1282,-1.1216,-1.0868,-1.109,-1.156,-1.1903,-1.2574,-1.3353,-1.4191,-1.4934,-1.566,-1.6377,-1.6878,-1.7304,-1.7638,-1.7862,-1.8008,-1.8008,-1.793,-1.7754,-1.7432,-1.7285,-1.707,-1.6631,-1.6562,-1.674,-1.7246,-1.805,-1.8967,-2.014,-2.0993,-2.1701,-2.2154,-2.2197,-2.2197,-2.2197,-2.2065,-2.1813,-2.1416,-2.1245,-2.0964,-2.0564,-2.0683,-2.068,-2.0488,-2.0446,-2.0199,-1.9798,-1.9798,-1.9798,0.0,-0.0035,-0.0035,-0.0036,-0.0037,0.0,0.0,0.0287,0.0633,0.1018,0.1718,0.2362,0.2902,0.3003,0.2961,0.2828,0.2578,0.2422,0.2487,0.2335,0.2193,0.2193,0.219,0.2188,0.2188,0.2188,0.0,0.0,0.2188,0.2189,0.2193,0.2193,0.2091,0.1889,0.1516,0.1111,0.0773,0.0269,0.0,-0.0034,-0.0572,-0.1109,-0.1681,-0.2952,-0.382,-0.4356,-0.5093,-0.5395,-0.5395,-0.5395,-0.5723,-0.6247,-0.6732,-0.7447,-0.8269,-0.8818,-0.9515,-1.0259,-1.0459,-1.0852,-1.1224,-1.1082,-1.1015,-1.0955,-1.068,-1.0846,-1.1216,-1.1685,-1.229,-1.3069,-1.4129,-1.4934,-1.5627,-1.6187,-1.6785,-1.7304,-1.7638,-1.7862,-1.8008,-1.8008,-1.7686,-1.7412,-1.7393,-1.7041,-1.659,-1.6193,-1.6124,-1.6367,-1.7027,-1.7364,-1.83,-2.0202,-2.0717,-2.1287,-2.2118,-2.2197,-2.2197,-2.2197,-2.1716,-2.144,-2.1404,-2.0434,-1.988,-1.9844,-1.9482,-1.9711,-2.0488,-1.9941,-1.9719,-1.9798,-1.9798,-1.9798,0.0,0.0,0.0,0.0,0.0,0.0,0.0,0.0179,0.049,0.0841,0.1406,0.1985,0.2523,0.2891,0.3169,0.3235,0.2976,0.2732,0.2657,0.2472,0.2288,0.2221,0.2188,0.2188,0.2188,0.2188,0.0,0.0,0.0,0.2188,0.2188,0.2188,0.2221,0.2221,0.1884,0.1412,0.0806,0.0404,0.0135,0.0,-0.0538,-0.1008,-0.1446,-0.2721,-0.3591,-0.4159,-0.4891,-0.5292,-0.5395,-0.5395,-0.5627,-0.6053,-0.6572,-0.7228,-0.7954,-0.8635,-0.9286,-0.9946,-1.0373,-1.0718,-1.1007,-1.0989,-1.0995,-1.0942,-1.068,-1.0744,-1.0996,-1.1365,-1.1895,-1.264,-1.3953,-1.4709,-1.5438,-1.644,-1.7048,-1.7426,-1.7564,-1.7803,-1.793,-1.7666,-1.749,-1.7207,-1.6662,-1.6437,-1.6152,-1.5713,-1.5644,-1.5851,-1.6378,-1.7005,-1.7841,-1.9057,-1.9741,-2.0375,-2.0991,-2.1045,-2.1075,-2.1187,-2.0983,-2.0747,-2.0382,-2.0013,-1.9652,-1.9275,-1.9148,-1.9308,-1.9795,-1.9664,-1.9656,-1.9798,-1.9798,-1.9798,0.0,0.0,0.0,0.0,0.0,0.0,0.0,0.014,0.038,0.0657,0.1123,0.1681,0.2221,0.2658,0.3027,0.3362,0.3159,0.2956,0.282,0.2555,0.2357,0.2288,0.2221,0.2188,0.2188,0.2188,0.0,0.0,0.0,0.0,0.2157,0.2223,0.229,0.2356,0.2143,0.1648,0.0908,0.0605,0.0303,0.0,-0.0438,-0.0875,-0.1344,-0.2418,-0.3324,-0.4028,-0.4691,-0.516,-0.5395,-0.5395,-0.5557,-0.5855,-0.6379,-0.704,-0.7727,-0.8376,-0.9,-0.961,-1.0025,-1.0348,-1.0608,-1.0712,-1.0816,-1.0847,-1.0646,-1.0649,-1.0807,-1.1153,-1.1665,-1.2482,-1.3786,-1.4829,-1.5771,-1.6667,-1.7151,-1.7426,-1.7505,-1.7663,-1.7715,-1.7441,-1.7171,-1.678,-1.6193,-1.5968,-1.5772,-1.5459,-1.541,-1.5555,-1.597,-1.6572,-1.7307,-1.8233,-1.8952,-1.9634,-2.0286,-2.0367,-2.0454,-2.0581,-2.0418,-2.0169,-1.982,-1.964,-1.9375,-1.8999,-1.8987,-1.9105,-1.9328,-1.9473,-1.9617,-1.9734,-1.9773,-1.9798,0.0,0.0,0.0,0.0,0.0,0.0,0.0,0.0135,0.0337,0.0471,0.0908,0.1446,0.2052,0.2288,0.2557,0.3092,0.3058,0.2989,0.2989,0.2658,0.2391,0.2391,0.2288,0.2188,0.2188,0.0,0.0,0.0,0.2188,0.216,0.2099,0.2224,0.2319,0.2319,0.2251,0.1847,0.1108,0.0906,0.0538,0.0,-0.0202,-0.0639,-0.1309,-0.2045,-0.2984,-0.3995,-0.4561,-0.503,-0.5395,-0.5395,-0.5491,-0.565,-0.6185,-0.6839,-0.7521,-0.8004,-0.8657,-0.9306,-0.9454,-0.9722,-1.0015,-1.0238,-1.0428,-1.0593,-1.0593,-1.0593,-1.0688,-1.0996,-1.166,-1.2525,-1.3712,-1.5291,-1.6647,-1.683,-1.7038,-1.7235,-1.7417,-1.7432,-1.7363,-1.7363,-1.6692,-1.6085,-1.6075,-1.5693,-1.541,-1.541,-1.541,-1.5526,-1.5845,-1.6114,-1.672,-1.7832,-1.8366,-1.9057,-2.0053,-2.0262,-2.0406,-2.0545,-2.0057,-1.9784,-1.9784,-1.9263,-1.8987,-1.8987,-1.8987,-1.9052,-1.9196,-1.9328,-1.9473,-1.9617,-1.9734,-1.9798,0.0,0.0,0.0,0.0,0.0,0.0,0.0,0.0034,0.0135,0.0303,0.0538,0.0874,0.1311,0.1648,0.1918,0.222,0.2554,0.2721,0.2591,0.2458,0.2357,0.2255,0.2221,0.2188,0.2188,0.0,0.0,0.0,0.2288,0.2327,0.226,0.2465,0.253,0.2373,0.2266,0.1883,0.1173,0.0881,0.049,0.0,-0.0196,-0.0523,-0.098,-0.1859,-0.267,-0.346,-0.4295,-0.4858,-0.519,-0.5326,-0.5491,-0.5617,-0.5921,-0.6449,-0.7138,-0.7647,-0.8301,-0.899,-0.9364,-0.9722,-1.0015,-1.0238,-1.0428,-1.0593,-1.0593,-1.0593,-1.0656,-1.0839,-1.121,-1.1968,-1.3713,-1.507,-1.6105,-1.6386,-1.6726,-1.6929,-1.6677,-1.6651,-1.6735,-1.6872,-1.6455,-1.5987,-1.5644,-1.5498,-1.541,-1.541,-1.541,-1.5507,-1.572,-1.5884,-1.6269,-1.692,-1.729,-1.7767,-1.8485,-1.8663,-1.8896,-1.9265,-1.9149,-1.9108,-1.9215,-1.9071,-1.8987,-1.8987,-1.8987,-1.9025,-1.9052,-1.9196,-1.9328,-1.9473,-1.9591,-1.9708,0.0,0.0,0.0,0.0,0.0,0.0,0.0,0.0,0.0033,0.0166,0.0301,0.0505,0.0807,0.1076,0.1344,0.1547,0.1814,0.2084,0.2288,0.2255,0.2154,0.2087,0.2087,0.2087,0.0,0.2154,0.2221,0.2288,0.2357,0.2414,0.2475,0.2647,0.2694,0.2571,0.2419,0.1989,0.1327,0.095,0.0507,0.0,-0.0127,-0.038,-0.0825,-0.1506,-0.234,-0.3238,-0.4008,-0.4625,-0.512,-0.5326,-0.5458,-0.5521,-0.5719,-0.6152,-0.6745,-0.7293,-0.8009,-0.8727,-0.9139,-0.9562,-0.9958,-1.011,-1.0308,-1.0498,-1.0561,-1.0593,-1.0624,-1.0681,-1.1143,-1.1988,-1.3466,-1.4504,-1.5206,-1.5548,-1.5922,-1.6172,-1.6068,-1.5983,-1.6008,-1.6268,-1.6033,-1.5703,-1.5459,-1.541,-1.541,-1.541,-1.541,-1.5449,-1.5546,-1.572,-1.5941,-1.6285,-1.6616,-1.7039,-1.7567,-1.7854,-1.822,-1.8679,-1.8771,-1.8878,-1.8987,-1.8987,-1.8987,-1.8987,-1.8987,-1.8987,-1.8987,-1.9143,-1.9275,-1.9394,-1.9486,-1.9591,0.0,0.0,0.0,0.0,0.0,0.0,0.0,0.0,0.0,0.0,0.0131,0.03,0.0433,0.0601,0.0803,0.097,0.104,0.1278,0.1985,0.1918,0.1817,0.1817,0.1817,0.185,0.185,0.2053,0.2255,0.2391,0.245,0.2556,0.2768,0.2821,0.2855,0.2826,0.2592,0.214,0.147,0.1013,0.0522,0.0,0.0,-0.0276,-0.0768,-0.1139,-0.1958,-0.3097,-0.3749,-0.4392,-0.5054,-0.5292,-0.5395,-0.5425,-0.5521,-0.5918,-0.6449,-0.697,-0.7717,-0.8522,-0.8888,-0.9344,-0.9836,-0.9958,-1.0142,-1.0339,-1.053,-1.0593,-1.0593,-1.0624,-1.1301,-1.2217,-1.3045,-1.3644,-1.4172,-1.4543,-1.4878,-1.5236,-1.5505,-1.5412,-1.5361,-1.5621,-1.5505,-1.5391,-1.541,-1.541,-1.541,-1.541,-1.541,-1.541,-1.541,-1.5546,-1.572,-1.5855,-1.6257,-1.6684,-1.7106,-1.754,-1.8007,-1.8479,-1.8679,-1.8825,-1.8972,-1.8987,-1.8987,-1.8987,-1.8987,-1.8987,-1.8987,-1.9117,-1.9249,-1.9368,-1.9368,-1.9447,0.0,0.0,0.0,0.0,0.0,0.0,0.0,0.0,0.0,0.0,0.0031,0.0063,0.0094,0.0256,0.0423,0.0455,0.0531,0.0775,0.1244,0.1277,0.1244,0.1244,0.1344,0.0,0.1648,0.1985,0.2255,0.2391,0.2766,0.3037,0.3259,0.3213,0.3146,0.3056,0.2538,0.1964,0.1334,0.0921,0.0476,0.0,0.0,-0.0149,-0.0417,-0.1012,-0.1669,-0.2388,-0.3515,-0.4259,-0.4725,-0.5193,-0.5395,-0.5395,-0.5428,-0.5756,-0.6309,-0.6765,-0.7512,-0.8328,-0.8823,-0.9344,-0.9836,-0.9958,-1.0142,-1.0339,-1.053,-1.0593,-1.0624,-1.0744,-1.1212,-1.179,-1.2232,-1.2836,-1.3443,-1.3924,-1.4453,-1.48,-1.4822,-1.5064,-1.5216,-1.4962,-1.5077,-1.5264,-1.5391,-1.541,-1.541,-1.541,-1.541,-1.541,-1.541,-1.5439,-1.5536,-1.573,-1.5912,-1.6218,-1.6684,-1.7011,-1.7429,-1.8018,-1.8302,-1.8583,-1.8825,-1.8946,-1.8987,-1.8987,-1.8987,-1.8987,-1.8987,-1.9025,-1.9105,-1.9249,-1.9249,-1.9302,0.0,0.0,0.0,0.0,0.0,0.0,0.0,0.0,0.0,0.0,0.0,0.0,0.0,0.0094,0.0158,0.0158,0.0192,0.0324,0.0526,0.0701,0.0808,0.0808,0.0942,0.0,0.1344,0.1681,0.2119,0.2656,0.3044,0.3286,0.3382,0.3364,0.3196,0.2853,0.2431,0.1865,0.1206,0.0776,0.0374,0.0,0.0,-0.0086,-0.0259,-0.0802,-0.144,-0.2147,-0.3152,-0.3974,-0.4625,-0.506,-0.5292,-0.5395,-0.5395,-0.5657,-0.6115,-0.6605,-0.7293,-0.8047,-0.8668,-0.9183,-0.96,-0.9888,-1.0079,-1.0206,-1.0498,-1.0593,-1.0624,-1.0681,-1.0948,-1.1226,-1.1404,-1.1911,-1.2457,-1.2916,-1.3427,-1.3916,-1.414,-1.4525,-1.4765,-1.4693,-1.4843,-1.502,-1.5254,-1.5362,-1.541,-1.541,-1.541,-1.541,-1.541,-1.541,-1.5449,-1.5546,-1.5691,-1.5912,-1.6228,-1.6588,-1.7022,-1.7523,-1.7936,-1.8275,-1.8583,-1.8786,-1.8919,-1.8987,-1.8987,-1.8987,-1.8987,-1.8987,-1.9013,-1.9105,-1.9105,-1.917,0.0,0.0,0.0,0.0,0.0,0.0,0.0,0.0,0.0,0.0,0.0,0.0,0.0,0.0,0.0,0.0,0.0,0.0,0.0,0.0229,0.0,0.0404,0.0572,0.0,0.0975,0.1379,0.2017,0.2889,0.3191,0.3346,0.3346,0.338,0.3127,0.2587,0.2273,0.1766,0.1066,0.0589,0.0252,0.0,0.0,-0.0056,-0.0168,-0.0609,-0.1224,-0.199,-0.2806,-0.3653,-0.4451,-0.4843,-0.5157,-0.5354,-0.5382,-0.5591,-0.5921,-0.6478,-0.7106,-0.7759,-0.8544,-0.9022,-0.937,-0.9856,-1.0047,-1.0174,-1.0498,-1.0593,-1.0593,-1.0593,-1.0681,-1.0776,-1.0776,-1.109,-1.1543,-1.1985,-1.2476,-1.3028,-1.3652,-1.4012,-1.4288,-1.4567,-1.4627,-1.4775,-1.5156,-1.5284,-1.5362,-1.541,-1.541,-1.541,-1.541,-1.541,-1.541,-1.541,-1.5546,-1.5691,-1.5855,-1.6228,-1.6655,-1.705,-1.7551,-1.7963,-1.8286,-1.861,-1.8878,-1.8987,-1.8987,-1.8987,-1.8987,-1.8987,-1.8987,-1.8987,-1.8987,-1.9052,0.0,0.0,0.0,0.0,0.0,0.0,0.0,0.0,0.0,0.0,0.0,0.0,0.0,0.0,0.0,0.0,0.0,0.0,0.0,0.0031,0.0064,0.0067,0.0236,0.0,0.0,0.1344,0.2118,0.2686,0.3049,0.3211,0.3211,0.3288,0.3067,0.2519,0.2029,0.1476,0.0926,0.0449,0.014,0.0,0.0,0.0,-0.0028,-0.0551,-0.1004,-0.1455,-0.2534,-0.3314,-0.3848,-0.4498,-0.4915,-0.5137,-0.5341,-0.5491,-0.5716,-0.6441,-0.7036,-0.7657,-0.8506,-0.9022,-0.937,-0.9856,-1.0238,-1.053,-1.0593,-1.0593,-1.0593,-1.0593,-1.0624,-1.0624,-1.0624,-1.0744,-1.109,-1.1815,-1.2208,-1.2631,-1.3603,-1.3821,-1.3959,-1.4297,-1.4428,-1.4656,-1.5117,-1.5215,-1.5264,-1.5391,-1.541,-1.541,-1.541,-1.541,-1.541,-1.541,-1.541,-1.5507,-1.5701,-1.5884,-1.6189,-1.6627,-1.7217,-1.7661,-1.7963,-1.8491,-1.8878,-1.8987,-1.8987,-1.8987,-1.8987,-1.8987,-1.8987,-1.8987,-1.8987,-1.9025,0.0,0.0,0.0,0.0,0.0,0.0,0.0,0.0,0.0,0.0,0.0,0.0,0.0,0.0,0.0,0.0,-0.0058,0.0,0.0,0.0,-0.022,0.0,0.0,0.0,0.0,0.0,0.0,0.0,0.2552,0.272,0.272,0.2656,0.241,0.1931,0.1504,0.1071,0.0606,0.034,0.014,0.0,0.0,0.0,0.0,-0.0398,-0.0839,-0.1357,-0.2268,-0.3056,-0.3747,-0.4299,-0.4748,-0.5106,-0.5203,-0.5375,-0.5683,-0.621,-0.6741,-0.7269,-0.8052,-0.8635,-0.9119,-0.9792,-1.018,-1.0466,-1.0561,-1.0593,-1.0593,-1.0593,-1.0593,-1.0593,-1.0593,-1.0809,-1.1159,-1.1616,-1.199,-1.2442,-1.3196,-1.3445,-1.361,-1.395,-1.4198,-1.4458,-1.4754,-1.5029,-1.5264,-1.5391,-1.541,-1.541,-1.541,-1.541,-1.541,-1.541,-1.541,-1.5439,-1.5507,-1.5691,-1.5923,-1.6285,-1.705,-1.7744,-1.829,-1.8545,-1.8786,-1.8987,-1.8987,-1.8987,-1.8987,-1.8987,-1.8987,-1.8987,-1.8987,-1.8987,0.0,0.0,0.0,0.0,0.0,0.0,0.0,0.0,0.0,0.0,0.0,0.0,0.0,0.0,-0.0029,-0.0086,0.0,-0.032,0.0,-0.0608,0.0,0.0,0.0,0.0,0.0,0.0,0.0,0.0,0.0,0.2082,0.2082,0.1947,0.1691,0.1322,0.1033,0.0698,0.0354,0.02,0.0084,0.0,0.0,0.0,0.0,-0.028,-0.071,-0.128,-0.2032,-0.2821,-0.3657,-0.41,-0.4594,-0.5042,-0.5042,-0.5253,-0.5587,-0.5984,-0.6412,-0.6942,-0.7657,-0.8404,-0.9119,-0.9792,-1.0142,-1.0339,-1.053,-1.0593,-1.0593,-1.0593,-1.0593,-1.0593,-1.0593,-1.0811,-1.1137,-1.1466,-1.1736,-1.2099,-1.2833,-1.3068,-1.3299,-1.3749,-1.4096,-1.439,-1.4613,-1.4918,-1.5176,-1.5332,-1.5391,-1.541,-1.541,-1.541,-1.541,-1.541,-1.541,-1.541,-1.541,-1.5546,-1.5807,-1.6257,-1.7078,-1.7854,-1.856,-1.864,-1.8747,-1.8987,-1.8987,-1.8987,-1.8987,-1.8987,-1.8987,-1.8987,-1.8987,-1.8987,0.0,0.0,0.0,0.0,0.0,0.0,0.0,0.0,0.0,0.0,0.0,0.0,0.0,0.0,-0.0059,-0.0245,-0.04,0.0,0.0,0.0,0.0,0.0,0.0,0.0,0.0,0.0,0.0,0.0,0.0,0.0,0.1344,0.1344,0.1162,0.084,0.0627,0.0426,0.0206,0.0086,0.0,0.0,0.0,0.0,0.0,-0.028,-0.0645,-0.1152,-0.188,-0.2665,-0.3451,-0.3841,-0.4368,-0.4894,-0.4894,-0.5104,-0.5462,-0.5789,-0.6247,-0.6802,-0.7484,-0.8484,-0.9524,-0.9881,-1.0142,-1.0339,-1.053,-1.0593,-1.0593,-1.0593,-1.0593,-1.0593,-1.0593,-1.06,-1.0811,-1.1512,-1.1409,-1.1447,-1.2664,-1.2878,-1.3059,-1.3843,-1.4155,-1.4452,-1.4991,-1.5025,-1.5059,-1.5186,-1.5313,-1.541,-1.541,-1.541,-1.541,-1.541,-1.541,-1.541,-1.541,-1.541,-1.5787,-1.6733,-1.734,-1.7975,-1.856,-1.8706,-1.8878,-1.8987,-1.8987,-1.8987,-1.8987,-1.8987,-1.8987,-1.8987,-1.8987,-1.8987,0.0,0.0,0.0,0.0,0.0,0.0,0.0,0.0,0.0,0.0,0.0,0.0,0.0,-0.0122,-0.0305,-0.0586,-0.0864,-0.1202,0.0,-0.2004,0.0,0.0,-0.1271,-0.0841,0.0,0.0,0.0,0.0,0.0606,0.0,0.0,0.0674,0.057,0.0465,0.0258,0.0125,0.0061,0.0029,0.0,0.0,0.0,0.0,0.0,-0.0421,-0.0785,-0.115,-0.2125,-0.2852,-0.3441,-0.3941,-0.4445,-0.4887,-0.4887,-0.5101,-0.5428,-0.562,-0.598,-0.6507,-0.7554,-0.8404,-0.9113,-0.953,-0.9849,-1.0142,-1.0339,-1.0498,-1.0593,-1.0593,-1.0593,-1.0593,-1.0593,-1.0734,-1.0975,-1.1404,-1.1512,-1.1707,-1.2424,-1.2658,-1.292,-1.3545,-1.4138,-1.4646,-1.5081,-1.5418,-1.5482,-1.5115,-1.5117,-1.5167,-1.5264,-1.5264,-1.5313,-1.5381,-1.541,-1.541,-1.541,-1.5604,-1.599,-1.6637,-1.7155,-1.7684,-1.8247,-1.8545,-1.8732,-1.8866,-1.8946,-1.8987,-1.8987,-1.8987,-1.8987,-1.8987,-1.8987,-1.8987,0.0,0.0,0.0,0.0,0.0,0.0,0.0,0.0,0.0,0.0,0.0,0.0,-0.0095,-0.0253,-0.0504,-0.0922,-0.1336,-0.1845,0.0,-0.2842,0.0,-0.2815,-0.2082,-0.1444,-0.1109,-0.084,-0.0538,-0.0303,-0.0034,0.0,0.0,0.0,0.0202,0.0202,0.0066,0.0,0.0,0.0,0.0,0.0,0.0,0.0,-0.0028,-0.0477,-0.0925,-0.1345,-0.2291,-0.3016,-0.3577,-0.4027,-0.4474,-0.4887,-0.4887,-0.5101,-0.5425,-0.5488,-0.5881,-0.6507,-0.7554,-0.8274,-0.8867,-0.9332,-0.9716,-1.0047,-1.0238,-1.0428,-1.0593,-1.0593,-1.0593,-1.0593,-1.0593,-1.0807,-1.1062,-1.1322,-1.1498,-1.1744,-1.2252,-1.2564,-1.2929,-1.3584,-1.4244,-1.4862,-1.5309,-1.5627,-1.5705,-1.5369,-1.5253,-1.5248,-1.5337,-1.5213,-1.5147,-1.5254,-1.5313,-1.5362,-1.541,-1.572,-1.6066,-1.6467,-1.6976,-1.7479,-1.8002,-1.8398,-1.8652,-1.8798,-1.8919,-1.8987,-1.8987,-1.8987,-1.8987,-1.8987,-1.8987,-1.8987]}]]